[[{"header":{"parameterUnit":"m.s-1","parameterCategory":1,"la1":30.6,"la2":29.2853,"lo1":-89.7004,"lo2":-87.6739,"dy":0.0162,"dx":0.0183,"nx":112,"ny":82,"refTime":"2023-04-19T06:00:00:Z","depth":0,"parameterNumber":2,"parameterNumberName":"U-component_of_WINDS"},"data":[0.0,0.0,0.0,0.0,0.0,0.0,0.0,0.0,0.0,0.0,0.0,0.0,0.0,0.0,0.0,0.0,0.0,0.0,0.0,0.0,0.0,0.0,0.0,0.0,0.0,0.0,0.0,0.0,0.0,0.0,0.0,0.0,0.0,0.0,0.0,0.0,0.0,0.0,0.0,0.0,0.0,0.0,0.0,0.0,0.0,0.0,0.0,0.0,0.0,0.0,0.0,0.0,0.0,0.0,0.0,0.0,0.0,0.0,0.0,0.0,0.0,0.0,0.0,0.0,0.0,0.0,0.0,0.0,0.0,0.0,0.0,0.0,0.0,0.0,0.0,0.0,0.0,0.0,0.0,0.0,0.0,0.0,0.0,0.0,0.0,0.0,0.0,0.0,0.0,0.0,-3.4554,-3.7693,-4.225,-4.482,-4.419,-4.3224,-4.124,-3.7892,0.0,0.0,0.0,0.0,0.0,0.0,0.0,0.0,0.0,0.0,0.0,0.0,0.0,0.0,0.0,0.0,0.0,0.0,0.0,0.0,0.0,0.0,0.0,0.0,0.0,0.0,0.0,0.0,0.0,0.0,0.0,0.0,0.0,0.0,0.0,0.0,0.0,0.0,0.0,0.0,0.0,0.0,0.0,0.0,0.0,0.0,0.0,0.0,0.0,0.0,0.0,0.0,0.0,0.0,0.0,0.0,0.0,0.0,0.0,0.0,0.0,0.0,0.0,0.0,0.0,0.0,0.0,0.0,0.0,0.0,0.0,0.0,0.0,0.0,0.0,0.0,0.0,0.0,0.0,0.0,0.0,0.0,0.0,0.0,0.0,0.0,0.0,0.0,0.0,0.0,0.0,0.0,0.0,0.0,0.0,0.0,0.0,0.0,0.0,0.0,0.0,0.0,0.0,0.0,-3.4651,-3.9836,-4.2275,-4.35,-4.3379,-4.1447,-3.9715,-3.8491,0.0,0.0,0.0,0.0,0.0,0.0,0.0,0.0,0.0,0.0,0.0,0.0,0.0,0.0,0.0,0.0,0.0,0.0,0.0,0.0,0.0,0.0,0.0,0.0,0.0,0.0,0.0,0.0,0.0,0.0,0.0,0.0,0.0,0.0,0.0,0.0,0.0,0.0,0.0,0.0,0.0,0.0,0.0,0.0,0.0,0.0,0.0,0.0,0.0,0.0,0.0,0.0,0.0,0.0,0.0,0.0,0.0,0.0,0.0,0.0,0.0,0.0,0.0,0.0,0.0,0.0,0.0,0.0,0.0,0.0,0.0,0.0,0.0,0.0,0.0,0.0,0.0,0.0,0.0,0.0,0.0,0.0,0.0,0.0,0.0,0.0,0.0,0.0,0.0,0.0,0.0,0.0,0.0,0.0,0.0,0.0,0.0,0.0,0.0,0.0,0.0,0.0,0.0,-3.3277,-3.593,-3.9813,-4.2016,-4.3189,-4.3189,-4.1067,-3.9198,-3.8082,-3.7215,0.0,0.0,0.0,0.0,0.0,0.0,0.0,0.0,0.0,0.0,0.0,0.0,0.0,0.0,0.0,0.0,0.0,0.0,0.0,0.0,0.0,0.0,0.0,0.0,0.0,0.0,0.0,0.0,0.0,0.0,0.0,0.0,0.0,0.0,0.0,0.0,0.0,0.0,0.0,0.0,0.0,0.0,0.0,0.0,0.0,0.0,0.0,0.0,0.0,0.0,0.0,0.0,0.0,0.0,0.0,0.0,0.0,0.0,0.0,0.0,0.0,0.0,0.0,0.0,0.0,0.0,0.0,0.0,0.0,0.0,0.0,0.0,0.0,0.0,0.0,0.0,0.0,0.0,0.0,0.0,0.0,0.0,0.0,0.0,0.0,0.0,0.0,0.0,0.0,0.0,0.0,0.0,0.0,0.0,0.0,0.0,0.0,0.0,0.0,0.0,0.0,0.0,-3.5062,-3.733,-3.9587,-4.1457,-4.2486,-4.2396,-4.0405,-3.8525,-3.7064,-3.5508,0.0,0.0,0.0,0.0,0.0,0.0,0.0,0.0,0.0,0.0,0.0,0.0,0.0,0.0,0.0,0.0,0.0,0.0,0.0,0.0,0.0,0.0,0.0,0.0,0.0,0.0,0.0,0.0,0.0,0.0,0.0,0.0,0.0,0.0,0.0,0.0,0.0,0.0,0.0,0.0,0.0,0.0,0.0,0.0,0.0,0.0,0.0,0.0,0.0,0.0,0.0,0.0,0.0,0.0,0.0,0.0,0.0,0.0,0.0,0.0,0.0,0.0,0.0,0.0,0.0,0.0,0.0,0.0,0.0,0.0,0.0,0.0,0.0,0.0,0.0,0.0,0.0,0.0,0.0,0.0,0.0,0.0,0.0,0.0,0.0,0.0,0.0,0.0,0.0,0.0,0.0,0.0,0.0,0.0,0.0,0.0,0.0,0.0,0.0,0.0,0.0,0.0,-3.5549,-3.8188,-4.0075,-4.0423,-4.0349,-3.9985,-3.8548,-3.7012,-3.5456,-3.3904,0.0,0.0,0.0,0.0,0.0,0.0,0.0,0.0,0.0,0.0,0.0,0.0,0.0,0.0,0.0,0.0,0.0,0.0,0.0,0.0,0.0,0.0,0.0,0.0,0.0,0.0,0.0,0.0,0.0,0.0,0.0,0.0,0.0,0.0,0.0,0.0,0.0,0.0,0.0,0.0,0.0,0.0,0.0,0.0,0.0,0.0,0.0,0.0,0.0,0.0,0.0,0.0,0.0,0.0,0.0,0.0,0.0,0.0,0.0,0.0,0.0,0.0,0.0,0.0,0.0,0.0,0.0,0.0,0.0,0.0,0.0,0.0,0.0,0.0,0.0,0.0,0.0,0.0,0.0,0.0,0.0,0.0,0.0,0.0,0.0,0.0,0.0,0.0,0.0,0.0,0.0,0.0,0.0,0.0,0.0,0.0,0.0,0.0,0.0,0.0,0.0,0.0,-3.4276,-3.6892,-3.8795,-3.9406,-3.9679,-3.9692,-3.8358,-3.6857,-3.5283,0.0,0.0,0.0,0.0,0.0,0.0,0.0,0.0,0.0,0.0,0.0,0.0,0.0,0.0,0.0,0.0,0.0,0.0,0.0,0.0,0.0,0.0,0.0,0.0,0.0,0.0,0.0,0.0,0.0,0.0,0.0,0.0,0.0,0.0,0.0,0.0,0.0,0.0,0.0,0.0,0.0,0.0,0.0,0.0,0.0,0.0,0.0,0.0,0.0,0.0,0.0,0.0,0.0,0.0,0.0,0.0,0.0,0.0,0.0,0.0,0.0,0.0,0.0,0.0,0.0,0.0,0.0,0.0,0.0,0.0,0.0,0.0,0.0,0.0,0.0,0.0,0.0,0.0,0.0,0.0,0.0,0.0,0.0,0.0,0.0,0.0,0.0,0.0,0.0,0.0,0.0,0.0,0.0,0.0,0.0,0.0,0.0,0.0,0.0,0.0,0.0,0.0,-3.0891,-3.3628,-3.6132,-3.7904,-3.8499,-3.8862,-3.9076,-3.7568,-3.6113,-3.4921,0.0,0.0,0.0,0.0,0.0,0.0,0.0,0.0,0.0,0.0,0.0,0.0,0.0,0.0,0.0,0.0,0.0,0.0,0.0,0.0,0.0,0.0,0.0,0.0,0.0,0.0,0.0,0.0,0.0,0.0,0.0,0.0,0.0,0.0,0.0,0.0,0.0,0.0,0.0,0.0,0.0,0.0,0.0,0.0,0.0,0.0,0.0,0.0,0.0,0.0,0.0,0.0,0.0,0.0,0.0,0.0,0.0,0.0,0.0,0.0,0.0,0.0,0.0,0.0,0.0,0.0,0.0,0.0,0.0,0.0,0.0,0.0,0.0,0.0,0.0,0.0,0.0,0.0,0.0,0.0,0.0,0.0,0.0,0.0,0.0,0.0,0.0,0.0,0.0,0.0,0.0,0.0,0.0,0.0,0.0,0.0,0.0,0.0,0.0,0.0,0.0,0.0,-3.1325,-3.3959,-3.6323,-3.7723,-3.7699,-3.764,-3.7762,-3.5895,-3.4527,0.0,0.0,0.0,0.0,0.0,0.0,0.0,0.0,0.0,0.0,0.0,0.0,0.0,0.0,0.0,0.0,0.0,0.0,0.0,0.0,0.0,0.0,0.0,0.0,0.0,0.0,0.0,0.0,0.0,0.0,0.0,0.0,0.0,0.0,0.0,0.0,0.0,0.0,0.0,0.0,0.0,0.0,0.0,0.0,0.0,0.0,0.0,0.0,0.0,0.0,0.0,0.0,0.0,0.0,0.0,0.0,0.0,0.0,0.0,0.0,0.0,0.0,0.0,0.0,0.0,0.0,0.0,0.0,0.0,0.0,0.0,0.0,0.0,0.0,0.0,0.0,0.0,0.0,0.0,0.0,0.0,0.0,0.0,0.0,0.0,0.0,0.0,0.0,0.0,0.0,0.0,0.0,0.0,0.0,0.0,0.0,0.0,0.0,0.0,0.0,0.0,0.0,0.0,-3.1368,-3.3654,-3.5616,-3.6723,-3.6705,-3.6709,-3.6916,-3.5351,-3.4042,-3.3368,0.0,0.0,0.0,0.0,0.0,0.0,0.0,0.0,0.0,0.0,0.0,0.0,0.0,0.0,0.0,0.0,0.0,0.0,0.0,0.0,0.0,0.0,0.0,0.0,0.0,0.0,0.0,0.0,0.0,0.0,0.0,0.0,0.0,0.0,0.0,0.0,0.0,0.0,0.0,0.0,0.0,0.0,0.0,0.0,0.0,0.0,0.0,0.0,0.0,0.0,0.0,0.0,0.0,0.0,0.0,0.0,0.0,0.0,0.0,0.0,0.0,0.0,0.0,0.0,0.0,0.0,0.0,0.0,0.0,0.0,0.0,0.0,0.0,0.0,0.0,0.0,0.0,0.0,0.0,0.0,0.0,0.0,0.0,0.0,0.0,0.0,0.0,0.0,0.0,0.0,0.0,0.0,0.0,0.0,0.0,0.0,0.0,0.0,0.0,0.0,0.0,0.0,-3.1449,-3.3276,-3.4875,-3.5967,-3.5944,-3.5944,-3.6219,-3.4628,-3.3434,-3.3031,0.0,0.0,0.0,0.0,0.0,0.0,0.0,0.0,0.0,0.0,0.0,0.0,0.0,0.0,0.0,0.0,0.0,0.0,0.0,0.0,0.0,0.0,0.0,0.0,0.0,0.0,0.0,0.0,0.0,0.0,0.0,0.0,0.0,0.0,0.0,0.0,0.0,0.0,0.0,0.0,0.0,0.0,0.0,0.0,0.0,0.0,0.0,0.0,0.0,0.0,0.0,0.0,0.0,0.0,0.0,0.0,0.0,0.0,0.0,0.0,0.0,0.0,0.0,0.0,0.0,0.0,0.0,0.0,0.0,0.0,0.0,0.0,0.0,0.0,0.0,0.0,0.0,0.0,0.0,0.0,0.0,0.0,0.0,0.0,0.0,0.0,0.0,0.0,0.0,0.0,0.0,0.0,0.0,0.0,0.0,0.0,0.0,0.0,0.0,0.0,0.0,0.0,-3.1598,-3.2928,-3.4239,-3.5414,-3.535,-3.535,-3.5582,-3.3785,-3.2724,-3.2911,0.0,0.0,0.0,0.0,0.0,0.0,0.0,0.0,0.0,0.0,0.0,0.0,0.0,0.0,0.0,0.0,0.0,0.0,0.0,0.0,0.0,0.0,0.0,0.0,0.0,0.0,0.0,0.0,0.0,0.0,0.0,0.0,0.0,0.0,0.0,0.0,0.0,0.0,0.0,0.0,0.0,0.0,0.0,0.0,0.0,0.0,0.0,0.0,0.0,0.0,0.0,0.0,0.0,0.0,0.0,0.0,0.0,0.0,0.0,0.0,-3.4584,-3.4899,0.0,0.0,0.0,0.0,0.0,0.0,0.0,0.0,0.0,0.0,0.0,0.0,0.0,0.0,0.0,0.0,0.0,0.0,0.0,0.0,0.0,0.0,0.0,0.0,0.0,0.0,0.0,0.0,0.0,0.0,0.0,0.0,0.0,0.0,0.0,0.0,0.0,0.0,0.0,0.0,-3.2299,-3.3243,-3.4117,-3.4965,-3.4906,-3.4859,-3.4913,-3.331,-3.2305,-3.2374,-3.0859,0.0,0.0,0.0,0.0,0.0,0.0,0.0,0.0,0.0,0.0,0.0,0.0,0.0,0.0,0.0,0.0,0.0,0.0,0.0,0.0,0.0,0.0,0.0,0.0,0.0,0.0,0.0,0.0,0.0,0.0,0.0,0.0,0.0,0.0,0.0,0.0,0.0,0.0,0.0,0.0,0.0,0.0,0.0,0.0,0.0,0.0,0.0,0.0,0.0,0.0,0.0,0.0,0.0,0.0,0.0,0.0,0.0,0.0,0.0,-3.5346,-3.4899,0.0,0.0,0.0,0.0,0.0,0.0,0.0,0.0,0.0,0.0,0.0,0.0,0.0,0.0,0.0,0.0,0.0,0.0,0.0,0.0,0.0,0.0,0.0,0.0,0.0,0.0,0.0,0.0,0.0,0.0,0.0,0.0,0.0,0.0,0.0,0.0,0.0,0.0,0.0,0.0,-3.305,-3.3557,-3.4071,-3.4816,-3.4851,-3.4763,-3.4707,-3.3569,-3.2829,-3.2688,-3.1632,0.0,0.0,0.0,0.0,0.0,0.0,0.0,0.0,0.0,0.0,0.0,0.0,0.0,0.0,0.0,0.0,0.0,0.0,0.0,0.0,0.0,0.0,0.0,0.0,0.0,0.0,0.0,0.0,0.0,0.0,0.0,0.0,0.0,0.0,0.0,0.0,0.0,0.0,0.0,0.0,0.0,0.0,0.0,0.0,0.0,0.0,0.0,0.0,0.0,0.0,0.0,0.0,0.0,-3.8705,-3.932,-3.9771,-3.9611,-3.9534,-3.9375,-3.6821,-3.5536,-3.5263,-3.5148,0.0,0.0,0.0,0.0,0.0,0.0,0.0,0.0,0.0,0.0,0.0,0.0,0.0,0.0,0.0,0.0,0.0,0.0,0.0,0.0,0.0,0.0,-3.3574,-3.48,-3.4717,-3.4336,-3.4203,0.0,0.0,0.0,0.0,0.0,0.0,0.0,0.0,0.0,0.0,0.0,-3.3624,-3.3905,-3.427,-3.5015,-3.4982,-3.4851,-3.4739,-3.4039,-3.351,-3.3257,-3.2574,-3.2152,0.0,0.0,0.0,0.0,0.0,0.0,0.0,0.0,0.0,0.0,0.0,0.0,0.0,0.0,0.0,0.0,0.0,0.0,0.0,0.0,0.0,0.0,0.0,0.0,0.0,0.0,0.0,0.0,0.0,0.0,0.0,0.0,-3.5344,-3.5532,0.0,0.0,0.0,0.0,0.0,0.0,0.0,0.0,0.0,0.0,0.0,0.0,0.0,-3.7858,-3.85,-4.0493,-4.1236,-4.0704,-4.1324,-4.1641,-4.1698,-4.0953,-4.0535,-4.0367,-3.9335,0.0,-3.6771,-3.6125,0.0,0.0,0.0,0.0,0.0,0.0,0.0,0.0,0.0,0.0,0.0,0.0,0.0,0.0,0.0,0.0,0.0,0.0,0.0,0.0,0.0,0.0,-3.5611,-3.581,-3.6274,-3.6489,-3.5843,-3.4121,-3.2702,-3.2702,-3.2702,-3.2431,0.0,0.0,0.0,0.0,0.0,0.0,-3.3673,-3.4352,-3.5032,-3.5777,-3.528,-3.4899,-3.4875,-3.4086,-3.3534,-3.3376,-3.2644,-3.2152,-3.2012,-3.2012,0.0,0.0,0.0,0.0,0.0,0.0,0.0,0.0,0.0,0.0,0.0,0.0,0.0,0.0,0.0,0.0,0.0,0.0,0.0,0.0,0.0,0.0,0.0,0.0,0.0,0.0,0.0,0.0,0.0,-3.6192,-3.6464,-3.5701,-3.6308,-3.6447,0.0,0.0,0.0,0.0,0.0,0.0,0.0,0.0,0.0,-3.9225,-3.9597,-4.0104,-4.0832,-4.2236,-4.2926,-4.2945,-4.3642,-4.4113,-4.4447,-4.4001,-4.3752,-4.3644,-4.2791,-4.1531,-3.9907,-3.7152,-3.581,-3.5479,0.0,0.0,0.0,0.0,-3.5777,-3.6141,-3.6141,-3.6141,-3.6125,-3.6025,0.0,0.0,0.0,0.0,0.0,0.0,0.0,-3.3988,-3.4816,-3.5512,-3.6108,-3.6522,-3.687,-3.7019,-3.6688,-3.586,-3.4932,-3.4087,-3.3938,-3.3557,-3.2415,-3.2564,0.0,0.0,0.0,-3.4203,-3.4932,-3.5678,-3.6257,-3.6589,-3.634,-3.5976,-3.5545,-3.5166,-3.4706,-3.4175,-3.3743,-3.342,-3.3299,-3.3202,-3.3372,0.0,0.0,0.0,0.0,0.0,0.0,0.0,0.0,0.0,0.0,0.0,0.0,0.0,0.0,0.0,0.0,0.0,0.0,0.0,0.0,0.0,0.0,0.0,0.0,0.0,0.0,0.0,0.0,-3.7064,-3.7503,-3.5626,-3.7202,-3.7739,0.0,0.0,0.0,0.0,0.0,0.0,-3.8734,-3.9445,-4.0426,-4.1728,-4.2151,-4.2709,-4.3436,-4.457,-4.524,-4.5513,-4.6052,-4.6548,-4.6965,-4.6675,-4.6547,-4.6466,-4.5577,-4.4308,-4.2576,-3.8891,-3.7168,-3.6787,-3.6241,-3.6357,-3.6837,-3.6837,-3.7069,-3.7384,-3.7384,-3.7268,-3.7052,-3.6688,-3.6191,-3.5611,-3.4866,0.0,0.0,0.0,0.0,-3.4932,-3.6241,-3.6572,-3.6754,-3.75,-3.7665,-3.7615,-3.7433,-3.7384,-3.6953,-3.5462,-3.533,-3.4932,-3.3282,-3.374,0.0,-3.3133,-3.4237,-3.5446,-3.6191,-3.6771,-3.7185,-3.7367,-3.7218,-3.6887,-3.634,-3.6108,-3.5712,-3.5004,-3.4709,-3.4497,-3.4349,-3.4226,-3.4491,-3.5247,0.0,0.0,0.0,0.0,0.0,0.0,0.0,0.0,0.0,0.0,0.0,0.0,0.0,0.0,0.0,0.0,0.0,0.0,0.0,0.0,0.0,0.0,0.0,0.0,0.0,0.0,0.0,0.0,0.0,-3.5169,-3.7892,0.0,0.0,0.0,0.0,-3.8819,-4.0155,-4.1001,-4.1035,-4.1728,-4.2489,-4.3257,-4.4722,-4.5838,-4.6566,-4.868,-4.9424,-4.8751,-4.8815,-4.8818,-4.8835,-4.8142,-4.773,-4.7588,-4.6834,-4.5479,-4.3694,-4.1863,-4.0332,-3.9133,-3.9083,-3.91,-3.9133,-3.9133,-3.8709,-3.8146,-3.8146,-3.7698,-3.7218,-3.788,-3.8079,-3.7914,-3.7168,-3.692,0.0,0.0,-3.6936,-3.7119,-3.7897,-3.8096,-3.8278,-3.9017,-3.9183,-3.9017,-3.8311,-3.8146,-3.7715,-3.6241,-3.6506,-3.6307,-3.4104,0.0,-3.5396,-3.3955,-3.4998,-3.6208,-3.6953,-3.7085,-3.7384,-3.8053,-3.7533,-3.7085,-3.7052,-3.6406,-3.5943,-3.577,-3.5086,-3.4618,-3.4497,-3.4349,-3.4642,-3.5375,-3.6009,0.0,0.0,0.0,0.0,0.0,0.0,0.0,0.0,0.0,0.0,0.0,0.0,0.0,0.0,0.0,0.0,0.0,0.0,0.0,0.0,0.0,0.0,0.0,0.0,0.0,0.0,0.0,0.0,-3.9043,-4.1319,0.0,-4.0245,-4.0267,-4.0423,-4.0423,-4.0913,-4.1613,-4.257,-4.336,-4.4779,-4.6925,-4.7547,-4.8409,-4.9627,-5.0422,-5.0693,-5.0422,-4.9932,-4.9712,-4.9678,-4.8858,-4.8444,-4.8397,-4.7987,-4.7192,-4.6099,-4.5413,-4.3115,-3.9962,-3.9497,-3.9597,-4.0011,-4.0011,-3.9846,-3.962,-3.962,-3.9123,-3.8477,-3.8278,-3.7871,-3.745,-3.7185,-3.7102,-3.7201,-3.7656,-3.7814,-3.798,-3.8709,-3.8907,-3.8984,-3.9249,-3.9299,-3.9232,-3.8941,-3.8907,-3.8609,-3.7615,-3.7251,-3.6854,-3.6059,-3.6357,-3.6539,-3.6009,-3.6787,-3.7516,-3.7755,-3.8212,-3.8636,-3.8874,-3.8659,-3.8311,-3.7864,-3.7135,-3.6481,-3.5952,-3.5151,-3.4667,-3.4618,-3.4423,-3.4414,-3.4691,-3.5766,-3.6432,0.0,0.0,0.0,0.0,0.0,0.0,0.0,0.0,0.0,0.0,0.0,0.0,0.0,0.0,0.0,0.0,0.0,0.0,0.0,0.0,0.0,0.0,0.0,0.0,0.0,-4.1052,-4.2631,-4.1416,-4.3867,-4.4808,-4.2589,-4.2545,-4.2545,-4.2329,-4.2762,-4.3379,-4.4143,-4.5126,-4.6583,-4.8543,-4.9059,-4.9776,-5.0743,-5.1043,-5.1043,-5.0759,-5.0259,-4.9792,-4.9309,-4.8728,-4.8346,-4.8114,-4.8,-4.7488,-4.6762,-4.6649,-4.4671,-4.1601,-4.1264,-4.1288,-4.1475,-4.1475,-4.1382,-4.1161,-4.0912,-4.0358,-3.9634,-3.9133,-3.8444,-3.7831,-3.7831,-3.7831,-3.793,-3.8427,-3.8576,-3.8676,-3.9183,-3.9121,-3.8952,-3.8952,-3.8952,-3.8952,-3.8952,-3.9148,-3.9096,-3.836,-3.8015,-3.7682,-3.7201,-3.7516,-3.7765,-3.7516,-3.8112,-3.8576,-3.8576,-3.9017,-3.9299,-3.9299,-3.9299,-3.9017,-3.8278,-3.7765,-3.7052,-3.6059,-3.5472,-3.5027,-3.478,-3.4497,-3.4488,-3.4733,-3.5977,-3.6772,-3.7015,0.0,0.0,0.0,0.0,0.0,0.0,0.0,0.0,0.0,0.0,0.0,0.0,0.0,0.0,0.0,0.0,0.0,0.0,0.0,0.0,0.0,0.0,0.0,-3.9085,-4.3551,-4.549,-4.2079,-4.5324,-4.6502,-4.3047,-4.4473,-4.5329,-4.4636,-4.5896,-4.6383,-4.5772,-4.7015,-4.7774,-4.7826,-4.9184,-4.9911,-4.9928,-5.0714,-5.0714,-4.9928,-4.9911,-4.9168,-4.7826,-4.7809,-4.7421,-4.6811,-4.6811,-4.6336,-4.5552,-4.5536,-4.4982,-4.418,-4.4521,-4.4211,-4.3598,-4.3568,-4.3177,-4.262,-4.1888,-4.1139,-4.0479,-4.0393,-3.9857,-3.9245,-3.9272,-3.9272,-3.9245,-3.9299,-3.9272,-3.9272,-3.9299,-3.8816,-3.8322,-3.8306,-3.8306,-3.8278,-3.8278,-3.8816,-3.9094,-3.8435,-3.8799,-3.8825,-3.7391,-3.8344,-3.9067,-3.8344,-3.8825,0.0,-3.9299,-3.9299,-3.9299,-3.9299,-3.9299,-3.9017,-3.8278,-3.8169,-3.7549,-3.6092,-3.5976,-3.5644,-3.4932,-3.4643,-3.4857,-3.5611,-3.6712,-3.7619,-3.8391,0.0,0.0,0.0,0.0,0.0,0.0,0.0,0.0,0.0,0.0,0.0,0.0,0.0,0.0,0.0,0.0,0.0,0.0,0.0,0.0,0.0,-4.0255,-4.2333,-4.2823,-4.4624,-4.6271,-4.7284,-4.8495,-4.8852,-4.7875,-4.7813,-4.7559,-4.6861,-4.6259,-4.608,-4.6426,-4.6812,-4.7497,-4.8573,-4.9463,-5.0191,-5.0762,-5.101,-5.101,-5.0762,-5.0191,-4.9463,-4.8573,-4.8036,-4.7421,-4.6811,-4.6811,-4.6664,-4.6433,-4.6279,-4.5798,-4.4995,-4.3929,-4.3423,-4.3174,-4.268,-4.1685,-4.0571,-4.072,-3.9738,-3.8495,-3.8956,-3.8634,-3.8169,-3.8667,-3.8383,-3.8112,-3.904,-3.8969,-3.8689,-3.9175,-3.9148,-3.8898,-3.8407,-3.8306,-3.8165,-3.7735,-3.8153,-3.8535,-3.8351,-3.8435,-3.8448,-3.8041,-3.8706,-3.9232,-3.9033,-3.9183,-3.9299,-3.9299,-3.9299,-3.9299,-3.9299,-3.9299,-3.9017,-3.8278,-3.7715,-3.7003,-3.6059,-3.5495,-3.5098,-3.4916,-3.4643,-3.5003,-3.6084,-3.641,-3.7193,0.0,0.0,0.0,0.0,0.0,0.0,0.0,0.0,0.0,0.0,0.0,0.0,0.0,0.0,0.0,0.0,0.0,0.0,0.0,0.0,0.0,0.0,-4.2705,-4.5097,-4.6817,-4.7716,-4.8719,-5.0016,-5.0231,-5.0115,-4.9781,-4.9095,-4.8379,-4.7708,-4.6648,-4.6059,-4.6209,-4.6512,-4.7054,-4.7923,-4.8853,-4.9566,-5.0033,-5.0033,-5.0033,-5.0033,-4.9566,-4.8853,-4.7923,-4.749,-4.6776,-4.5877,-4.5877,-4.5877,-4.5877,-4.5753,-4.5465,-4.5062,0.0,0.0,0.0,0.0,-4.1581,-4.0782,-4.077,-3.9856,-3.8704,-3.8758,-3.8282,-3.7796,-3.8185,-3.7911,-3.7634,-3.8367,-3.8282,-3.801,-3.8395,-3.8298,-3.7998,-3.7589,-3.7501,-3.7413,-3.7041,-3.7472,-3.7908,-3.7908,-3.8137,0.0,-3.7966,-3.8451,-3.8871,-3.8871,-3.9121,-3.9299,-3.9299,-3.9299,-3.9299,-3.9299,-3.9033,-3.8526,-3.7814,-3.7367,0.0,0.0,0.0,-3.519,-3.4828,-3.4914,0.0,0.0,0.0,-3.7274,-3.8391,-3.8391,0.0,0.0,-3.8391,-3.825,0.0,0.0,0.0,0.0,0.0,0.0,0.0,0.0,0.0,0.0,0.0,0.0,0.0,0.0,0.0,0.0,-4.5041,-4.7157,-5.0359,-5.1524,-5.1805,-5.1086,-5.1008,-5.0683,-4.9889,-4.922,-4.8527,-4.7773,-4.7157,-4.6526,-4.5849,-4.6449,0.0,0.0,0.0,-4.862,-4.862,-4.862,-4.862,-4.862,-4.8543,-4.7835,-4.6603,-4.6511,-4.5788,-4.461,-4.461,-4.461,-4.461,-4.461,-4.4567,-4.4543,-4.4776,-4.4054,-4.276,-4.2334,-4.2109,-4.1901,-4.1451,0.0,0.0,-3.9079,-3.8319,-3.7666,-3.7725,-3.7592,-3.7383,-3.7531,-3.7458,-3.731,-3.737,-3.6951,-3.6492,-3.643,-3.6399,-3.6368,-3.6305,-3.6814,-3.728,-3.728,-3.7706,-3.7937,-3.7472,-3.7908,-3.8278,-3.8193,-3.8772,-3.9175,-3.9175,-3.9245,-3.9265,-3.9183,-3.8593,0.0,-3.7052,-3.6986,-3.639,-3.4982,-3.5512,-3.5563,-3.4839,-3.535,-3.592,-3.6521,-3.7037,-3.7679,-3.8391,-3.8391,-3.8363,-3.8278,-3.8278,-3.7976,0.0,0.0,0.0,0.0,0.0,0.0,0.0,0.0,0.0,0.0,0.0,0.0,0.0,0.0,0.0,-4.4101,-4.6951,-4.9512,-5.1267,-5.2116,-5.2495,-5.2335,-5.1884,-5.1256,-5.0586,-5.0374,-4.9774,-4.8512,-4.8296,-4.7927,-4.725,-4.785,-4.7973,-4.7419,-4.8189,-4.862,-4.862,-4.862,-4.862,-4.8604,-4.8065,0.0,-4.6573,-4.6034,-4.5341,-4.461,-4.461,-4.461,-4.461,-4.461,-4.4284,-4.3743,-4.328,-4.2249,-4.1038,-4.1355,-4.0796,-3.999,-4.0765,-3.9537,-3.7691,-3.8071,-3.7269,-3.6243,-3.6753,-3.6445,0.0,-3.7161,-3.7041,-3.6723,-3.7251,-3.731,-3.7071,-3.6523,-3.6399,-3.6258,-3.5765,-3.6164,-3.66,-3.66,-3.6692,-3.689,-3.734,-3.7908,-3.8137,-3.7648,-3.8096,-3.849,-3.849,-3.8969,-3.9083,-3.8477,-3.8295,-3.7665,-3.634,-3.6224,-3.5843,-3.4965,-3.5032,-3.5265,-3.5564,-3.5704,-3.6252,-3.7264,-3.74,-3.7757,-3.8391,-3.8391,-3.8119,-3.7594,-3.7594,-3.7535,0.0,0.0,0.0,0.0,0.0,0.0,0.0,0.0,0.0,0.0,0.0,-3.9317,-4.1197,0.0,-4.488,-4.725,-4.9358,-5.1051,-5.2067,-5.2498,-5.2713,-5.2713,-5.1821,-5.1067,-5.0728,-5.0389,-4.9897,-4.9204,-4.9143,-4.885,-4.8142,-4.8435,-4.8296,-4.7635,-4.8266,-4.862,-4.862,-4.862,-4.862,-4.8604,-4.7927,-4.725,-4.6573,-4.5895,-4.5218,-4.461,-4.461,-4.461,-4.4594,-4.4255,-4.3531,-4.2546,-4.2241,-4.167,-4.1051,-4.0923,-4.048,-3.9883,-3.9769,-3.8864,-3.7693,-3.7373,-3.6957,-3.659,-3.6475,-3.6408,-3.6366,-3.6507,-3.6321,-3.6117,-3.6368,-3.643,-3.6352,-3.6022,-3.5941,-3.5878,-3.5569,-3.5733,-3.6053,-3.6337,-3.6399,-3.6523,-3.6829,-3.7413,-3.7735,-3.7458,-3.7908,-3.8306,-3.8306,-3.8898,-3.9166,-3.8775,-3.8096,-3.7367,-3.6622,-3.5876,-3.5297,-3.4916,-3.4899,-3.5206,-3.5861,-3.6207,-3.673,-3.7584,-3.7894,-3.8158,-3.8391,-3.8062,-3.7727,-3.7387,-3.6723,-3.6399,0.0,0.0,0.0,0.0,0.0,0.0,0.0,-3.6565,-3.8001,-4.0235,-4.1199,-4.2597,-4.5834,-4.6603,-4.7727,-5.062,-5.1652,-5.2283,-5.2837,-5.279,-5.2713,-5.2713,-5.1759,-5.099,-5.0728,-5.0205,-4.982,-4.9697,-4.9805,-4.9574,-4.885,-4.8943,-4.865,-4.7835,-4.8327,-4.862,-4.862,-4.862,-4.862,-4.8604,-4.7788,-4.7127,-4.6573,-4.5757,-4.5095,-4.461,-4.461,-4.461,-4.4564,-4.3886,-4.29,-4.1786,-4.1648,-4.1509,-4.1324,-4.0705,-4.0489,-4.032,-3.9123,-3.8583,-3.8242,-3.7013,-3.6859,-3.7025,-3.6316,-3.645,-3.6689,-3.5886,-3.5671,-3.5653,-3.5522,-3.5504,-3.5504,-3.5504,-3.5504,-3.5504,-3.5504,-3.5504,-3.5651,-3.6148,-3.6227,-3.6258,-3.6368,-3.6753,-3.7041,-3.7041,-3.7764,-3.825,-3.8137,-3.8816,-3.9199,-3.8917,-3.7814,-3.6986,-3.6704,-3.5578,-3.4965,-3.5098,-3.5114,-3.5512,-3.639,-3.6901,-3.7373,-3.7904,-3.8389,-3.856,-3.8391,-3.7727,-3.7312,-3.7193,-3.5961,-3.54,-3.356,-3.344,-3.4102,-3.6061,-3.6498,-3.7549,0.0,-4.2533,-4.3186,-4.5349,-4.6302,-4.7271,-4.8927,-5.0205,-5.1344,-5.2329,-5.3052,-5.3514,-5.3606,-5.3098,-5.2713,-5.2713,-5.2575,-5.2021,-5.0805,-5.062,-5.0328,-4.9728,-5.0236,-5.0282,-4.9605,-5.0128,-4.9866,-4.8543,-4.8573,-4.862,-4.862,-4.862,-4.862,-4.8604,-4.7327,-4.6665,-4.6557,-4.528,-4.4687,-4.461,-4.461,-4.461,-4.4564,-4.3886,-4.314,-4.2432,-4.1832,-4.1217,-4.0597,-4.052,-4.0489,-4.0382,-3.9644,-3.8916,-3.8203,-3.7374,-3.6586,-3.5874,-3.5767,-3.5746,-3.5659,-3.5552,-3.5537,-3.5537,-3.5504,-3.5504,-3.5504,-3.5504,-3.5504,-3.5504,-3.5504,-3.5504,-3.5537,-3.5587,-3.5587,-3.5765,-3.6305,-3.6022,-3.5716,-3.5716,-3.7191,-3.8108,-3.756,-3.8551,-3.8801,-3.75,-3.7201,-3.6572,-3.5263,-3.4982,-3.5181,-3.5843,-3.5876,-3.6506,-3.7914,-3.802,-3.8253,-3.8674,-3.8728,-3.8655,-3.8391,-3.7727,-3.7087,-3.6477,-3.5738,-3.54,-3.5672,-3.554,-3.5891,-3.7395,-3.8699,-4.0388,-4.3361,-4.4596,-4.5837,-4.844,-4.975,-5.0708,-5.1807,-5.2498,-5.2975,-5.3252,-5.3545,-5.3575,-5.3191,-5.2898,-5.2421,-5.1636,-5.1544,-5.1313,-5.0743,-5.0343,-5.0143,-5.0266,-5.0528,-5.0574,-5.0297,-5.0174,-4.9651,-4.8635,-4.862,-4.862,-4.862,-4.862,-4.862,-4.8604,-4.7234,-4.6603,-4.6542,-4.5187,-4.461,-4.4594,-4.4194,-4.3824,-4.3371,-4.2694,-4.2017,-4.1335,-4.1078,-4.0751,-4.0489,-4.0489,-4.0489,-4.0397,-3.9721,-3.9011,-3.8302,-3.7611,-3.71,-3.6667,-3.6128,-3.631,-3.6554,-3.5967,-3.5797,-3.5765,-3.5653,-3.5554,-3.5504,-3.5504,-3.5504,-3.5504,-3.5504,-3.5504,-3.5504,-3.5504,-3.5504,-3.5587,-3.5814,-3.5973,-3.591,-3.5554,-3.6814,-3.7693,-3.7413,-3.8495,-3.8917,-3.7864,-3.6986,-3.6208,-3.5595,-3.5545,-3.5678,-3.5976,-3.6406,-3.7119,-3.8179,-3.8186,-3.8438,-3.8898,-3.8832,-3.8711,-3.8504,-3.7752,-3.728,-3.6966,-3.5887,-3.5392,-3.6483,-3.6838,-3.7557,-3.8825,-4.1183,-4.3605,-4.5225,-4.6848,-4.8791,-5.1285,-5.2302,-5.307,-5.4068,-5.4114,-5.4006,-5.4006,-5.3806,-5.3483,-5.2806,-5.239,-5.1728,-5.0559,-5.0082,-4.9835,-4.9835,-4.9743,-4.9882,-5.0374,-5.059,-5.062,-5.042,-4.9943,-4.9358,-4.8635,-4.862,-4.862,-4.862,-4.862,-4.8527,-4.8327,-4.7157,-4.6496,-4.628,-4.511,-4.461,-4.4579,-4.3901,-4.331,-4.2802,-4.194,-4.1294,-4.0766,-4.0566,-4.0489,-4.0489,-4.0489,-4.0489,-4.0366,-3.9505,-3.8923,-3.8369,-3.7507,-3.7183,-3.7027,-3.638,-3.6594,-3.6853,-3.6127,-3.5878,-3.5829,-3.5671,-3.5572,-3.5504,-3.5504,-3.5504,-3.5504,-3.5504,-3.5504,-3.5504,-3.5504,-3.5504,-3.5504,-3.5504,-3.5846,-3.599,-3.5569,-3.6445,-3.7191,-3.737,-3.8332,-3.8858,-3.8543,-3.7367,-3.6688,-3.6887,-3.6903,-3.7003,-3.7201,-3.7715,-3.8328,-3.9056,-3.9063,-3.9257,-3.9616,-3.9297,-3.9033,-3.8909,-3.7871,-3.7405,-3.737,-3.6205,-3.5566,-3.5016,-3.6491,-3.8503,-4.0679,-4.4236,-4.7431,-4.8286,-5.0546,-5.2884,-5.4268,-5.4068,-5.4099,-5.5391,-5.5114,-5.4652,-5.4652,-5.4099,-5.3483,-5.2806,-5.1575,-5.0497,-4.9805,-4.8527,-4.7696,-4.7696,-4.8897,-4.9697,-4.9712,-5.0328,-5.0405,-4.9758,-4.9697,-4.9358,-4.8635,-4.862,-4.862,-4.862,-4.862,-4.8281,-4.7635,-4.6927,-4.6249,-4.5603,-4.4933,-4.461,-4.4579,-4.3901,-4.3593,-4.347,-4.214,-4.1586,-4.1494,-4.0766,-4.0489,-4.0489,-4.0489,-4.0489,-4.0305,-3.9,-3.8523,-3.8292,-3.6953,-3.6413,-3.6226,-3.6211,-3.599,-3.575,-3.572,-3.5636,-3.5504,-3.5504,-3.5504,-3.5504,-3.5504,-3.5504,-3.5504,-3.5504,-3.5504,-3.5504,-3.5504,-3.5504,-3.5504,-3.5504,-3.5504,-3.5537,-3.5504,-3.6022,-3.6662,-3.731,-3.7882,-3.8493,-3.9199,-3.8593,-3.8427,-3.9149,-3.9199,-3.9497,-4.0227,-4.0293,-4.0597,-4.1293,-4.1281,-4.1241,-4.1144,-4.0299,-3.9797,-3.9654,-3.8137,-3.7399,-3.7383,-3.6616,-3.5973,-3.6755,-3.8989,-4.1591,-4.4703,-4.6846,-4.8859,-5.1392,-5.2375,-5.296,-5.3822,-5.316,-5.2375,-5.2375,-5.1821,-5.139,-5.139,-5.1944,-5.2144,-5.1467,-5.1374,-5.0605,-4.8543,-4.7896,-4.725,-4.6357,-4.7096,-4.8004,-4.8912,-4.8773,-4.8943,-4.9651,-4.9235,-4.8866,-4.862,-4.862,-4.8404,-4.7942,-4.7942,-4.7604,-4.6927,-4.6249,-4.5572,-4.4949,-4.4718,-4.461,-4.4548,-4.3402,-4.294,-4.2817,-4.1447,-4.0858,-4.0863,-4.0597,-4.0489,-4.0489,-4.0489,-4.0489,-4.0366,-3.9459,-3.8893,-3.8354,-3.7446,-3.683,-3.6383,-3.6242,-3.6133,-3.6006,-3.5926,-3.5767,-3.5638,-3.5638,-3.5587,-3.5504,-3.5504,-3.5504,-3.5504,-3.5504,-3.5504,-3.5504,-3.5504,-3.5504,-3.5504,-3.5504,-3.5504,-3.5651,-3.6053,-3.6631,-3.728,-3.7908,-3.8112,-3.8676,-3.9912,-3.8924,-3.8709,-3.9928,-4.0028,-4.0144,-4.0393,-4.0812,-4.1177,-4.1409,-4.1409,-4.138,-4.1324,-4.0881,-4.0623,-4.0565,-3.9329,-3.8735,-3.8701,-3.7526,-3.6842,-3.9314,-4.1776,-4.4319,-4.7809,-4.9389,-5.0713,-5.316,-5.3206,-5.2837,-5.3268,-5.2098,-5.0774,-5.0082,-4.9404,-4.8773,-4.8296,-4.8943,-4.9451,-4.9251,-4.9189,-4.8681,-4.7404,-4.7034,-4.6449,-4.5341,-4.5834,-4.6803,-4.8142,-4.8081,-4.8358,-4.9251,-4.8866,-4.862,-4.862,-4.862,-4.8296,-4.7619,-4.7604,-4.7142,-4.6219,-4.5541,-4.5041,-4.461,-4.461,-4.461,-4.4548,-4.3433,-4.2956,-4.2848,-4.1478,-4.0874,-4.0858,-4.0597,-4.0489,-4.0489,-4.0489,-4.0489,-4.0366,-3.9444,-3.8811,-3.8271,-3.7335,-3.6704,-3.6304,-3.6148,-3.6085,-3.6006,-3.5926,-3.5782,-3.5621,-3.5621,-3.5572,-3.5504,-3.5504,-3.5504,-3.5504,-3.5504,-3.5504,-3.5504,-3.5504,-3.5504,-3.5504,-3.5504,-3.5504,-3.5701,-3.6305,-3.6981,-3.7634,-3.8222,-3.8477,-3.9156,-4.0597,-3.9918,-3.9951,-4.1409,-4.1541,-4.1541,-4.1541,-4.1955,-4.2175,-4.2175,-4.2175,-4.2175,-4.2175,-4.1725,-4.1448,-4.1377,-4.0101,-3.9565,-3.974,-3.8301,-3.7644,-4.2435,-4.4649,-4.6603,-4.9912,-5.1682,-5.279,-5.3422,-5.3067,-5.2544,-5.2467,-5.0805,-4.9143,-4.8389,-4.7727,-4.6896,-4.568,-4.5603,-4.5926,-4.6603,-4.5634,-4.5334,-4.6511,-4.608,-4.5418,-4.4779,-4.5264,-4.6188,-4.7511,-4.8173,-4.8543,-4.862,-4.862,-4.862,-4.862,-4.862,-4.8266,-4.7558,-4.7481,-4.6803,-4.5526,-4.4918,-4.461,-4.461,-4.461,-4.461,-4.4579,-4.387,-4.3562,-4.3454,-4.2094,-4.154,-4.1478,-4.0751,-4.0489,-4.0489,-4.0489,-4.0489,-4.0305,-3.9016,-3.8471,-3.8124,-3.6732,-3.6162,-3.6051,-3.6051,-3.5923,-3.5733,-3.5733,-3.5649,-3.5549,-3.5519,-3.5504,-3.5504,-3.5504,-3.5504,-3.5504,-3.5504,-3.5534,-3.5549,-3.5549,-3.5579,-3.5579,-3.5519,-3.5567,-3.5778,-3.6321,-3.7011,-3.7648,-3.8238,-3.8898,-3.9846,-4.1259,-4.1409,-4.1993,-4.3466,-4.3598,-4.3598,-4.3598,-4.3598,-4.3598,-4.3598,-4.3598,-4.3598,-4.3598,-4.2785,-4.2292,-4.213,-4.0514,-3.9994,-4.0496,-3.8934,-3.8289,-4.445,-4.6819,-4.9097,-5.0974,-5.1328,-5.139,-5.2067,-5.1298,-5.0174,-4.9127,-4.6896,-4.481,-4.3602,-4.3248,-4.334,-4.4009,-4.5772,-4.7327,-4.8004,-4.8266,-4.8127,-4.7434,-4.7188,-4.6819,-4.6142,-4.6234,-4.6696,-4.7542,-4.7296,-4.7558,-4.8558,-4.862,-4.862,-4.862,-4.862,-4.805,-4.6865,-4.5849,-4.5172,-4.4872,-4.4664,-4.461,-4.461,-4.461,-4.461,-4.4548,-4.3356,-4.2848,-4.2756,-4.137,-4.0766,-4.0751,-4.0566,-4.0489,-4.0489,-4.0489,-4.0489,-4.0366,-3.9521,-3.9228,-3.898,-3.7612,-3.7024,-3.6863,-3.678,-3.6602,-3.6423,-3.6307,-3.6256,-3.6118,-3.5624,-3.5504,-3.5504,-3.5504,-3.5504,-3.5504,-3.5504,-3.5893,-3.6237,-3.6237,-3.6611,-3.6626,-3.5669,-3.6286,-3.6808,-3.6445,-3.7354,-3.8137,-3.8278,-3.8898,-3.9846,-4.1259,-4.1409,-4.1993,-4.3466,-4.3598,-4.3598,-4.3598,-4.3598,-4.3598,-4.3598,-4.3598,-4.3598,-4.3598,-4.3281,-4.3032,-4.2834,-4.1773,-4.1257,-4.1191,-3.9247,-3.8624,-4.8055,-4.9835,-5.1344,-5.2698,-5.2082,-5.1082,-5.0867,-4.9528,-4.7773,-4.5818,-4.3725,-4.1925,-4.0878,-4.0924,-4.1278,-4.1724,-4.3833,-4.5741,-4.6711,-4.7188,-4.7481,-4.7588,-4.7604,-4.7342,-4.6665,-4.6865,-4.7188,-4.7573,-4.725,-4.7511,-4.8558,-4.862,-4.862,-4.862,-4.8327,-4.7527,-4.6157,-4.511,-4.461,-4.461,-4.461,-4.461,-4.461,-4.461,-4.461,-4.4526,-4.3479,-4.3033,-4.2925,-4.1555,-4.117,-4.1351,-4.0735,-4.0689,-4.0955,-4.0612,-4.0489,-4.0443,-4.0059,-3.9902,-3.9619,-3.8302,-3.7711,-3.7532,-3.7364,-3.7231,-3.7083,-3.6948,-3.6881,-3.6746,-3.6103,-3.6148,-3.6267,-3.5998,-3.5938,-3.6013,-3.6282,-3.6417,-3.6567,-3.6836,-3.7165,-3.709,-3.6103,-3.6537,-3.6862,-3.6475,-3.7265,-3.7994,-3.8266,-3.8898,-3.973,-4.0829,-4.0961,-4.1558,-4.2986,-4.3118,-4.3251,-4.3582,-4.3598,-4.3598,-4.3598,-4.3598,-4.3598,-4.3598,-4.3539,-4.3372,-4.3113,-4.2301,-4.1917,-4.1917,-3.952,-3.8737,-5.1898,-5.2837,-5.3191,-5.4053,-5.2867,-5.1036,-4.9481,-4.7542,-4.5326,-4.2725,-4.1093,-3.989,-3.9247,-3.9782,-4.0228,-3.9862,-4.1524,-4.3356,-4.4787,-4.4987,-4.5664,-4.7511,-4.7742,-4.7511,-4.6927,-4.7388,-4.7742,-4.7742,-4.7742,-4.8004,-4.8589,-4.862,-4.8573,-4.8481,-4.7819,-4.6865,-4.5603,-4.4964,-4.461,-4.461,-4.461,-4.461,-4.461,-4.461,-4.4564,-4.444,-4.3778,-4.3424,-4.3254,-4.1971,-4.1863,-4.2355,-4.1105,-4.1047,-4.1524,-4.0858,-4.0566,-4.0489,-4.0489,-4.0436,-4.0132,-3.8877,-3.8281,-3.8098,-3.8031,-3.7911,-3.7775,-3.771,-3.7608,-3.7389,-3.6776,-3.7,-3.727,-3.6731,-3.6611,-3.6746,-3.73,-3.706,-3.6896,-3.7434,-3.7614,-3.7449,-3.6731,-3.6686,-3.6676,-3.644,-3.6985,-3.7583,-3.8124,-3.8843,-3.958,-4.0326,-4.0492,-4.1061,-4.2373,-4.2589,-4.292,-4.3549,-4.3598,-4.3598,-4.3598,-4.3598,-4.3598,-4.3598,-4.3598,-4.3432,-4.3113,-4.2443,-4.2221,-4.2409,-3.9668,-3.8819,-5.2544,-5.3529,-5.3991,-5.259,-5.1113,-4.9374,-4.6865,-4.4741,-4.2679,-4.0509,-3.897,-3.7815,-3.7138,-3.8477,-4.0031,-4.1078,-4.2925,-4.4895,-4.6803,-4.708,-4.7419,-4.8327,-4.8435,-4.8389,-4.8266,-4.8373,-4.8435,-4.8435,-4.8435,-4.8496,-4.8604,-4.862,-4.8358,-4.7788,-4.7127,-4.6388,-4.5603,-4.4964,-4.461,-4.461,-4.461,-4.461,-4.461,-4.461,-4.4317,-4.3747,-4.3048,-4.2463,-4.1878,-4.1047,-4.1124,-4.1755,-4.1509,-4.1494,-4.1586,-4.1463,-4.1032,-4.0489,-4.0489,-4.0489,-4.0332,-3.9548,-3.8967,-3.8728,-3.9393,-3.8989,-3.8387,-3.8956,-3.8698,-3.8063,-3.7419,-3.733,-3.7375,-3.727,-3.724,-3.7285,-3.7389,-3.7749,-3.8093,-3.8197,-3.8676,-3.8691,-3.7464,-3.7704,-3.7693,-3.6643,-3.7004,-3.7452,-3.7551,-3.8579,-3.958,-4.0326,-4.0895,-4.1574,-4.2423,-4.3052,-4.3449,-4.3582,-4.3598,-4.3598,-4.3598,-4.3598,-4.3598,-4.3598,-4.3492,-4.3312,-4.3113,-4.2867,-4.2419,-4.1727,-3.9497,-3.8814,-5.4176,-5.473,-5.4822,-5.3175,-5.0928,-4.8235,-4.4818,-4.2463,-4.0324,-3.7908,-3.6907,-3.6461,-3.6492,-3.8154,-3.9705,-4.0401,-4.2217,-4.4249,-4.628,-4.6557,-4.7065,-4.845,-4.862,-4.862,-4.862,-4.862,-4.862,-4.862,-4.862,-4.862,-4.862,-4.862,-4.8142,-4.7111,-4.6757,-4.6095,-4.5064,-4.4779,-4.461,-4.461,-4.461,-4.461,-4.461,-4.461,-4.444,-4.4071,-4.3033,-4.2417,-4.2048,-4.0935,-4.112,-4.2094,-4.174,-4.2017,-4.254,-4.1848,-4.1386,-4.1032,-4.0628,-4.0455,-4.0339,-4.012,-3.9807,-3.9599,-3.9895,-3.9569,-3.9128,-3.9375,-3.9199,-3.8781,-3.8093,-3.8182,-3.8362,-3.8003,-3.8197,-3.8362,-3.8003,-3.8452,-3.8931,-3.8931,-3.9185,-3.9059,-3.8093,-3.8182,-3.8063,-3.7105,-3.7527,-3.7772,-3.7452,-3.8515,-3.9445,-3.9802,-4.01,-4.0746,-4.1827,-4.2241,-4.2771,-4.3549,-4.3598,-4.3598,-4.3598,-4.3598,-4.3598,-4.3598,-4.3539,-4.3432,-4.3281,-4.3099,-4.2539,-4.164,-3.9881,-3.8984,-5.5176,-5.5484,-5.533,-5.3868,-5.0928,-4.7342,-4.331,-4.0786,-3.8585,-3.6014,-3.5398,-3.5522,-3.6338,-3.78,-3.9016,-3.9447,-4.1001,-4.291,-4.5064,-4.5495,-4.628,-4.8173,-4.8527,-4.862,-4.862,-4.862,-4.862,-4.862,-4.862,-4.862,-4.862,-4.862,-4.8004,-4.6634,-4.6603,-4.5942,-4.4625,-4.461,-4.461,-4.461,-4.461,-4.461,-4.461,-4.461,-4.4533,-4.4348,-4.3264,-4.2648,-4.2309,-4.1166,-4.1458,-4.254,-4.1863,-4.2325,-4.3254,-4.2032,-4.1509,-4.1294,-4.0689,-4.0436,-4.0366,-4.047,-4.0366,-4.0226,-4.0226,-3.9965,-3.9681,-3.9646,-3.9517,-3.929,-3.8751,-3.902,-3.929,-3.8736,-3.902,-3.9275,-3.8736,-3.9035,-3.9388,-3.9388,-3.9388,-3.9245,-3.8706,-3.8601,-3.8392,-3.7719,-3.8076,-3.8218,-3.7674,-3.8603,-3.9366,-3.9523,-3.9665,-4.0249,-4.1541,-4.1761,-4.2291,-4.33,-4.3499,-4.3515,-4.3367,-4.3515,-4.3598,-4.3598,-4.3568,-4.3462,-4.3342,-4.3143,-4.26,-4.1701,-4.0353,-3.9453,-5.4052,-5.4776,-5.5222,-5.3298,-5.0236,-4.665,-4.2617,-4.0093,-3.8,-3.5953,-3.5028,-3.4998,-3.6245,-3.6645,-3.7369,-3.9216,-4.0151,-4.1648,-4.4295,-4.5241,-4.6111,-4.7527,-4.8235,-4.862,-4.862,-4.862,-4.862,-4.862,-4.862,-4.862,-4.862,-4.862,-4.8004,-4.6634,-4.6603,-4.5942,-4.4625,-4.461,-4.461,-4.461,-4.461,-4.461,-4.461,-4.461,-4.4286,-4.3701,-4.3578,-4.2802,-4.1678,-4.1555,-4.194,-4.254,-4.1863,-4.2048,-4.2602,-4.1863,-4.1186,-4.0582,-4.052,-4.0489,-4.0489,-4.0505,-4.0296,-4.0137,-4.0718,-4.0355,-3.9788,-4.0285,-3.9915,-3.9373,-3.9298,-3.9328,-3.9373,-3.9298,-3.9379,-3.9394,-3.9298,-3.9379,-3.9388,-3.9388,-3.9388,-3.9394,-3.9298,-3.9334,-3.9095,-3.8407,-3.8372,-3.8394,-3.8315,-3.8935,-3.9622,-4.0237,-4.0853,-4.1541,-4.2324,-4.3002,-4.3168,-4.2622,-4.3218,-4.33,-4.2622,-4.3234,-4.3598,-4.3598,-4.3479,-4.3312,-4.3143,-4.2976,-4.2463,-4.1596,-4.0832,-4.0417,-5.2807,-5.4099,-5.4637,-5.2606,-4.922,-4.5541,-4.2325,-3.937,-3.6953,-3.5737,-3.5306,-3.5398,-3.6322,-3.683,-3.7507,-3.8708,-3.9105,-4.0278,-4.3002,-4.3279,-4.4141,-4.6696,-4.7234,-4.7711,-4.8543,-4.862,-4.862,-4.862,-4.862,-4.862,-4.862,-4.8235,-4.7573,-4.6619,-4.6203,-4.5541,-4.4625,-4.461,-4.4821,-4.5237,-4.4821,-4.4821,-4.5253,-4.4783,-4.424,-4.3578,-4.3156,-4.2463,-4.1571,-4.1124,-4.137,-4.1971,-4.1694,-4.2017,-4.2525,-4.1848,-4.1417,-4.1109,-4.0643,-4.0489,-4.0489,-4.0489,-4.0366,-4.0207,-4.0351,-4.0071,-3.9717,-3.9824,-3.9625,-3.9388,-3.9388,-3.9717,-3.995,-3.9517,-3.9753,-3.995,-3.9481,-3.9388,-3.9388,-3.9388,-3.9388,-3.9388,-3.9388,-3.9788,-3.9949,-3.971,-4.0028,-3.997,-3.9188,-3.9622,-4.0119,-4.0417,-4.1017,-4.1678,-4.2423,-4.2754,-4.2986,-4.3151,-4.3019,-4.2804,-4.2506,-4.2771,-4.2936,-4.2936,-4.3248,-4.3372,-4.3281,-4.3007,-4.2494,-4.1717,-4.1365,-4.1189,-5.0734,-5.2453,-5.3391,-5.1559,-4.8173,-4.4587,-4.1894,-3.8921,-3.6475,-3.566,-3.5446,-3.5645,-3.6368,-3.6722,-3.7261,-3.8338,-3.8508,-3.94,-4.1955,-4.1909,-4.2556,-4.511,-4.5588,-4.6234,-4.7588,-4.8266,-4.862,-4.862,-4.862,-4.862,-4.862,-4.7788,-4.7096,-4.6603,-4.5942,-4.5264,-4.4625,-4.461,-4.4858,-4.5384,-4.4858,-4.4858,-4.5348,-4.4821,-4.4348,-4.387,-4.3171,-4.2509,-4.1848,-4.114,-4.114,-4.1571,-4.137,-4.1709,-4.2232,-4.154,-4.1278,-4.1217,-4.0674,-4.0489,-4.0489,-4.0489,-4.0436,-4.0296,-4.0066,-3.9854,-3.9661,-3.9445,-3.9388,-3.9388,-3.9388,-3.9788,-4.0041,-3.9517,-3.9788,-4.0021,-3.9517,-3.9388,-3.9388,-3.9388,-3.9388,-3.9388,-3.9388,-3.9809,-4.025,-4.0478,-4.0907,-4.0921,-4.0186,-4.0669,-4.1072,-4.1119,-4.1673,-4.2258,-4.2771,-4.282,-4.2936,-4.3251,-4.2986,-4.2721,-4.2506,-4.2704,-4.282,-4.282,-4.3228,-4.3402,-4.3312,-4.3068,-4.2623,-4.2042,-4.2161,-4.2454,-4.7461,-4.9539,-5.1405,-5.0051,-4.7127,-4.3879,-4.112,-3.8806,-3.6854,-3.5722,-3.5339,-3.5477,-3.6337,-3.5953,-3.6153,-3.8185,-3.8508,-3.9231,-4.1324,-4.1601,-4.1863,-4.2571,-4.3217,-4.4178,-4.548,-4.7434,-4.862,-4.862,-4.862,-4.862,-4.862,-4.7342,-4.6603,-4.6603,-4.5942,-4.5264,-4.4625,-4.461,-4.461,-4.461,-4.461,-4.461,-4.461,-4.461,-4.461,-4.4564,-4.3886,-4.3202,-4.254,-4.1863,-4.1586,-4.1524,-4.0782,-4.0951,-4.1524,-4.0766,-4.0505,-4.0505,-4.0489,-4.0489,-4.0489,-4.0489,-4.0489,-4.0436,-4.0101,-3.9854,-3.9661,-3.9445,-3.9388,-3.9388,-3.9388,-3.9424,-3.9424,-3.9388,-3.9424,-3.9424,-3.9388,-3.9388,-3.9388,-3.9388,-3.9388,-3.9388,-3.9388,-3.9424,-3.9646,-4.0374,-4.0512,-4.0737,-4.1393,-4.211,-4.2569,-4.2569,-4.3188,-4.3582,-4.3582,-4.3582,-4.3267,-4.2555,-4.3184,-4.3251,-4.2522,-4.3201,-4.3582,-4.3582,-4.3582,-4.3432,-4.3113,-4.3113,-4.2912,-4.2602,-4.3331,-4.4431,-4.4196,-4.6192,-4.7691,-4.6343,-4.4151,-4.2027,-4.0797,-3.842,-3.6441,-3.623,-3.6029,-3.6029,-3.6414,-3.6322,-3.6676,-3.8262,-3.8508,-3.8908,-4.0016,-4.1401,-4.2525,-4.3187,-4.548,-4.7188,-4.7619,-4.8235,-4.862,-4.862,-4.862,-4.862,-4.862,-4.7773,-4.7065,-4.6603,-4.5495,-4.4825,-4.461,-4.461,-4.4858,-4.5348,-4.4821,-4.5142,-4.6076,-4.5067,-4.4648,-4.4611,-4.3443,-4.254,-4.1863,-4.1155,-4.0863,-4.0812,-4.0582,-4.0628,-4.0797,-4.0582,-4.0489,-4.0489,-4.0489,-4.0489,-4.0489,-4.0489,-4.0331,-4.0172,-4.0207,-4.0066,-3.9818,-3.9496,-3.9388,-3.9388,-3.9388,-3.9788,-4.0021,-3.9517,-3.9788,-4.0005,-3.9517,-3.9388,-3.9388,-3.9388,-3.9388,-3.9388,-3.9388,-3.9824,-4.0216,-4.0443,-4.1343,-4.1819,-4.1525,-4.2142,-4.2617,-4.2617,-4.2772,-4.3113,-4.3552,-4.3598,-4.3499,-4.3267,-4.2986,-4.2738,-4.2506,-4.2704,-4.2837,-4.2837,-4.3244,-4.3402,-4.3312,-4.3068,-4.3113,-4.3363,-4.4107,-4.4933,-4.1355,-4.3252,-4.4548,-4.3731,-4.204,-4.0373,-3.9787,-3.7833,-3.6148,-3.6289,-3.6226,-3.6179,-3.6352,-3.646,-3.6814,-3.7841,-3.8273,-3.8721,-3.933,-4.1058,-4.2571,-4.3501,-4.588,-4.7573,-4.7835,-4.8312,-4.862,-4.862,-4.862,-4.862,-4.862,-4.7727,-4.7034,-4.6603,-4.5526,-4.4872,-4.461,-4.461,-4.4821,-4.5274,-4.4821,-4.5253,-4.6324,-4.5142,-4.4944,-4.5375,-4.3443,-4.2535,0.0,-4.1013,-4.0489,-4.0489,-4.0489,-4.0489,-4.0489,-4.0489,-4.0489,-4.0489,-4.0489,-4.0489,-4.0489,-4.0489,-4.0331,-4.0172,-4.0489,-4.0246,-3.9818,-3.9496,-3.9388,-3.9388,-3.9388,-3.9753,-3.9985,-3.9517,-3.9753,-3.995,-3.9517,-3.9388,-3.9481,-3.9753,-3.9824,-3.9879,-4.0146,-4.0566,-4.0974,-4.1227,-4.2029,-4.2522,-4.2317,-4.2679,-4.2974,-4.2974,-4.2974,-4.3143,-4.3552,-4.3598,-4.3598,-4.3598,-4.3168,-4.2903,-4.2903,-4.2903,-4.2903,-4.2903,-4.3291,-4.3402,-4.3281,-4.3222,-4.3523,-4.414,-4.4577,-4.516,0.0,-4.0586,-4.1821,-4.1891,-4.0506,-3.8947,-3.8274,-3.6968,0.0,-3.5944,-3.5929,-3.5991,-3.6225,-3.6336,-3.6614,-3.7252,-3.7901,-3.858,-3.9195,-4.0712,-4.2263,-4.3716,-4.5041,-4.6034,-4.6619,-4.785,-4.862,-4.862,-4.862,-4.862,-4.862,-4.7419,-4.6696,-4.6603,-4.5988,-4.5311,-4.4625,-4.461,-4.461,-4.461,-4.461,-4.4993,-4.5769,-4.4993,-4.5478,-4.673,-4.3885,-4.3058,-4.3516,-4.1376,-4.0489,-4.0489,-4.0489,-4.0489,-4.0489,-4.0489,-4.0489,-4.0505,-4.0551,-4.0566,-4.0566,-4.0566,-4.0447,-4.0401,-4.082,-4.0339,-3.9661,-3.9445,-3.9388,-3.9388,-3.9388,-3.9388,-3.9388,-3.9388,-3.9388,-3.9388,-3.9448,-3.952,-3.9757,-4.0416,-4.0624,-4.0833,-4.1409,-4.1492,-4.1722,-4.2412,-4.2554,-4.2803,-4.3462,-4.3568,-4.3598,-4.3598,-4.3598,-4.3598,-4.3598,-4.3598,-4.3598,-4.3598,-4.3598,-4.3598,-4.3598,-4.3598,-4.3598,-4.3598,-4.3598,-4.3449,-4.3178,-4.3538,-4.4107,-4.4868,-4.482,-4.516,-3.6963,0.0,-3.8625,-3.813,-3.7646,-3.718,0.0,-3.5728,-3.5028,-3.5214,-3.5106,-3.5408,-3.6712,-3.6166,-3.6196,-3.8381,-3.7732,-3.7489,-3.9027,-4.1464,-4.4024,-4.6372,-4.7388,-4.7758,-4.7404,-4.8127,-4.862,-4.862,-4.862,-4.862,-4.862,-4.8312,-4.7665,-4.6634,-4.6449,-4.5788,-4.4625,-4.461,-4.461,-4.461,-4.461,-4.5274,-4.6499,-4.5769,-4.6253,-4.7457,-4.4662,-4.3539,-4.3516,-4.1376,-4.0489,-4.0489,-4.0489,-4.0489,-4.0489,-4.0489,-4.0489,-4.0566,-4.1155,-4.134,-4.132,-4.1148,-4.0815,-4.0436,-4.0296,-3.9965,-3.9661,-3.9445,-3.9388,-3.9388,-3.9388,-3.9388,-3.9388,-3.9388,-3.9388,-3.9559,-4.0053,-4.0652,-4.1122,-4.1181,-4.1688,-4.1958,-4.1571,-4.1492,-4.1558,-4.1722,-4.2253,-4.2648,-4.2803,-4.3265,-4.3598,-4.3598,-4.3598,-4.3598,-4.3598,-4.3598,-4.3598,-4.3598,-4.3598,-4.3598,-4.3598,-4.3598,-4.3598,-4.3598,-4.3509,-4.3622,-4.3948,-4.3925,-4.4497,-4.5548,-4.503,-4.516,-3.51,-3.5884,-3.6703,-3.6679,-3.6471,-3.6097,-3.5528,-3.5027,-3.4618,-3.4362,-3.4302,-3.4681,-3.5947,-3.592,-3.6165,-3.7602,-3.81,-3.9121,-4.1352,-4.3057,-4.4964,-4.7327,-4.7927,-4.8127,-4.8065,-4.8404,-4.862,-4.862,-4.862,-4.862,-4.862,-4.8327,-4.7819,-4.708,-4.6449,-4.5634,-4.4625,-4.461,-4.461,-4.461,-4.461,-4.5216,-4.6288,-4.5877,-4.6306,-4.7274,-4.4791,-4.3711,-4.3515,-4.1373,-4.0489,-4.0489,-4.0489,-4.0489,-4.0489,-4.0489,-4.0489,-4.062,-4.132,-4.1548,-4.1548,-4.1429,-4.0974,-4.0524,-4.0578,-4.0246,-3.9864,-3.9965,-3.9931,-3.9873,-3.9873,-3.9873,-3.9873,-3.9873,-3.9873,-4.0147,-4.1131,-4.1704,-4.2209,-4.2821,-4.3043,-4.3072,-4.2976,-4.2685,-4.2475,-4.2475,-4.2803,-4.3066,-4.3066,-4.3372,-4.3598,-4.3598,-4.3598,-4.3598,-4.3598,-4.3598,-4.3598,-4.3598,-4.3598,-4.3598,-4.3598,-4.3598,-4.3598,-4.3598,-4.3701,-4.3746,-4.3702,-4.4137,-4.4529,-4.4836,-4.4464,-4.4496,-3.3799,-3.4622,-3.5746,-3.6117,-3.5866,-3.5309,-3.4541,-3.4361,-3.4209,-3.362,-3.3637,-3.4106,-3.526,-3.5795,-3.6225,-3.6746,-3.9066,-4.172,-4.4372,-4.4856,-4.5572,-4.7388,-4.7696,-4.7942,-4.8419,-4.8558,-4.862,-4.862,-4.862,-4.862,-4.862,-4.8065,-4.7665,-4.745,-4.6342,-4.5372,-4.4625,-4.461,-4.461,-4.461,-4.461,-4.4946,-4.5539,-4.5758,-4.6152,-4.6562,-4.4783,-4.3891,-4.3525,-4.1507,-4.0578,-4.0489,-4.0489,-4.0489,-4.0489,-4.0489,-4.0489,-4.0608,-4.1283,-4.15,-4.15,-4.15,-4.1049,-4.0578,-4.1057,-4.0708,-4.0248,-4.0755,-4.0641,-4.0427,-4.0531,-4.0546,-4.0546,-4.0546,-4.0546,-4.0897,-4.2187,-4.2581,-4.3049,-4.4333,-4.4268,-4.4138,-4.4607,-4.428,-4.3929,-4.3929,-4.383,-4.3764,-4.3764,-4.3664,-4.3598,-4.3598,-4.3598,-4.3598,-4.3598,-4.3598,-4.3598,-4.3598,-4.3598,-4.3598,-4.3598,-4.3598,-4.3598,-4.3598,-4.3988,-4.3948,-4.3457,-4.4464,-4.469,-4.4188,-4.4075,-4.4026,-3.4384,-3.5342,-3.5953,-3.4384,-3.4355,-3.437,-3.3126,-3.2841,-3.2961,-3.341,-3.353,-3.4359,-3.7033,-3.612,-3.5984,-3.9157,-4.0985,-4.2818,-4.5126,-4.5926,-4.6619,-4.7511,-4.8112,-4.8266,-4.7804,-4.8281,-4.862,-4.862,-4.862,-4.862,-4.862,-4.8512,-4.7942,-4.6788,-4.6542,-4.5834,-4.4625,-4.461,-4.461,-4.461,-4.461,-4.4697,-4.4879,-4.6086,-4.6369,-4.5945,-4.5625,-4.48,-4.3589,-4.2008,-4.1024,-4.0489,-4.0489,-4.0489,-4.0489,-4.0489,-4.0489,-4.0616,-4.1306,-4.1593,-4.1593,-4.1593,-4.1086,-4.0524,-4.0593,-4.0729,-4.0982,-4.1531,-4.1061,-4.0531,-4.1085,-4.1235,-4.1235,-4.1235,-4.1235,-4.1437,-4.2249,-4.2924,-4.3414,-4.3582,-4.4579,-4.5225,-4.4707,-4.5076,-4.545,-4.545,-4.492,-4.4522,-4.4522,-4.3992,-4.3598,-4.3598,-4.3598,-4.3598,-4.3598,-4.3598,-4.3598,-4.3598,-4.3598,-4.3598,-4.3598,-4.3598,-4.3598,-4.3598,-4.3988,-4.4456,-4.4965,-4.5423,-4.5905,-4.6374,-4.5775,-4.5484,-3.3604,-3.4128,-3.4562,-3.3275,-3.4325,-3.5244,-3.3592,-3.3442,-3.3772,-3.4072,-3.4085,-3.4733,-3.7033,-3.7231,-3.8235,-4.2027,-4.3137,-4.4158,-4.5895,-4.6403,-4.685,-4.7527,-4.7881,-4.8081,-4.8142,-4.8435,-4.862,-4.862,-4.862,-4.845,-4.8081,-4.8065,-4.7619,-4.6619,-4.6249,-4.5757,-4.5126,-4.4795,-4.461,-4.461,-4.461,-4.4443,-4.4164,-4.5568,-4.5618,-4.4636,-4.5045,-4.4568,-4.3506,-4.2461,-4.1641,-4.1057,-4.1057,-4.0802,-4.0489,-4.0489,-4.0715,-4.1037,-4.0998,-4.1244,-4.1504,-4.1106,-4.0766,-4.0551,-4.08,-4.1192,-4.1704,-4.2144,-4.1896,-4.1633,-4.2372,-4.2236,-4.2061,-4.2447,-4.2545,-4.2727,-4.3411,-4.4123,-4.4679,-4.4627,-4.5228,-4.5596,-4.5256,-4.552,-4.5798,-4.5798,-4.5152,-4.4688,-4.4688,-4.4075,-4.3731,-4.4158,-4.383,-4.3747,-4.4175,-4.3843,-4.3598,-4.3598,-4.3598,-4.3598,-4.3598,-4.3992,-4.4191,-4.4191,-4.4958,-4.5357,-4.5308,-4.5634,-4.5791,-4.5743,-4.5419,-4.5257,-3.3021,-3.3335,-3.3769,-3.2946,-3.4251,-3.5413,-3.424,-3.433,-3.4736,-3.5052,-3.5272,-3.5829,-3.7149,-3.8694,-4.0736,-4.3669,-4.4665,-4.5526,-4.68,-4.7025,-4.7265,-4.7773,-4.7835,-4.805,-4.8558,-4.862,-4.862,-4.862,-4.8466,-4.8142,-4.7635,-4.745,-4.7065,-4.6388,-4.5849,-4.5511,-4.5357,-4.4849,-4.461,-4.461,-4.461,-4.4178,-4.3414,-4.4821,-4.4669,-4.3379,-4.4313,-4.4241,-4.3453,-4.2953,-4.2332,-4.1739,-4.1739,-4.1327,-4.0749,-4.0749,-4.0956,-4.1209,-4.087,-4.1091,-4.1491,-4.1312,-4.1221,-4.1246,-4.1604,-4.2221,-4.2813,-4.2886,-4.3023,-4.3244,-4.3644,-4.3456,-4.332,-4.3889,-4.4037,-4.414,-4.4666,-4.511,-4.5442,-4.5442,-4.5417,-4.5491,-4.5679,-4.5897,-4.6104,-4.628,-4.5682,-4.5202,-4.5202,-4.4572,-4.434,-4.4887,-4.4456,-4.4274,-4.4655,-4.4191,-4.3876,-4.3876,-4.3876,-4.3959,-4.4095,-4.4655,-4.4967,-4.4967,-4.5911,-4.611,-4.5553,-4.5878,-4.5791,-4.5289,-4.5289,-4.5289,-3.344,-3.4367,-3.5055,-3.3754,-3.311,-3.308,-3.4189,-3.4474,-3.4863,-3.6121,-3.7319,-3.8207,-3.8536,-4.0471,-4.223,-4.2743,-4.4869,-4.6846,-4.8007,-4.8341,-4.8481,-4.8543,-4.8543,-4.8558,-4.862,-4.862,-4.862,-4.862,-4.8035,-4.765,-4.7604,-4.7004,-4.6357,-4.568,-4.5618,-4.528,-4.4702,-4.4641,-4.461,-4.461,-4.461,-4.391,-4.273,-4.4118,-4.3976,-4.2665,-4.4083,-4.4241,-4.3512,-4.3453,-4.3045,-4.2426,-4.2426,-4.2013,-4.1426,-4.1426,-4.1057,-4.0646,-4.1243,-4.1459,-4.1735,-4.3025,-4.3347,-4.3185,-4.3233,-4.398,-4.4646,-4.3987,-4.4622,-4.529,-4.4622,-4.4921,-4.5488,-4.5509,-4.5545,-4.5561,-4.5608,-4.5073,-4.4586,-4.4586,-4.4593,-4.4809,-4.5582,-4.6282,-4.6989,-4.7737,-4.7206,-4.6742,-4.6742,-4.6096,-4.5649,-4.5715,-4.5665,-4.5384,-4.4738,-4.4638,-4.4605,-4.4605,-4.4605,-4.492,-4.5599,-4.5682,-4.5715,-4.5715,-4.6174,-4.6356,-4.6307,-4.6675,-4.6779,-4.673,-4.673,-4.673,-3.3604,-3.4158,-3.4651,-3.3724,-3.3619,-3.4114,-3.5529,-3.6192,-3.6869,-3.8221,-3.9751,-4.0815,-4.0616,-4.2203,-4.3548,-4.3524,-4.5748,-4.7664,-4.821,-4.837,-4.8453,-4.8578,-4.862,-4.862,-4.862,-4.862,-4.862,-4.862,-4.7989,-4.7419,-4.7004,-4.6326,-4.5664,-4.4987,-4.4995,-4.4849,-4.461,-4.461,-4.461,-4.461,-4.461,-4.3879,-4.2617,-4.3592,-4.3478,-4.2552,-4.3539,-4.4047,-4.4179,-4.4179,-4.3752,-4.3075,-4.2676,-4.2363,-4.2109,-4.2109,-4.1949,-4.1771,-4.2013,-4.2109,-4.219,-4.2686,-4.2783,-4.2768,-4.2957,-4.394,-4.491,-4.4455,-4.569,-4.6963,-4.6131,-4.5825,-4.5805,-4.6288,-4.6394,-4.6253,-4.5805,-4.5825,-4.5665,-4.4699,-4.5264,-4.5881,-4.5733,-4.674,-4.7638,-4.7968,-4.7371,-4.6891,-4.6891,-4.6245,-4.5963,-4.6427,-4.6477,-4.6179,-4.5433,-4.5367,-4.5566,-4.603,-4.5632,-4.55,-4.5781,-4.6228,-4.6445,-4.6301,-4.6816,-4.7027,-4.6893,-4.69,-4.6876,-4.6876,-4.6876,-4.7135,-3.3873,-3.3978,-3.4098,-3.3858,-3.3829,-3.4563,-3.7256,-3.8221,-3.8928,-4.028,-4.1378,-4.2119,-4.2189,-4.325,-4.4118,-4.4104,-4.6273,-4.8049,-4.8175,-4.8244,-4.837,-4.8578,-4.862,-4.862,-4.862,-4.862,-4.8527,-4.8312,-4.7665,-4.6988,-4.6311,-4.5634,-4.5049,-4.4625,-4.461,-4.461,-4.461,-4.461,-4.4615,-4.4586,-4.4586,-4.3886,-4.2638,-4.3071,-4.2983,-4.2552,-4.3196,-4.3914,-4.4615,-4.4615,-4.431,-4.381,-4.3333,-4.3031,-4.2831,-4.2831,-4.2676,-4.2552,-4.2738,-4.2831,-4.2863,-4.3186,-4.3237,-4.329,-4.3719,-4.4675,-4.5538,-4.5393,-4.6614,-4.7853,-4.7337,-4.6793,-4.655,-4.705,-4.7186,-4.705,-4.6531,-4.662,-4.6499,-4.5447,-4.5881,-4.6359,-4.6076,-4.6913,-4.7704,-4.7968,-4.757,-4.7255,-4.7255,-4.6808,-4.6692,-4.7189,-4.704,-4.6692,-4.6179,-4.6146,-4.6361,-4.6874,-4.6643,-4.6493,-4.6493,-4.6974,-4.7142,-4.6946,-4.7308,-4.7403,-4.7217,-4.6996,-4.6876,-4.6927,-4.7135,-4.7524,-3.4324,-3.4008,-3.3664,-3.4354,-3.3514,-3.3948,-3.92,-4.0382,-4.0756,-4.2141,-4.1886,-4.1788,-4.3065,-4.3518,-4.3837,-4.4252,-4.6396,-4.8007,-4.8007,-4.816,-4.837,-4.8578,-4.862,-4.862,-4.862,-4.862,-4.8327,-4.765,-4.6973,-4.6311,-4.5634,-4.4941,-4.461,-4.461,-4.461,-4.461,-4.461,-4.461,-4.4592,-4.4579,-4.4563,-4.3877,-4.2607,-4.262,-4.257,-4.2552,-4.3196,-4.3914,-4.4615,-4.4615,-4.4615,-4.4615,-4.4632,-4.4167,-4.3512,-4.3512,-4.3106,-4.2614,-4.3287,-4.3512,-4.3717,-4.4972,-4.5287,-4.5293,-4.5907,-4.6468,-4.6874,-4.6891,-4.7421,-4.7984,-4.8001,-4.8001,-4.8001,-4.8001,-4.8001,-4.8001,-4.8001,-4.7371,-4.6811,-4.6811,-4.6218,-4.5949,-4.6673,-4.6811,-4.7084,-4.7853,-4.8001,-4.8001,-4.8001,-4.8001,-4.8001,-4.8001,-4.7355,-4.6908,-4.6908,-4.6908,-4.6908,-4.6908,-4.7603,-4.8001,-4.8001,-4.8001,-4.7902,-4.7704,-4.7571,-4.7403,-4.7217,-4.6996,-4.6876,-4.6909,-4.7653,-4.8026,-3.4324,-3.4681,-3.4831,-3.4578,-3.5564,-3.718,-3.9245,-3.8975,-3.9334,-4.2985,-4.2953,-4.2602,-4.3778,-4.4584,-4.485,-4.4362,-4.6229,-4.7794,-4.7964,-4.8049,-4.8218,-4.8578,-4.8495,-4.8453,-4.8578,-4.862,-4.8327,-4.765,-4.6973,-4.6311,-4.5634,-4.4941,-4.461,-4.461,-4.461,-4.461,-4.461,-4.4148,-4.392,-4.3872,-4.3427,-4.3223,-4.3304,-4.3279,-4.3265,-4.3196,-4.3406,-4.3914,-4.4649,-4.5162,-4.5365,-4.5432,-4.5923,-4.5689,-4.5043,-4.5043,-4.4603,-4.4006,-4.4207,-4.4265,-4.4315,-4.4447,-4.4444,-4.4424,-4.4358,-4.4801,-4.545,-4.5963,-4.6659,-4.7355,-4.7868,-4.8001,-4.8001,-4.8001,-4.8001,-4.8001,-4.8001,-4.782,-4.7488,-4.6931,-4.7084,-4.7032,-4.6198,-4.6913,-4.7521,-4.722,-4.7638,-4.8001,-4.8001,-4.8001,-4.8001,-4.8001,-4.7802,-4.7669,-4.7669,-4.7669,-4.7669,-4.7669,-4.7885,-4.8001,-4.8001,-4.8001,-4.7902,-4.7704,-4.7571,-4.7403,-4.7217,-4.6996,-4.7151,-4.7686,-4.7912,-4.8544,-3.4324,-3.4786,-3.5115,-3.5267,-3.6462,-3.8018,-3.9469,-4.0397,-4.1818,-4.487,-4.4518,-4.3958,-4.4915,-4.5297,-4.5398,-4.514,-4.6421,-4.7553,-4.7794,-4.7837,-4.8007,-4.8412,-4.837,-4.837,-4.8578,-4.8373,-4.7927,-4.725,-4.6573,-4.5895,-4.5218,-4.4803,-4.4486,-4.4225,-4.4209,-4.4086,-4.3802,-4.3387,-4.3215,-4.3209,-4.3079,-4.3202,-4.3578,-4.3578,-4.3379,-4.3106,-4.3376,-4.3914,-4.4632,-4.5077,-4.5432,-4.5737,-4.6194,-4.6092,-4.5703,-4.5703,-4.5229,-4.4615,-4.4615,-4.4615,-4.4542,-4.427,-4.4184,-4.4176,-4.4138,-4.4447,-4.4898,-4.5614,-4.6328,-4.7007,-4.7454,-4.7785,-4.8001,-4.8001,-4.8001,-4.8001,-4.8001,-4.8001,-4.7853,-4.7371,-4.7671,-4.7704,-4.6775,-4.7387,-4.7853,-4.7337,-4.7704,-4.8001,-4.8001,-4.8001,-4.8001,-4.8001,-4.8001,-4.8001,-4.8001,-4.8001,-4.8001,-4.8001,-4.8001,-4.8001,-4.8001,-4.8001,-4.7869,-4.7621,-4.7537,-4.7369,-4.7064,-4.7253,-4.7572,-4.8026,-4.8576,-4.9289,-3.4324,-3.4548,-3.4908,-3.6163,-3.6746,-3.7674,-4.0187,-4.3599,-4.6381,-4.692,-4.6202,-4.5648,-4.6175,-4.5813,-4.5574,-4.6142,-4.6785,-4.7276,-4.7415,-4.746,-4.7661,-4.8153,-4.8149,-4.8217,-4.847,-4.7912,-4.7234,-4.6557,-4.5942,-4.5295,-4.4656,-4.4548,-4.424,-4.3624,-4.3547,-4.3202,-4.2617,-4.254,-4.2492,-4.253,-4.3135,-4.3405,-4.3406,-4.3542,-4.3273,-4.2738,-4.3333,-4.3972,-4.4615,-4.4682,-4.5094,-4.572,-4.5771,-4.5771,-4.5703,-4.5703,-4.5229,-4.4615,-4.4615,-4.4615,-4.457,-4.4367,-4.431,-4.4342,-4.469,-4.482,-4.5006,-4.5614,-4.6328,-4.6924,-4.6974,-4.7504,-4.8001,-4.8001,-4.8001,-4.8001,-4.8001,-4.8001,-4.8001,-4.8001,-4.8001,-4.7968,-4.7886,-4.7968,-4.8001,-4.8001,-4.8001,-4.8001,-4.8001,-4.8001,-4.8001,-4.8001,-4.8001,-4.8001,-4.8001,-4.8001,-4.8001,-4.8001,-4.8001,-4.8001,-4.8001,-4.7968,-4.7836,-4.7504,-4.747,-4.7317,-4.7008,-4.767,-4.8074,-4.8236,-4.9499,-5.0147,-3.4324,-3.4876,-3.5474,-3.6282,-3.8846,-4.1557,-4.312,-4.4526,-4.5409,-4.5035,-4.5978,-4.6756,-4.6396,-4.6202,-4.5978,-4.5589,-4.6236,-4.6602,-4.6162,-4.6508,-4.6993,-4.7465,-4.6925,-4.6844,-4.7732,-4.7219,-4.6542,-4.5849,-4.5664,-4.5295,-4.4656,-4.4117,-4.3762,-4.3608,-4.3079,-4.2756,-4.2602,-4.2078,-4.1811,-4.1817,-4.1913,-4.2206,-4.2769,-4.3856,-4.4281,-4.415,-4.431,-4.444,-4.4649,-4.5213,-4.5568,-4.5771,-4.6346,-4.621,-4.5703,-4.5703,-4.5229,-4.4615,-4.4615,-4.4615,-4.457,-4.4367,-4.4224,-4.4131,-4.4123,-4.4408,-4.4898,-4.5582,-4.6328,-4.7023,-4.7603,-4.7885,-4.8001,-4.8001,-4.8001,-4.8001,-4.8001,-4.8001,-4.8001,-4.8001,-4.8001,-4.7787,-4.7186,-4.7588,-4.8001,-4.8001,-4.8001,-4.8001,-4.8001,-4.8001,-4.8001,-4.8001,-4.8001,-4.8001,-4.8001,-4.8001,-4.8001,-4.8001,-4.8001,-4.8001,-4.8001,-4.7853,-4.7754,-4.7654,-4.7386,-4.7478,-4.7911,-4.7983,-4.8576,-4.9661,-4.9969,-5.0406,-3.344,-3.4262,-3.54,-3.7,-3.994,-4.2665,-4.3614,-4.4347,-4.4811,-4.4781,-4.5618,-4.6247,-4.5903,-4.5828,-4.5723,-4.5349,-4.5657,-4.5845,-4.5571,-4.5796,-4.6132,-4.66,-4.627,-4.6316,-4.7056,-4.6511,-4.5972,-4.5618,-4.528,-4.4841,-4.4178,-4.3793,-4.3316,-4.2648,-4.2294,-4.1955,-4.1581,-4.1263,-4.1078,-4.1078,-4.1364,-4.2013,-4.3015,-4.3752,-4.4281,-4.457,-4.4236,-4.4265,-4.4632,-4.4993,-4.5382,-4.5737,-4.6126,-4.6041,-4.5703,-4.5703,-4.5229,-4.4615,-4.4615,-4.4615,-4.457,-4.4468,-4.4327,-4.4184,-4.4027,-4.4147,-4.4461,-4.5083,-4.5798,-4.6527,-4.7272,-4.7736,-4.8001,-4.8001,-4.8001,-4.8001,-4.8001,-4.8001,-4.8001,-4.8001,-4.8001,-4.7853,-4.7454,-4.7704,-4.8001,-4.8001,-4.8001,-4.8001,-4.8001,-4.8001,-4.8001,-4.8001,-4.8001,-4.8001,-4.8001,-4.8001,-4.8001,-4.8001,-4.8001,-4.8001,-4.8001,-4.777,-4.7588,-4.7588,-4.7352,-4.7491,-4.8102,-4.8353,-4.9046,-5.0115,-5.0455,-5.0827,-3.2512,-3.3559,-3.522,-3.7629,-4.0179,-4.2231,-4.2851,-4.3419,-4.3958,-4.4511,-4.4975,-4.5259,-4.5155,-4.5125,-4.5095,-4.4975,-4.505,-4.5095,-4.4975,-4.505,-4.5289,-4.5728,-4.5703,-4.5833,-4.6339,-4.5803,-4.5418,-4.5418,-4.4825,-4.4194,-4.3639,-4.3393,-4.2761,-4.1632,-4.1478,-4.1124,-4.0505,-4.0489,-4.0489,-4.0489,-4.1309,-4.2269,-4.3333,-4.3588,-4.4001,-4.457,-4.3943,-4.4047,-4.4615,-4.4615,-4.4942,-4.5517,-4.5517,-4.5517,-4.5517,-4.5517,-4.5111,-4.4615,-4.4615,-4.4615,-4.4615,-4.4615,-4.4468,-4.4281,-4.4155,-4.4081,-4.4168,-4.4583,-4.5317,-4.6129,-4.6742,-4.7454,-4.8001,-4.8001,-4.8001,-4.8001,-4.8001,-4.8001,-4.8001,-4.8001,-4.8001,-4.8001,-4.8001,-4.8001,-4.8001,-4.8001,-4.8001,-4.8001,-4.8001,-4.8001,-4.8001,-4.8001,-4.8001,-4.8001,-4.8001,-4.8001,-4.8001,-4.8001,-4.8001,-4.8001,-4.8001,-4.7786,-4.7684,-4.7684,-4.7447,-4.7698,-4.8366,-4.8933,-4.958,-5.0309,-5.0908,-5.1183,-3.2512,-3.3903,-3.5714,-3.718,-3.911,-4.0831,-4.1489,-4.1713,-4.1788,-4.1893,-4.3718,-4.5125,-4.4541,-4.4451,-4.4257,-4.3648,-4.4062,-4.4242,-4.3633,-4.4092,-4.4533,-4.4846,-4.4531,-4.4591,-4.5406,-4.5033,-4.471,-4.471,-4.4117,-4.3701,-4.3608,-4.2479,-4.1786,-4.1601,-4.1001,-4.0597,-4.0489,-4.0489,-4.0489,-4.0524,-4.1771,-4.2458,-4.266,-4.3902,-4.4514,-4.4598,-4.4514,-4.4514,-4.4615,-4.4615,-4.4666,-4.475,-4.475,-4.475,-4.475,-4.475,-4.4682,-4.4615,-4.4615,-4.4615,-4.4615,-4.4615,-4.4468,-4.4281,-4.4155,-4.4415,-4.4753,-4.4716,-4.5682,-4.6775,-4.6874,-4.7454,-4.8001,-4.8001,-4.8001,-4.8001,-4.8001,-4.8001,-4.8001,-4.8001,-4.8001,-4.8001,-4.8001,-4.8001,-4.8001,-4.8001,-4.8001,-4.8001,-4.8001,-4.8001,-4.8001,-4.8001,-4.8001,-4.8001,-4.8001,-4.8001,-4.8001,-4.8001,-4.8001,-4.8001,-4.8001,-4.8246,-4.8371,-4.8371,-4.8058,-4.8547,-4.9823,-4.992,-5.0325,-5.1054,-5.1135,-5.1183,-3.2392,-3.3425,-3.4696,-3.6013,-3.7539,-3.8901,-3.9559,-4.0292,-4.0726,-4.0367,-4.1788,-4.3015,-4.2716,-4.2671,-4.2581,-4.2282,-4.2177,-4.2147,-4.2222,-4.2177,-4.2329,-4.2952,-4.2932,-4.3062,-4.3578,-4.3446,-4.3183,-4.294,-4.2898,-4.2569,-4.1909,-4.1694,-4.1417,-4.1016,-4.0659,-4.0489,-4.0489,-4.0489,-4.0489,-4.0524,-4.1492,-4.2141,-4.2552,-4.3529,-4.4207,-4.4615,-4.4615,-4.4615,-4.4615,-4.4615,-4.4615,-4.4615,-4.4615,-4.4615,-4.4615,-4.4615,-4.4615,-4.4615,-4.4615,-4.4615,-4.4615,-4.4615,-4.4468,-4.4281,-4.4155,-4.4215,-4.4471,-4.5147,-4.5765,-4.646,-4.7305,-4.7769,-4.8001,-4.8001,-4.8001,-4.8001,-4.8001,-4.8001,-4.8001,-4.8001,-4.8001,-4.8001,-4.8001,-4.8001,-4.8001,-4.8001,-4.8001,-4.8001,-4.8001,-4.8001,-4.8001,-4.8001,-4.8001,-4.8001,-4.8001,-4.8001,-4.8001,-4.8001,-4.8001,-4.8001,-4.8001,-4.8413,-4.8818,-4.909,-4.8754,-4.9078,-5.0098,-5.0098,-5.0471,-5.1183,-5.1183,-5.1183,-3.2108,-3.2751,-3.3529,-3.4696,-3.5968,-3.709,-3.7749,-3.8811,-3.9499,-3.9005,-3.9694,-4.0367,-4.0367,-4.0786,-4.113,-4.113,-4.0576,-4.0382,-4.104,-4.0561,-4.0471,-4.1265,-4.139,-4.1544,-4.1931,-4.1866,-4.1648,-4.13,-4.1474,-4.1255,-4.0482,-4.0843,-4.0909,-4.0505,-4.0489,-4.0489,-4.0489,-4.0489,-4.0397,-4.0243,-4.1098,-4.1676,-4.2042,-4.3054,-4.381,-4.4338,-4.4514,-4.4615,-4.4615,-4.4615,-4.4615,-4.4615,-4.4615,-4.4615,-4.4615,-4.4615,-4.4615,-4.4615,-4.4615,-4.4615,-4.4615,-4.4615,-4.4468,-4.4281,-4.4155,-4.3998,-4.4134,-4.5213,-4.5649,-4.6096,-4.7388,-4.7868,-4.8001,-4.8001,-4.8001,-4.8001,-4.8001,-4.8001,-4.8001,-4.8001,-4.8001,-4.8001,-4.8001,-4.8001,-4.8001,-4.8001,-4.8001,-4.8001,-4.8001,-4.8001,-4.8001,-4.8001,-4.8001,-4.8001,-4.8001,-4.8001,-4.8001,-4.8001,-4.8001,-4.8084,-4.8266,-4.8743,-4.9261,-4.9859,-4.9664,-4.9839,-5.0374,-5.0374,-5.0649,-5.1183,-5.1183,-5.1183,-3.154,-3.2034,-3.2736,-3.3425,-3.4607,-3.5774,-3.6432,-3.709,-3.7554,-3.7524,-3.7569,-3.7614,-3.7614,-3.917,-4.0442,-4.0442,-3.9903,-3.9709,-4.0367,-3.9888,-3.9709,-4.0382,-4.007,-4.0151,-4.0982,-4.068,-4.0403,-4.0358,-3.9929,-3.9837,-4.0281,-3.9852,-3.9859,-4.0474,-4.0489,-4.0489,-4.0489,-4.0489,-4.0166,-3.9585,-4.0878,-4.1178,-4.069,-4.2612,-4.3512,-4.3617,-4.431,-4.4615,-4.4615,-4.4615,-4.4615,-4.4615,-4.4615,-4.4615,-4.4615,-4.4615,-4.4615,-4.4615,-4.4615,-4.4615,-4.4615,-4.4615,-4.4468,-4.4281,-4.4155,-4.3998,-4.4018,-4.46,-4.5251,-4.5963,-4.6758,-4.7487,-4.8001,-4.8001,-4.8001,-4.8001,-4.8001,-4.8001,-4.8001,-4.8001,-4.8001,-4.8001,-4.8001,-4.8001,-4.8001,-4.8001,-4.8001,-4.8001,-4.8001,-4.8001,-4.8001,-4.8001,-4.8001,-4.8001,-4.8001,-4.8001,-4.8001,-4.8001,-4.8001,-4.8315,-4.9028,-4.9363,-4.9911,-5.0615,-5.0936,-5.1086,-5.1118,-5.1118,-5.1151,-5.1183,-5.1183,-5.1183,-3.1511,-3.1675,-3.2019,-3.2706,-3.3544,-3.4277,-3.4517,-3.5729,-3.6567,-3.5714,-3.6522,-3.7165,-3.6342,-3.7793,-3.911,-3.911,-3.8556,-3.8512,-3.9619,-3.8482,-3.7928,-3.8975,-3.8717,-3.8555,-3.8866,-3.8739,-3.8523,-3.8217,-3.8403,-3.8666,-3.9011,-3.9315,-3.9797,-4.0474,-4.0489,-4.0274,-3.9844,-3.9361,-3.9023,-3.8862,-3.9358,-3.9905,-4.053,-4.168,-4.2692,-4.3542,-4.4281,-4.4615,-4.4615,-4.4615,-4.4615,-4.4615,-4.4615,-4.4615,-4.4615,-4.4615,-4.4615,-4.4615,-4.4615,-4.4615,-4.457,-4.444,-4.4367,-4.4253,-4.4056,-4.3956,-4.4118,-4.513,-4.5582,-4.6079,-4.7289,-4.7802,-4.8001,-4.8001,-4.8001,-4.8001,-4.8001,-4.8001,-4.8001,-4.8001,-4.8001,-4.8001,-4.8001,-4.8001,-4.8001,-4.8001,-4.8001,-4.8001,-4.8001,-4.8001,-4.8001,-4.8001,-4.8001,-4.8001,-4.8001,-4.8001,-4.8001,-4.8001,-4.8448,-4.8829,-4.9094,-5.0012,-5.0558,-5.068,-5.1161,-5.135,-5.1183,-5.1183,-5.1183,-5.1183,-5.1183,-5.1183,-3.157,-3.1511,-3.1615,-3.2049,-3.2677,-3.3155,-3.3155,-3.4367,-3.5235,-3.4369,-3.519,-3.5833,-3.4981,-3.6058,-3.7225,-3.7674,-3.7195,-3.7165,-3.8272,-3.73,-3.6791,-3.7644,-3.7282,-3.7083,-3.7327,-3.7164,-3.6914,-3.6591,-3.7033,-3.7496,-3.7842,-3.842,-3.9054,-3.9729,-3.9711,-3.9462,-3.91,-3.8555,-3.8251,-3.8185,-3.8631,-3.917,-3.9861,-4.0991,-4.2098,-4.3196,-4.3914,-4.4367,-4.4615,-4.4615,-4.4615,-4.4615,-4.4615,-4.4615,-4.4615,-4.4615,-4.4615,-4.4615,-4.4615,-4.4542,-4.4468,-4.4338,-4.4253,-4.4126,-4.3939,-4.3868,-4.4012,-4.5116,-4.5417,-4.5765,-4.7255,-4.7819,-4.8001,-4.8001,-4.8001,-4.8001,-4.8001,-4.8001,-4.8001,-4.8001,-4.8001,-4.8001,-4.8001,-4.8001,-4.8001,-4.8001,-4.8001,-4.8001,-4.8001,-4.8001,-4.8001,-4.8001,-4.8001,-4.8001,-4.8001,-4.8001,-4.8001,-4.8001,-4.8465,-4.8812,-4.8977,-4.9994,-5.0558,-5.0609,-5.1124,-5.1333,-5.1183,-5.1183,-5.1183,-5.1183,-5.1183,-5.1183,0.0,0.0,0.0,-3.1525,-3.1989,-3.2452,-3.2452,-3.2991,-3.3469,-3.3499,-3.3499,-3.3499,-3.3529,-3.4039,-3.4878,-3.6211,-3.5893,-3.5729,-3.6372,-3.6432,-3.6432,-3.6432,-3.5848,-3.5764,-3.6544,-3.6034,-3.5657,-3.5657,-3.5832,-3.6278,-3.6932,-3.7107,-3.7541,-3.8277,-3.8095,-3.808,-3.8277,-3.8246,-3.7975,-3.7492,-3.8831,-3.9123,-3.8554,-4.0567,-4.1836,-4.2504,-4.3196,-4.3914,-4.4598,-4.4615,-4.4615,-4.4615,-4.4615,-4.4615,-4.4615,-4.4615,-4.4615,-4.4598,-4.4598,-4.4468,-4.4293,-4.431,-4.4097,-4.3898,-4.3898,-4.3763,-4.3731,-4.4489,-4.4688,-4.5036,-4.651,-4.7438,-4.7968,-4.8001,-4.8001,-4.8001,-4.8001,-4.8001,-4.8001,-4.8001,-4.8001,-4.8001,-4.8001,-4.8001,-4.8001,-4.8001,-4.8001,-4.8001,-4.8001,-4.8001,-4.8001,-4.8001,-4.8001,-4.8001,-4.8001,-4.8001,-4.8001,-4.8001,-4.8017,-4.8249,-4.8775,-4.9325,-4.9853,-5.0395,-5.0906,-5.1167,-5.1183,-5.1183,-5.1183,-5.1183,-5.1183,-5.1183,-3.3006,0.0,0.0,0.0,0.0,0.0,-3.178,-3.2288,-3.2916,-3.3395,-3.3499,-3.3649,-3.4113,-3.3574,-3.3335,-3.4188,-3.4996,-3.5564,-3.5744,-3.5355,-3.5058,-3.5058,-3.4457,-3.4159,-3.4355,-3.4671,-3.4836,-3.4836,-3.4979,-3.5407,-3.6248,-3.6848,-3.7541,-3.8277,-3.7638,-3.7332,-3.7495,-3.7021,-3.678,-3.6784,-3.7646,-3.8135,-3.8343,-4.0017,-4.1278,-4.2189,-4.3089,-4.3839,-4.4395,-4.4542,-4.4615,-4.4615,-4.4615,-4.4615,-4.4615,-4.4615,-4.4514,-4.4367,-4.4367,-4.4281,-4.4155,-4.4056,-4.3956,-4.3868,-4.3734,-4.3628,-4.3731,-4.4489,-4.4688,-4.5036,-4.651,-4.7057,-4.7338,-4.7868,-4.8001,-4.8001,-4.8001,-4.8001,-4.8001,-4.8001,-4.8001,-4.8001,-4.8001,-4.8001,-4.8001,-4.8001,-4.8001,-4.8001,-4.8001,-4.8001,-4.8001,-4.8001,-4.8001,-4.8001,-4.8001,-4.8001,-4.8001,-4.8001,-4.8514,-4.8778,-4.8791,-4.9327,-4.9837,-5.0395,-5.0403,-5.0665,-5.1183,-5.1183,-5.1183,-5.1183,-5.1183,-5.1183,0.0,0.0,0.0,-3.2916,0.0,0.0,-3.1914,-3.178,-3.1943,-3.2886,-3.2647,-3.2542,-3.3484,-3.2811,-3.2198,-3.2617,-3.3574,-3.4352,-3.4637,-3.4562,-3.4414,-3.4129,-3.3724,-3.3499,-3.3499,-3.3844,-3.4068,-3.4068,-3.4146,-3.4451,-3.5045,-3.5761,-3.6356,-3.6782,-3.6578,-3.6535,-3.6696,-3.6315,-3.6211,-3.6383,-3.701,-3.7466,-3.7816,-3.9329,-4.0335,-4.0944,-4.2107,-4.2947,-4.3492,-4.3923,-4.4282,-4.4615,-4.4615,-4.4615,-4.4615,-4.4615,-4.4468,-4.431,-4.431,-4.4184,-4.3998,-4.3927,-4.3839,-4.3763,-4.3628,-4.3598,-4.3681,-4.4125,-4.4671,-4.5351,-4.6212,-4.6891,-4.7471,-4.7901,-4.8001,-4.8001,-4.8001,-4.8001,-4.8001,-4.8001,-4.8001,-4.8001,-4.8001,-4.8001,-4.8001,-4.8001,-4.8001,-4.8001,-4.8001,-4.8001,-4.8001,-4.8001,-4.8001,-4.8001,-4.8001,-4.8001,-4.8001,-4.8001,-4.8415,-4.853,-4.8347,-4.8867,-4.9379,-4.9919,-5.0063,-5.0455,-5.1183,-5.1183,-5.1183,-5.1183,-5.1183,-5.1183,0.0,0.0,0.0,-3.3604,-3.311,0.0,-3.2617,-3.1644,-3.1091,-3.2362,-3.1554,-3.1016,-3.2287,-3.1944,-3.1511,-3.1511,-3.1989,-3.2617,-3.32,-3.3874,-3.4039,-3.3365,-3.3275,-3.3275,-3.3275,-3.335,-3.338,-3.338,-3.341,-3.3517,-3.3683,-3.4287,-3.4618,-3.4739,-3.5373,-3.5799,-3.6005,-3.6005,-3.6068,-3.6211,-3.6738,-3.7058,-3.7185,-3.8641,-3.9272,-3.9314,-4.0859,-4.1822,-4.2348,-4.3166,-4.3916,-4.4615,-4.457,-4.457,-4.457,-4.4542,-4.4412,-4.4253,-4.4253,-4.4068,-4.3868,-4.3868,-4.3734,-4.3598,-4.3598,-4.3598,-4.3598,-4.3598,-4.4556,-4.5582,-4.5748,-4.6775,-4.7802,-4.7968,-4.8001,-4.8001,-4.8001,-4.8001,-4.8001,-4.8001,-4.8001,-4.8001,-4.8001,-4.8001,-4.8001,-4.8001,-4.8001,-4.8001,-4.8001,-4.8001,-4.8001,-4.8001,-4.8001,-4.8001,-4.8001,-4.8001,-4.8001,-4.8001,-4.8001,-4.7968,-4.782,-4.8276,-4.8791,-4.9395,-4.9929,-5.0536,-5.1183,-5.1183,-5.1183,-5.1183,-5.1183,-5.1183,-3.516,-3.4711,-3.4309,-3.4309,-3.3784,0.0,-3.3305,-3.2691,-3.2347,-3.314,-3.2258,-3.154,-3.2333,-3.1944,-3.1511,-3.1511,-3.1615,-3.1735,-3.1869,-3.2482,-3.2647,-3.1974,-3.1884,-3.1884,-3.1884,-3.2392,-3.2706,-3.2706,-3.2781,-3.293,-3.3166,-3.3623,-3.4212,-3.4925,-3.5451,-3.5799,-3.6005,-3.6005,-3.6068,-3.6211,-3.6738,-3.6942,-3.6857,-3.854,-3.9123,-3.8948,-4.1277,-4.2234,-4.2242,-4.3583,-4.4305,-4.457,-4.4412,-4.4367,-4.4338,-4.4241,-4.4097,-4.3969,-4.3969,-4.3852,-4.3658,-4.3658,-4.3628,-4.3598,-4.3598,-4.3598,-4.3598,-4.3598,-4.3797,-4.4293,-4.5483,-4.6013,-4.6527,-4.7719,-4.8001,-4.8001,-4.8001,-4.8001,-4.8001,-4.8001,-4.8001,-4.8001,-4.8001,-4.8001,-4.8001,-4.8001,-4.8001,-4.8001,-4.8001,-4.8001,-4.8001,-4.8001,-4.8001,-4.8001,-4.8001,-4.8001,-4.8001,-4.8001,-4.8001,-4.8167,-4.8561,-4.8539,-4.9055,-5.0183,-5.0712,-5.1054,-5.1183,-5.1183,-5.1183,-5.1183,-5.1183,-5.1183,-3.5504,-3.525,-3.4996,-3.4996,-3.4487,0.0,0.0,-3.3215,-3.2706,-3.3365,-3.2183,-3.1197,-3.1869,-3.1451,-3.0987,-3.0987,-3.1271,-3.1511,-3.1511,-3.1795,-3.1869,-3.154,-3.1511,-3.163,-3.1959,-3.1989,-3.1989,-3.1989,-3.2077,-3.2193,-3.2382,-3.3156,-3.3849,-3.4333,-3.5238,-3.5752,-3.5863,-3.5863,-3.5894,-3.5943,-3.6228,-3.6297,-3.626,-3.7919,-3.8315,-3.7853,-4.0531,-4.1591,-4.1579,-4.3028,-4.3933,-4.4344,-4.4241,-4.4196,-4.4196,-4.4126,-4.4027,-4.3898,-4.3898,-4.3763,-4.3598,-4.3598,-4.3598,-4.3598,-4.3598,-4.3598,-4.3664,-4.4059,-4.4158,-4.4489,-4.5963,-4.6344,-4.6626,-4.7736,-4.8001,-4.8001,-4.8001,-4.8001,-4.8001,-4.8001,-4.8001,-4.8001,-4.8001,-4.8001,-4.8001,-4.8001,-4.8001,-4.8001,-4.8001,-4.8001,-4.8001,-4.8001,-4.8001,-4.8001,-4.8001,-4.8001,-4.8001,-4.8001,-4.8349,-4.868,-4.8943,-4.8655,-4.887,-4.9677,-5.0313,-5.0827,-5.1183,-5.1183,-5.1183,-5.1183,-5.1183,-5.1183,-3.5504,-3.5504,-3.5504,-3.5504,-3.5085,-3.4698,0.0,0.0,0.0,-3.3574,-3.2198,-3.1061,-3.1585,-3.1032,-3.0552,-3.0672,-3.1032,-3.1346,-3.1481,-3.1511,-3.1511,-3.1511,-3.1511,-3.1705,-3.2243,-3.1929,-3.1645,-3.1511,-3.163,-3.1732,-3.1799,-3.2886,-3.3546,-3.3713,-3.4978,-3.5655,-3.5688,-3.5655,-3.5655,-3.5688,-3.5655,-3.5671,-3.5716,-3.7116,-3.7364,-3.6854,-3.9692,-4.0878,-4.0923,-4.2526,-4.3504,-4.401,-4.4056,-4.4056,-4.4056,-4.401,-4.3939,-4.3839,-4.3839,-4.3734,-4.3598,-4.3598,-4.3598,-4.3598,-4.3598,-4.3698,-4.3926,-4.4357,-4.4572,-4.4953,-4.6162,-4.6477,-4.6692,-4.7587,-4.7785,-4.7835,-4.7968,-4.8001,-4.8001,-4.8001,-4.8001,-4.8001,-4.8001,-4.8001,-4.8001,-4.8001,-4.8001,-4.8001,-4.8001,-4.8001,-4.8001,-4.8001,-4.8001,-4.8001,-4.8001,-4.8001,-4.8067,-4.8199,-4.8779,-4.9243,-4.9508,-4.9283,-4.9162,-4.9224,-4.9953,-5.06,-5.1183,-5.1183,-5.1183,-5.1183,-5.1183,-5.1183,-3.5504,-3.5504,-3.5504,-3.5504,-3.5444,-3.5385,-3.5385,0.0,-3.4309,-3.4384,0.0,-3.2317,-3.2363,0.0,0.0,-3.1286,-3.0943,-3.0808,-3.1421,-3.1511,-3.1511,-3.1511,-3.1511,-3.1525,-3.1615,-3.2079,-3.2123,-3.154,-3.2049,-3.2212,-3.1829,-3.2886,-3.3546,-3.3713,-3.4881,-3.5572,-3.5688,-3.5572,-3.5572,-3.5688,-3.5572,-3.5522,-3.5552,-3.6438,-3.6784,-3.6863,-3.9738,-4.0915,-4.0961,-4.2982,-4.3739,-4.3658,-4.3852,-4.3927,-4.3898,-4.3717,-4.3658,-4.3628,-4.3628,-4.3628,-4.3598,-4.3598,-4.3598,-4.3598,-4.3598,-4.4075,-4.4456,-4.388,-4.4208,-4.4752,-4.4903,-4.4937,-4.5284,-4.6692,-4.7023,-4.7206,-4.7868,-4.8001,-4.8001,-4.8001,-4.8001,-4.8001,-4.8001,-4.8001,-4.8001,-4.8001,-4.8001,-4.8001,-4.8001,-4.8001,-4.8001,-4.8001,-4.8001,-4.8001,-4.8001,-4.8001,-4.8282,-4.8945,-4.9061,-4.969,-5.1017,-5.129,-5.0957,-4.9985,-5.0697,-5.1102,-5.1183,-5.1183,-5.1183,-5.1183,-5.1183,-5.1183,-3.5968,-3.5804,-3.5504,-3.5504,-3.5504,-3.5504,-3.5504,-3.528,-3.4966,-3.4593,0.0,0.0,0.0,0.0,0.0,0.0,-3.1256,-3.1182,-3.1466,-3.1511,-3.1511,-3.1511,-3.1511,-3.1511,-3.1511,-3.2108,-3.2363,-3.2093,-3.1974,-3.2047,-3.2298,-3.2706,-3.3156,-3.3668,-3.4491,-3.5117,-3.5572,-3.5522,-3.5522,-3.5572,-3.5604,-3.5572,-3.5519,-3.6721,-3.7228,-3.7265,-4.0083,-4.1261,-4.1357,-4.3033,-4.3674,-4.3598,-4.3687,-4.3734,-4.3734,-4.3628,-4.3598,-4.3598,-4.3598,-4.3598,-4.3598,-4.3598,-4.3598,-4.3598,-4.3598,-4.3813,-4.4092,-4.4208,-4.4158,-4.4274,-4.5102,-4.5334,-4.5582,-4.6643,-4.7222,-4.762,-4.7934,-4.8001,-4.8001,-4.8001,-4.8001,-4.8001,-4.8001,-4.8001,-4.8001,-4.8001,-4.8001,-4.8001,-4.8001,-4.8001,-4.8001,-4.8001,-4.8001,-4.8001,-4.8001,-4.8398,-4.8779,-4.9094,-4.9889,-5.0531,-5.0949,-5.11,-5.081,-5.0098,-5.039,-5.0762,-5.1183,-5.1183,-5.1183,-5.1183,-5.1183,-5.1183,-3.6312,-3.6013,-3.5549,-3.5729,-3.5639,-3.5504,-3.5504,-3.5504,-3.537,-3.4861,-3.4083,0.0,0.0,0.0,-3.157,0.0,0.0,-3.1511,-3.1511,-3.1511,-3.1511,-3.1511,-3.1511,-3.1511,-3.1511,-3.2108,-3.2407,-3.2228,-3.2108,-3.2152,-3.2375,-3.2646,-3.3051,-3.3638,-3.419,-3.4801,-3.5489,-3.5504,-3.5504,-3.5504,-3.5589,-3.5589,-3.5519,-3.6618,-3.7216,-3.753,-3.9733,-4.0887,-4.1314,-4.271,-4.33,-4.3317,-4.3515,-4.3598,-4.3598,-4.3598,-4.3598,-4.3598,-4.3598,-4.3598,-4.3598,-4.3598,-4.3598,-4.3598,-4.3598,-4.388,-4.4274,-4.4605,-4.4605,-4.4705,-4.5566,-4.5798,-4.598,-4.6725,-4.7305,-4.7752,-4.7968,-4.8001,-4.8001,-4.8001,-4.8001,-4.8001,-4.8001,-4.8001,-4.8001,-4.8001,-4.8001,-4.8001,-4.8001,-4.8001,-4.8001,-4.8001,-4.8001,-4.8001,-4.8001,-4.868,-4.9193,-4.9392,-5.0732,-5.1168,-5.0438,-5.0743,-5.0676,-5.0098,-5.0309,-5.0649,-5.1183,-5.1183,-5.1183,-5.1183,-5.1183,-5.1183,-3.6312,-3.6013,-3.5654,-3.6297,-3.5968,-3.5504,-3.5504,-3.5504,-3.5489,-3.5474,-3.4412,-3.3679,-3.4339,-3.2841,0.0,0.0,0.0,0.0,0.0,-3.1511,-3.1511,-3.1511,-3.1511,-3.1511,-3.1511,-3.2108,-3.2213,-3.1585,-3.2721,-3.2886,-3.16,-3.2781,-3.3469,-3.3499,-3.4159,-3.4801,-3.5489,-3.5504,-3.5504,-3.5504,-3.5504,-3.5504,-3.5504,-3.5552,-3.6241,-3.7433,-3.8266,-3.9314,-4.0547,-4.1943,-4.2522,-4.2605,-4.3317,-4.3598,-4.3598,-4.3598,-4.3598,-4.3598,-4.3598,-4.3598,-4.3598,-4.3598,-4.3598,-4.3598,-4.3598,-4.4605,-4.5582,-4.487,-4.5698,-4.6643,-4.5963,-4.5798,-4.598,-4.6725,-4.6924,-4.7123,-4.7852,-4.8001,-4.8001,-4.8001,-4.8001,-4.8001,-4.8001,-4.8001,-4.8001,-4.8001,-4.8001,-4.8001,-4.8001,-4.8001,-4.8001,-4.8001,-4.8001,-4.8001,-4.8001,-4.868,-4.9409,-5.0137,-5.1369,-5.1339,-4.9681,-5.0827,-5.105,-5.0115,-5.0795,-5.1205,-5.1183,-5.1183,-5.1183,-5.1183,-5.1183,-5.1183,-3.6926,-3.6941,-3.6731,-3.6537,-3.6312,-3.6043,-3.5609,-3.5504,-3.5504,-3.5504,-3.4786,-3.4352,-3.504,-3.3873,0.0,0.0,0.0,0.0,0.0,-3.0851,-3.0987,-3.1451,-3.1511,-3.1511,-3.1511,-3.1286,-3.1465,-3.2108,-3.1764,-3.1898,-3.2781,-3.2392,-3.2796,-3.4098,-3.3933,-3.4367,-3.5489,-3.5504,-3.5504,-3.5504,-3.5504,-3.5504,-3.5504,-3.591,-3.6321,-3.6784,-3.7991,-3.8953,-3.9854,-4.1308,-4.215,-4.2555,-4.33,-4.3598,-4.3598,-4.3598,-4.3598,-4.3598,-4.3598,-4.3598,-4.3598,-4.3598,-4.3598,-4.3598,-4.3598,-4.4291,-4.5003,-4.4785,-4.54,-4.6096,-4.5847,-4.6146,-4.6576,-4.6841,-4.7272,-4.7703,-4.7951,-4.8001,-4.8001,-4.8001,-4.8001,-4.8001,-4.8001,-4.8001,-4.8001,-4.8001,-4.8001,-4.8001,-4.8001,-4.8001,-4.8001,-4.8001,-4.8001,-4.8001,-4.8001,-4.868,-4.9839,-5.1545,-5.1484,-5.129,-5.1041,-5.1349,-5.1273,-5.0827,-5.1054,-5.1183,-5.1183,-5.1183,-5.1183,-5.1183,-5.1183,-5.1183,-3.7584,-3.7584,-3.736,-3.721,-3.6985,-3.6641,-3.5998,-3.5848,-3.5789,-3.5549,-3.4771,-3.4412,-3.5325,-3.4218,0.0,0.0,0.0,0.0,0.0,-3.0866,-3.1002,-3.1451,-3.1511,-3.1406,-3.1167,-3.0957,-3.1135,-3.1749,-3.1435,-3.1794,-3.308,-3.2318,-3.2677,-3.4459,-3.3844,-3.4143,-3.5489,-3.5504,-3.5504,-3.5504,-3.5504,-3.5504,-3.5504,-3.591,-3.6196,-3.6445,-3.7374,-3.8093,-3.8827,-4.0515,-4.1444,-4.1913,-4.3142,-4.3598,-4.3598,-4.3598,-4.3764,-4.3959,-4.3681,-4.3764,-4.3959,-4.3681,-4.3764,-4.3992,-4.3992,-4.4688,-4.5467,-4.5467,-4.6013,-4.6576,-4.6576,-4.6924,-4.7289,-4.7289,-4.7653,-4.8001,-4.8001,-4.8001,-4.8001,-4.8001,-4.8001,-4.8001,-4.8001,-4.8001,-4.8001,-4.8001,-4.8001,-4.8001,-4.8001,-4.8001,-4.8001,-4.8001,-4.8001,-4.8216,-4.8746,-4.9226,-5.022,-5.1912,-5.1616,-5.1405,-5.1421,-5.148,-5.1631,-5.1928,-5.1442,-5.1442,-5.1944,-5.1426,-5.1183,-5.1183,-5.1183,-5.1183]},{"header":{"parameterUnit":"m.s-1","parameterCategory":1,"la1":30.6,"la2":29.2853,"lo1":-89.7004,"lo2":-87.6739,"dy":0.0162,"dx":0.0183,"nx":112,"ny":82,"refTime":"2023-04-19T06:00:00:Z","depth":0,"parameterNumber":3,"parameterNumberName":"V-component_of_WINDS"},"data":[0.0,0.0,0.0,0.0,0.0,0.0,0.0,0.0,0.0,0.0,0.0,0.0,0.0,0.0,0.0,0.0,0.0,0.0,0.0,0.0,0.0,0.0,0.0,0.0,0.0,0.0,0.0,0.0,0.0,0.0,0.0,0.0,0.0,0.0,0.0,0.0,0.0,0.0,0.0,0.0,0.0,0.0,0.0,0.0,0.0,0.0,0.0,0.0,0.0,0.0,0.0,0.0,0.0,0.0,0.0,0.0,0.0,0.0,0.0,0.0,0.0,0.0,0.0,0.0,0.0,0.0,0.0,0.0,0.0,0.0,0.0,0.0,0.0,0.0,0.0,0.0,0.0,0.0,0.0,0.0,0.0,0.0,0.0,0.0,0.0,0.0,0.0,0.0,0.0,0.0,1.9203,2.0094,2.2465,2.3831,2.3435,2.2922,2.187,2.0095,0.0,0.0,0.0,0.0,0.0,0.0,0.0,0.0,0.0,0.0,0.0,0.0,0.0,0.0,0.0,0.0,0.0,0.0,0.0,0.0,0.0,0.0,0.0,0.0,0.0,0.0,0.0,0.0,0.0,0.0,0.0,0.0,0.0,0.0,0.0,0.0,0.0,0.0,0.0,0.0,0.0,0.0,0.0,0.0,0.0,0.0,0.0,0.0,0.0,0.0,0.0,0.0,0.0,0.0,0.0,0.0,0.0,0.0,0.0,0.0,0.0,0.0,0.0,0.0,0.0,0.0,0.0,0.0,0.0,0.0,0.0,0.0,0.0,0.0,0.0,0.0,0.0,0.0,0.0,0.0,0.0,0.0,0.0,0.0,0.0,0.0,0.0,0.0,0.0,0.0,0.0,0.0,0.0,0.0,0.0,0.0,0.0,0.0,0.0,0.0,0.0,0.0,0.0,0.0,1.9108,2.1181,2.2419,2.3068,2.3004,2.198,2.1117,2.0466,0.0,0.0,0.0,0.0,0.0,0.0,0.0,0.0,0.0,0.0,0.0,0.0,0.0,0.0,0.0,0.0,0.0,0.0,0.0,0.0,0.0,0.0,0.0,0.0,0.0,0.0,0.0,0.0,0.0,0.0,0.0,0.0,0.0,0.0,0.0,0.0,0.0,0.0,0.0,0.0,0.0,0.0,0.0,0.0,0.0,0.0,0.0,0.0,0.0,0.0,0.0,0.0,0.0,0.0,0.0,0.0,0.0,0.0,0.0,0.0,0.0,0.0,0.0,0.0,0.0,0.0,0.0,0.0,0.0,0.0,0.0,0.0,0.0,0.0,0.0,0.0,0.0,0.0,0.0,0.0,0.0,0.0,0.0,0.0,0.0,0.0,0.0,0.0,0.0,0.0,0.0,0.0,0.0,0.0,0.0,0.0,0.0,0.0,0.0,0.0,0.0,0.0,0.0,1.8923,1.9661,2.1225,2.2282,2.2904,2.2904,2.1778,2.0842,2.0195,1.9787,0.0,0.0,0.0,0.0,0.0,0.0,0.0,0.0,0.0,0.0,0.0,0.0,0.0,0.0,0.0,0.0,0.0,0.0,0.0,0.0,0.0,0.0,0.0,0.0,0.0,0.0,0.0,0.0,0.0,0.0,0.0,0.0,0.0,0.0,0.0,0.0,0.0,0.0,0.0,0.0,0.0,0.0,0.0,0.0,0.0,0.0,0.0,0.0,0.0,0.0,0.0,0.0,0.0,0.0,0.0,0.0,0.0,0.0,0.0,0.0,0.0,0.0,0.0,0.0,0.0,0.0,0.0,0.0,0.0,0.0,0.0,0.0,0.0,0.0,0.0,0.0,0.0,0.0,0.0,0.0,0.0,0.0,0.0,0.0,0.0,0.0,0.0,0.0,0.0,0.0,0.0,0.0,0.0,0.0,0.0,0.0,0.0,0.0,0.0,0.0,0.0,0.0,2.009,2.0639,2.1438,2.2334,2.2769,2.2483,2.1484,2.0484,1.9655,1.888,0.0,0.0,0.0,0.0,0.0,0.0,0.0,0.0,0.0,0.0,0.0,0.0,0.0,0.0,0.0,0.0,0.0,0.0,0.0,0.0,0.0,0.0,0.0,0.0,0.0,0.0,0.0,0.0,0.0,0.0,0.0,0.0,0.0,0.0,0.0,0.0,0.0,0.0,0.0,0.0,0.0,0.0,0.0,0.0,0.0,0.0,0.0,0.0,0.0,0.0,0.0,0.0,0.0,0.0,0.0,0.0,0.0,0.0,0.0,0.0,0.0,0.0,0.0,0.0,0.0,0.0,0.0,0.0,0.0,0.0,0.0,0.0,0.0,0.0,0.0,0.0,0.0,0.0,0.0,0.0,0.0,0.0,0.0,0.0,0.0,0.0,0.0,0.0,0.0,0.0,0.0,0.0,0.0,0.0,0.0,0.0,0.0,0.0,0.0,0.0,0.0,0.0,2.1307,2.2215,2.2615,2.2754,2.2366,2.1317,2.0442,1.9628,1.8852,1.8027,0.0,0.0,0.0,0.0,0.0,0.0,0.0,0.0,0.0,0.0,0.0,0.0,0.0,0.0,0.0,0.0,0.0,0.0,0.0,0.0,0.0,0.0,0.0,0.0,0.0,0.0,0.0,0.0,0.0,0.0,0.0,0.0,0.0,0.0,0.0,0.0,0.0,0.0,0.0,0.0,0.0,0.0,0.0,0.0,0.0,0.0,0.0,0.0,0.0,0.0,0.0,0.0,0.0,0.0,0.0,0.0,0.0,0.0,0.0,0.0,0.0,0.0,0.0,0.0,0.0,0.0,0.0,0.0,0.0,0.0,0.0,0.0,0.0,0.0,0.0,0.0,0.0,0.0,0.0,0.0,0.0,0.0,0.0,0.0,0.0,0.0,0.0,0.0,0.0,0.0,0.0,0.0,0.0,0.0,0.0,0.0,0.0,0.0,0.0,0.0,0.0,0.0,2.0544,2.1569,2.1782,2.2012,2.1881,2.116,2.0342,1.9546,1.876,0.0,0.0,0.0,0.0,0.0,0.0,0.0,0.0,0.0,0.0,0.0,0.0,0.0,0.0,0.0,0.0,0.0,0.0,0.0,0.0,0.0,0.0,0.0,0.0,0.0,0.0,0.0,0.0,0.0,0.0,0.0,0.0,0.0,0.0,0.0,0.0,0.0,0.0,0.0,0.0,0.0,0.0,0.0,0.0,0.0,0.0,0.0,0.0,0.0,0.0,0.0,0.0,0.0,0.0,0.0,0.0,0.0,0.0,0.0,0.0,0.0,0.0,0.0,0.0,0.0,0.0,0.0,0.0,0.0,0.0,0.0,0.0,0.0,0.0,0.0,0.0,0.0,0.0,0.0,0.0,0.0,0.0,0.0,0.0,0.0,0.0,0.0,0.0,0.0,0.0,0.0,0.0,0.0,0.0,0.0,0.0,0.0,0.0,0.0,0.0,0.0,0.0,1.893,2.0557,2.155,2.1336,2.1671,2.1542,2.0613,2.008,1.9404,1.8568,0.0,0.0,0.0,0.0,0.0,0.0,0.0,0.0,0.0,0.0,0.0,0.0,0.0,0.0,0.0,0.0,0.0,0.0,0.0,0.0,0.0,0.0,0.0,0.0,0.0,0.0,0.0,0.0,0.0,0.0,0.0,0.0,0.0,0.0,0.0,0.0,0.0,0.0,0.0,0.0,0.0,0.0,0.0,0.0,0.0,0.0,0.0,0.0,0.0,0.0,0.0,0.0,0.0,0.0,0.0,0.0,0.0,0.0,0.0,0.0,0.0,0.0,0.0,0.0,0.0,0.0,0.0,0.0,0.0,0.0,0.0,0.0,0.0,0.0,0.0,0.0,0.0,0.0,0.0,0.0,0.0,0.0,0.0,0.0,0.0,0.0,0.0,0.0,0.0,0.0,0.0,0.0,0.0,0.0,0.0,0.0,0.0,0.0,0.0,0.0,0.0,0.0,2.0004,2.1686,2.2477,2.1615,2.193,2.1404,1.9501,1.9439,1.909,0.0,0.0,0.0,0.0,0.0,0.0,0.0,0.0,0.0,0.0,0.0,0.0,0.0,0.0,0.0,0.0,0.0,0.0,0.0,0.0,0.0,0.0,0.0,0.0,0.0,0.0,0.0,0.0,0.0,0.0,0.0,0.0,0.0,0.0,0.0,0.0,0.0,0.0,0.0,0.0,0.0,0.0,0.0,0.0,0.0,0.0,0.0,0.0,0.0,0.0,0.0,0.0,0.0,0.0,0.0,0.0,0.0,0.0,0.0,0.0,0.0,0.0,0.0,0.0,0.0,0.0,0.0,0.0,0.0,0.0,0.0,0.0,0.0,0.0,0.0,0.0,0.0,0.0,0.0,0.0,0.0,0.0,0.0,0.0,0.0,0.0,0.0,0.0,0.0,0.0,0.0,0.0,0.0,0.0,0.0,0.0,0.0,0.0,0.0,0.0,0.0,0.0,0.0,1.9792,2.1183,2.1986,2.174,2.2,2.184,2.0939,2.041,1.9903,1.9314,0.0,0.0,0.0,0.0,0.0,0.0,0.0,0.0,0.0,0.0,0.0,0.0,0.0,0.0,0.0,0.0,0.0,0.0,0.0,0.0,0.0,0.0,0.0,0.0,0.0,0.0,0.0,0.0,0.0,0.0,0.0,0.0,0.0,0.0,0.0,0.0,0.0,0.0,0.0,0.0,0.0,0.0,0.0,0.0,0.0,0.0,0.0,0.0,0.0,0.0,0.0,0.0,0.0,0.0,0.0,0.0,0.0,0.0,0.0,0.0,0.0,0.0,0.0,0.0,0.0,0.0,0.0,0.0,0.0,0.0,0.0,0.0,0.0,0.0,0.0,0.0,0.0,0.0,0.0,0.0,0.0,0.0,0.0,0.0,0.0,0.0,0.0,0.0,0.0,0.0,0.0,0.0,0.0,0.0,0.0,0.0,0.0,0.0,0.0,0.0,0.0,0.0,1.9699,2.0793,2.1476,2.1292,2.1597,2.1597,2.1017,2.0601,2.0238,1.9847,0.0,0.0,0.0,0.0,0.0,0.0,0.0,0.0,0.0,0.0,0.0,0.0,0.0,0.0,0.0,0.0,0.0,0.0,0.0,0.0,0.0,0.0,0.0,0.0,0.0,0.0,0.0,0.0,0.0,0.0,0.0,0.0,0.0,0.0,0.0,0.0,0.0,0.0,0.0,0.0,0.0,0.0,0.0,0.0,0.0,0.0,0.0,0.0,0.0,0.0,0.0,0.0,0.0,0.0,0.0,0.0,0.0,0.0,0.0,0.0,0.0,0.0,0.0,0.0,0.0,0.0,0.0,0.0,0.0,0.0,0.0,0.0,0.0,0.0,0.0,0.0,0.0,0.0,0.0,0.0,0.0,0.0,0.0,0.0,0.0,0.0,0.0,0.0,0.0,0.0,0.0,0.0,0.0,0.0,0.0,0.0,0.0,0.0,0.0,0.0,0.0,0.0,1.9793,2.0576,2.0982,2.0653,2.1031,2.1031,2.044,2.0451,2.0349,1.9971,0.0,0.0,0.0,0.0,0.0,0.0,0.0,0.0,0.0,0.0,0.0,0.0,0.0,0.0,0.0,0.0,0.0,0.0,0.0,0.0,0.0,0.0,0.0,0.0,0.0,0.0,0.0,0.0,0.0,0.0,0.0,0.0,0.0,0.0,0.0,0.0,0.0,0.0,0.0,0.0,0.0,0.0,0.0,0.0,0.0,0.0,0.0,0.0,0.0,0.0,0.0,0.0,0.0,0.0,0.0,0.0,0.0,0.0,0.0,0.0,2.1611,2.1807,0.0,0.0,0.0,0.0,0.0,0.0,0.0,0.0,0.0,0.0,0.0,0.0,0.0,0.0,0.0,0.0,0.0,0.0,0.0,0.0,0.0,0.0,0.0,0.0,0.0,0.0,0.0,0.0,0.0,0.0,0.0,0.0,0.0,0.0,0.0,0.0,0.0,0.0,0.0,0.0,2.0182,2.0772,2.1215,2.1479,2.1759,2.1835,2.1711,2.1323,2.108,2.0974,2.0328,0.0,0.0,0.0,0.0,0.0,0.0,0.0,0.0,0.0,0.0,0.0,0.0,0.0,0.0,0.0,0.0,0.0,0.0,0.0,0.0,0.0,0.0,0.0,0.0,0.0,0.0,0.0,0.0,0.0,0.0,0.0,0.0,0.0,0.0,0.0,0.0,0.0,0.0,0.0,0.0,0.0,0.0,0.0,0.0,0.0,0.0,0.0,0.0,0.0,0.0,0.0,0.0,0.0,0.0,0.0,0.0,0.0,0.0,0.0,2.2087,2.1807,0.0,0.0,0.0,0.0,0.0,0.0,0.0,0.0,0.0,0.0,0.0,0.0,0.0,0.0,0.0,0.0,0.0,0.0,0.0,0.0,0.0,0.0,0.0,0.0,0.0,0.0,0.0,0.0,0.0,0.0,0.0,0.0,0.0,0.0,0.0,0.0,0.0,0.0,0.0,0.0,2.0602,2.0969,2.129,2.1756,2.1883,2.1987,2.2111,2.1644,2.1421,2.1635,2.1036,0.0,0.0,0.0,0.0,0.0,0.0,0.0,0.0,0.0,0.0,0.0,0.0,0.0,0.0,0.0,0.0,0.0,0.0,0.0,0.0,0.0,0.0,0.0,0.0,0.0,0.0,0.0,0.0,0.0,0.0,0.0,0.0,0.0,0.0,0.0,0.0,0.0,0.0,0.0,0.0,0.0,0.0,0.0,0.0,0.0,0.0,0.0,0.0,0.0,0.0,0.0,0.0,0.0,2.3487,2.3978,2.4551,2.4512,2.4524,2.4485,2.2897,2.2152,2.2035,2.1963,0.0,0.0,0.0,0.0,0.0,0.0,0.0,0.0,0.0,0.0,0.0,0.0,0.0,0.0,0.0,0.0,0.0,0.0,0.0,0.0,0.0,0.0,2.0979,2.1745,2.1694,2.1455,2.1373,0.0,0.0,0.0,0.0,0.0,0.0,0.0,0.0,0.0,0.0,0.0,2.101,2.1186,2.1414,2.188,2.1859,2.1883,2.2025,2.1633,2.1554,2.1908,2.156,2.1382,0.0,0.0,0.0,0.0,0.0,0.0,0.0,0.0,0.0,0.0,0.0,0.0,0.0,0.0,0.0,0.0,0.0,0.0,0.0,0.0,0.0,0.0,0.0,0.0,0.0,0.0,0.0,0.0,0.0,0.0,0.0,0.0,2.1079,2.0722,0.0,0.0,0.0,0.0,0.0,0.0,0.0,0.0,0.0,0.0,0.0,0.0,0.0,2.1967,2.234,2.3497,2.3928,2.3678,2.4281,2.459,2.4685,2.4486,2.4537,2.4737,2.4104,0.0,2.2977,2.2573,0.0,0.0,0.0,0.0,0.0,0.0,0.0,0.0,0.0,0.0,0.0,0.0,0.0,0.0,0.0,0.0,0.0,0.0,0.0,0.0,0.0,0.0,2.2252,2.2377,2.2666,2.2801,2.2397,2.1321,2.0385,2.0385,2.0385,2.0265,0.0,0.0,0.0,0.0,0.0,0.0,2.1041,2.1466,2.189,2.2356,2.2045,2.1807,2.1845,2.1559,2.1518,2.1726,2.1453,2.1382,2.1592,2.1592,0.0,0.0,0.0,0.0,0.0,0.0,0.0,0.0,0.0,0.0,0.0,0.0,0.0,0.0,0.0,0.0,0.0,0.0,0.0,0.0,0.0,0.0,0.0,0.0,0.0,0.0,0.0,0.0,0.0,2.1372,2.1372,2.0664,2.1174,2.1362,0.0,0.0,0.0,0.0,0.0,0.0,0.0,0.0,0.0,2.2646,2.2861,2.3154,2.3574,2.4385,2.4908,2.5108,2.5579,2.605,2.6443,2.6504,2.6615,2.6679,2.6351,2.5826,2.4997,2.3215,2.2377,2.217,0.0,0.0,0.0,0.0,2.2356,2.2584,2.2584,2.2584,2.2573,2.2511,0.0,0.0,0.0,0.0,0.0,0.0,0.0,2.1238,2.1756,2.219,2.2563,2.2822,2.3039,2.3132,2.2925,2.2408,2.1828,2.13,2.1207,2.0969,2.0255,2.0348,0.0,0.0,0.0,2.1373,2.1828,2.2294,2.2656,2.2863,2.2708,2.248,2.2211,2.2081,2.2004,2.1929,2.1913,2.2015,2.2197,2.2342,2.251,0.0,0.0,0.0,0.0,0.0,0.0,0.0,0.0,0.0,0.0,0.0,0.0,0.0,0.0,0.0,0.0,0.0,0.0,0.0,0.0,0.0,0.0,0.0,0.0,0.0,0.0,0.0,0.0,2.1507,2.1762,2.0985,2.1696,2.1899,0.0,0.0,0.0,0.0,0.0,0.0,2.2363,2.2773,2.334,2.4092,2.4336,2.4658,2.5078,2.5732,2.6251,2.6675,2.6991,2.7419,2.7941,2.8045,2.8107,2.8127,2.7861,2.7352,2.6476,2.4302,2.3225,2.2987,2.2646,2.2718,2.3018,2.3018,2.3163,2.336,2.336,2.3287,2.3153,2.2925,2.2615,2.2252,2.1787,0.0,0.0,0.0,0.0,2.1828,2.2646,2.2853,2.2967,2.3432,2.3536,2.3505,2.3391,2.336,2.3091,2.2159,2.2076,2.1828,2.0746,2.1083,0.0,2.0653,2.1393,2.2149,2.2615,2.2977,2.3236,2.335,2.3256,2.3049,2.2708,2.2563,2.2424,2.23,2.2326,2.2402,2.2628,2.2815,2.3155,2.3607,0.0,0.0,0.0,0.0,0.0,0.0,0.0,0.0,0.0,0.0,0.0,0.0,0.0,0.0,0.0,0.0,0.0,0.0,0.0,0.0,0.0,0.0,0.0,0.0,0.0,0.0,0.0,0.0,0.0,2.1817,2.2487,0.0,0.0,0.0,0.0,2.2412,2.3184,2.3672,2.3691,2.4092,2.4531,2.5037,2.582,2.6465,2.6885,2.8105,2.8535,2.8217,2.8184,2.8256,2.8266,2.7865,2.7835,2.7962,2.7587,2.7192,2.671,2.6032,2.5202,2.4394,2.4363,2.4373,2.4394,2.4394,2.4188,2.3836,2.3836,2.3557,2.3256,2.367,2.3795,2.3691,2.3225,2.307,0.0,0.0,2.308,2.3194,2.3681,2.3805,2.3919,2.4321,2.4425,2.4321,2.3939,2.3836,2.3567,2.2646,2.2811,2.2687,2.1311,0.0,2.2118,2.1217,2.1869,2.2625,2.3091,2.3174,2.336,2.3836,2.3453,2.3174,2.3153,2.2749,2.2569,2.2733,2.2352,2.2214,2.2402,2.2628,2.2929,2.3414,2.4118,0.0,0.0,0.0,0.0,0.0,0.0,0.0,0.0,0.0,0.0,0.0,0.0,0.0,0.0,0.0,0.0,0.0,0.0,0.0,0.0,0.0,0.0,0.0,0.0,0.0,0.0,0.0,0.0,2.3113,2.4096,0.0,2.3765,2.4375,2.4832,2.4832,2.6002,2.6575,2.6151,2.6506,2.684,2.7161,2.7451,2.7949,2.8652,2.9111,2.9268,2.9111,2.8828,2.8701,2.8682,2.8422,2.8394,2.8437,2.8478,2.8286,2.7905,2.7829,2.6681,2.491,2.4621,2.4683,2.4941,2.4941,2.4838,2.4757,2.4757,2.4447,2.4043,2.3919,2.3722,2.3401,2.3236,2.3184,2.3246,2.3587,2.3629,2.3732,2.4188,2.4312,2.4301,2.4466,2.4497,2.4456,2.4333,2.4312,2.4126,2.3505,2.3277,2.3029,2.2532,2.2718,2.2832,2.2501,2.2987,2.3443,2.3649,2.3877,2.4084,2.4291,2.4157,2.3939,2.366,2.3205,2.2851,2.2629,2.2286,2.2138,2.2214,2.2515,2.2778,2.2961,2.3955,2.4574,0.0,0.0,0.0,0.0,0.0,0.0,0.0,0.0,0.0,0.0,0.0,0.0,0.0,0.0,0.0,0.0,0.0,0.0,0.0,0.0,0.0,0.0,0.0,0.0,0.0,2.3701,2.4987,2.5193,2.6423,2.7057,2.6677,2.7366,2.7761,2.7555,2.8776,2.9259,2.8599,2.9165,2.9534,2.9674,2.999,3.0428,3.1019,3.1126,3.1126,3.1029,3.0724,3.0364,3.0069,3.0007,2.9845,2.9701,2.9848,2.9746,2.9433,2.9647,2.839,2.6375,2.5847,2.5737,2.5916,2.5916,2.5733,2.5533,2.5379,2.4975,2.4586,2.4394,2.4022,2.3639,2.3639,2.3639,2.3701,2.4012,2.4105,2.4167,2.4425,2.4743,2.4935,2.4935,2.4935,2.4935,2.4935,2.47,2.4489,2.4556,2.4044,2.3546,2.3246,2.3443,2.3598,2.3443,2.3815,2.4105,2.4105,2.4321,2.4497,2.4497,2.4497,2.4321,2.3919,2.3598,2.3153,2.2532,2.2327,2.2154,2.1997,2.2402,2.2665,2.2826,2.4096,2.4803,2.4967,0.0,0.0,0.0,0.0,0.0,0.0,0.0,0.0,0.0,0.0,0.0,0.0,0.0,0.0,0.0,0.0,0.0,0.0,0.0,0.0,0.0,0.0,0.0,2.308,2.5271,2.7401,2.8182,2.9434,3.0488,3.1132,3.1285,3.1081,3.0606,3.1323,3.1581,3.1019,3.1936,3.2452,3.2411,3.3331,3.3824,3.3835,3.4207,3.4207,3.3835,3.3824,3.332,3.2411,3.24,3.2137,3.1575,3.1575,3.1475,3.1307,3.1296,3.0341,2.8828,2.8227,2.7693,2.7309,2.7357,2.6915,2.6182,2.5732,2.5272,2.4927,2.5179,2.4966,2.4583,2.454,2.454,2.4583,2.4497,2.454,2.454,2.4497,2.5147,2.5788,2.5777,2.5777,2.5819,2.5819,2.5147,2.4786,2.5621,2.5137,2.426,2.3421,2.396,2.4352,2.396,2.426,0.0,2.4497,2.4497,2.4497,2.4497,2.4497,2.4321,2.3919,2.3909,2.3463,2.2553,2.248,2.2273,2.1828,2.2176,2.2637,2.3126,2.4472,2.5434,2.5895,0.0,0.0,0.0,0.0,0.0,0.0,0.0,0.0,0.0,0.0,0.0,0.0,0.0,0.0,0.0,0.0,0.0,0.0,0.0,0.0,0.0,2.8252,2.9711,2.8546,2.9327,3.0626,3.227,3.2711,3.2951,3.3134,3.3869,3.4159,3.3657,3.4152,3.4098,3.3191,3.339,3.3335,3.284,3.3442,3.3934,3.424,3.4326,3.4326,3.424,3.3934,3.3442,3.284,3.2553,3.2137,3.1575,3.1575,3.1549,3.1541,3.1732,3.1329,3.0564,2.991,2.8877,2.7904,2.8653,2.8382,2.7624,2.7016,2.6552,2.6334,2.6836,2.6615,2.6049,2.5411,2.5768,2.6133,2.4871,2.4946,2.5306,2.4658,2.47,2.502,2.5663,2.5777,2.5986,2.6607,2.6038,2.5505,2.5746,2.5621,2.5388,2.5119,2.4777,2.4456,2.4332,2.4425,2.4497,2.4497,2.4497,2.4497,2.4497,2.4497,2.4321,2.3919,2.3567,2.3122,2.2532,2.218,2.1932,2.1818,2.2176,2.2949,2.4111,2.4501,2.5087,0.0,0.0,0.0,0.0,0.0,0.0,0.0,0.0,0.0,0.0,0.0,0.0,0.0,0.0,0.0,0.0,0.0,0.0,0.0,0.0,0.0,0.0,3.16,3.3522,3.4249,3.3566,3.3562,3.5185,3.5254,3.5418,3.5919,3.6328,3.6373,3.5869,3.5875,3.5583,3.4742,3.4891,3.4818,3.4421,3.5169,3.5683,3.5936,3.5936,3.5936,3.5936,3.5683,3.5169,3.4421,3.4188,3.3674,3.2951,3.2951,3.2951,3.2951,3.3089,3.2655,3.1773,0.0,0.0,0.0,0.0,2.9048,2.8556,2.7955,2.7457,2.7164,2.7392,2.7118,2.6588,2.606,2.6423,2.6782,2.5757,2.5883,2.6246,2.5715,2.5893,2.6299,2.6812,2.6935,2.7058,2.7597,2.6976,2.6359,2.6359,2.6027,0.0,2.6276,2.5631,2.5062,2.5062,2.4743,2.4497,2.4497,2.4497,2.4497,2.4497,2.4332,2.4074,2.3629,2.335,0.0,0.0,0.0,2.2042,2.1921,2.2404,0.0,0.0,0.0,2.5142,2.5895,2.5895,0.0,0.0,2.5895,2.6104,0.0,0.0,0.0,0.0,0.0,0.0,0.0,0.0,0.0,0.0,0.0,0.0,0.0,0.0,0.0,0.0,3.5111,3.6843,3.9345,3.7607,3.6443,3.7544,3.7486,3.7761,3.8803,3.8455,3.7914,3.7324,3.6843,3.635,3.5821,3.629,0.0,0.0,0.0,3.7986,3.7986,3.7986,3.7986,3.7986,3.7926,3.7372,3.6411,3.6338,3.5773,3.4775,3.4775,3.4775,3.4775,3.4775,3.3966,3.2661,3.1939,3.1134,3.036,2.9574,2.928,2.9272,2.8756,0.0,0.0,2.7682,2.7269,2.6805,2.6723,2.6876,2.7098,2.6894,2.7028,2.7232,2.7151,2.7718,2.8383,2.8462,2.8502,2.8542,2.8621,2.7931,2.7273,2.7273,2.6648,2.6318,2.6976,2.6359,2.5819,2.5944,2.5179,2.4658,2.4658,2.4583,2.4476,2.4425,2.4115,0.0,2.3153,2.3111,2.2739,2.1859,2.219,2.233,2.2195,2.2738,2.3438,2.423,2.4864,2.5415,2.5895,2.5895,2.5937,2.6063,2.6063,2.6467,0.0,0.0,0.0,0.0,0.0,0.0,0.0,0.0,0.0,0.0,0.0,0.0,0.0,0.0,0.0,3.4378,3.66,3.8683,4.0054,4.0171,4.019,4.043,3.9992,3.9686,3.9434,3.9357,3.8888,3.7902,3.7733,3.7445,3.6916,3.7385,3.7481,3.7048,3.7649,3.7986,3.7986,3.7986,3.7986,3.7974,3.7553,0.0,3.6386,3.5966,3.5425,3.4775,3.4775,3.4775,3.4775,3.4775,3.4366,3.3565,3.1807,3.1263,3.1347,3.0601,3.0533,3.0755,3.051,2.9997,2.9513,2.9946,2.9512,2.87,2.8011,2.8474,0.0,2.7435,2.7597,2.8051,2.7313,2.7232,2.7557,2.8343,2.8502,2.8712,2.9417,2.8831,2.8211,2.8211,2.8091,2.7799,2.7191,2.6359,2.6027,2.673,2.6121,2.5537,2.5537,2.4946,2.4363,2.4043,2.3929,2.3536,2.2708,2.2635,2.2397,2.1849,2.189,2.2143,2.2657,2.2801,2.343,2.4665,2.4813,2.5228,2.5895,2.5895,2.626,2.694,2.694,2.7021,0.0,0.0,0.0,0.0,0.0,0.0,0.0,0.0,0.0,0.0,0.0,3.1204,3.2259,0.0,3.5064,3.6916,3.8563,3.9886,4.0679,4.1016,4.1184,4.1184,4.0487,3.9898,3.9633,3.9369,3.8984,3.8443,3.8395,3.8166,3.7613,3.7841,3.7733,3.7216,3.7709,3.7986,3.7986,3.7986,3.7986,3.7974,3.7445,3.6916,3.6386,3.5857,3.5328,3.4775,3.4775,3.4775,3.4763,3.4498,3.3934,3.3166,3.2121,3.1903,3.2001,3.1401,3.1272,3.1371,3.0723,3.0296,2.9983,2.9727,2.9528,2.9236,2.8626,2.9026,2.9514,2.8522,2.8569,2.8858,2.8542,2.8462,2.8593,2.904,2.917,2.9248,2.9714,2.9456,2.9,2.8581,2.8502,2.8343,2.7879,2.7058,2.6607,2.7028,2.6359,2.5777,2.5777,2.502,2.4414,2.4229,2.3805,2.335,2.2884,2.2418,2.2056,2.1818,2.1807,2.2053,2.2626,2.2956,2.3625,2.4641,2.5022,2.5436,2.5895,2.6343,2.6787,2.7226,2.8051,2.8438,0.0,0.0,0.0,0.0,0.0,0.0,0.0,2.961,3.0567,3.1933,3.2698,3.3732,3.5809,3.6411,3.7288,3.9549,4.0355,4.0848,4.128,4.1244,4.1184,4.1184,4.0439,3.9838,3.9633,3.9224,3.8924,3.8827,3.8912,3.8731,3.8166,3.8238,3.801,3.7372,3.7757,3.7986,3.7986,3.7986,3.7986,3.7974,3.7336,3.6819,3.6386,3.5749,3.5232,3.4775,3.4775,3.4775,3.4739,3.421,3.3442,3.2647,3.2539,3.243,3.2286,3.1874,3.1705,3.1573,3.0567,3.0212,3.0013,2.9048,2.8992,2.9254,2.9016,2.9255,2.9644,2.9516,2.947,2.9521,2.974,2.9792,2.9792,2.9792,2.9792,2.9792,2.9792,2.9792,2.9585,2.8882,2.8752,2.8712,2.8542,2.8011,2.7597,2.7597,2.6565,2.5861,2.6027,2.5147,2.4435,2.4259,2.3629,2.3111,2.2936,2.2232,2.1849,2.1932,2.1942,2.219,2.2739,2.3283,2.3924,2.4615,2.5229,2.5644,2.5895,2.6787,2.7296,2.7458,2.8991,2.9704,2.8098,2.8059,2.8363,2.9332,2.9754,3.0474,0.0,3.353,3.4121,3.551,3.6257,3.7015,3.8226,3.9224,4.0114,4.0884,4.1449,4.181,4.1882,4.1485,4.1184,4.1184,4.1076,4.0643,3.9693,3.9549,3.932,3.8852,3.9248,3.9284,3.8755,3.9164,3.896,3.7926,3.795,3.7986,3.7986,3.7986,3.7986,3.7974,3.6976,3.6459,3.6374,3.5376,3.4835,3.4775,3.4775,3.4775,3.4739,3.421,3.3705,3.3152,3.2683,3.2202,3.1789,3.1729,3.1705,3.1621,3.1043,3.061,3.0252,2.9662,2.9429,2.9376,2.9353,2.9532,2.9789,2.9765,2.9753,2.9753,2.9792,2.9792,2.9792,2.9792,2.9792,2.9792,2.9792,2.9792,2.9753,2.9663,2.9663,2.9417,2.8621,2.904,2.9507,2.9507,2.7395,2.6069,2.6853,2.5516,2.4187,2.3432,2.3246,2.2853,2.2035,2.1859,2.1983,2.2397,2.2418,2.2811,2.3691,2.3815,2.4252,2.5115,2.521,2.5464,2.5895,2.6787,2.7568,2.8307,2.9264,2.9704,2.9406,2.9167,2.9324,3.0012,3.0852,3.2054,3.4183,3.5235,3.6216,3.793,3.9044,3.9975,4.0567,4.1016,4.1389,4.1605,4.1834,4.1858,4.1557,4.1329,4.0956,4.0343,4.027,4.009,3.9645,3.9333,3.9176,3.9272,3.9477,3.9513,3.9296,3.92,3.8791,3.7998,3.7986,3.7986,3.7986,3.7986,3.7986,3.7974,3.6904,3.6411,3.6362,3.5304,3.4775,3.4763,3.445,3.4162,3.3885,3.3356,3.2827,3.2367,3.2094,3.191,3.1705,3.1705,3.1705,3.1633,3.1103,3.0616,3.0127,2.9584,2.9379,2.9297,2.9126,2.9273,2.9469,2.9386,2.9378,2.9417,2.9521,2.9702,2.9792,2.9792,2.9792,2.9792,2.9792,2.9792,2.9792,2.9792,2.9792,2.9663,2.9326,2.9131,2.9209,2.9702,2.7931,2.67,2.7058,2.56,2.4259,2.366,2.3111,2.2625,2.2242,2.2211,2.2294,2.248,2.2749,2.3194,2.3857,2.3919,2.4252,2.502,2.5158,2.538,2.5728,2.7554,2.8157,2.773,2.9913,3.0496,2.9742,2.9831,3.0278,3.0882,3.2466,3.4221,3.5573,3.7015,3.8464,4.0158,4.1139,4.1837,4.2338,4.2279,4.2194,4.2194,4.2133,4.1786,4.1256,4.0932,4.0415,3.9501,3.9128,3.8936,3.8936,3.8864,3.8972,3.9357,3.9525,3.9549,3.9393,3.902,3.8563,3.7998,3.7986,3.7986,3.7986,3.7986,3.7914,3.7757,3.6843,3.6326,3.6158,3.5244,3.4775,3.4751,3.4222,3.3837,3.344,3.2767,3.2262,3.1922,3.1765,3.1705,3.1705,3.1705,3.1705,3.1609,3.0934,3.041,2.9977,2.9304,2.9116,2.9125,2.8873,2.9043,2.9314,2.919,2.9248,2.9339,2.947,2.965,2.9792,2.9792,2.9792,2.9792,2.9792,2.9792,2.9792,2.9792,2.9792,2.9792,2.9792,2.9287,2.9079,2.9714,2.8474,2.7395,2.7151,2.5492,2.4281,2.4084,2.335,2.2925,2.3049,2.306,2.3122,2.3246,2.3567,2.395,2.4405,2.4469,2.471,2.5238,2.5338,2.553,2.5753,2.8151,2.8767,2.7842,3.0718,3.1397,2.8419,2.9484,3.0971,3.2285,3.5029,3.7475,3.781,3.958,4.141,4.2494,4.2338,4.2267,4.3277,4.306,4.2795,4.2795,4.2362,4.1786,4.1256,4.0294,3.9453,3.8912,3.7914,3.7264,3.7264,3.8202,3.8827,3.8839,3.932,3.9381,3.8876,3.8827,3.8563,3.7998,3.7986,3.7986,3.7986,3.7986,3.7721,3.7216,3.6663,3.6134,3.5629,3.5027,3.4775,3.4751,3.4222,3.3982,3.3886,3.2923,3.2491,3.2418,3.1922,3.1705,3.1705,3.1705,3.1705,3.156,3.047,3.0098,2.9917,2.8871,2.8642,2.8816,2.8803,2.9079,2.9404,2.938,2.9573,2.9792,2.9792,2.9792,2.9792,2.9792,2.9792,2.9792,2.9792,2.9792,2.9792,2.9792,2.9792,2.9792,2.9792,2.9792,2.9753,2.9792,2.904,2.8131,2.7232,2.5252,2.4053,2.4435,2.4115,2.4012,2.4404,2.4435,2.4621,2.5075,2.5117,2.5368,2.5802,2.5858,2.5958,2.6148,2.5983,2.5968,2.6184,2.8284,2.9285,2.9273,3.162,3.2319,2.9499,3.1083,3.3083,3.5162,3.6765,3.8345,4.0242,4.092,4.1377,4.2145,4.1533,4.092,4.092,4.0487,4.015,4.015,4.0583,4.0739,4.021,4.0138,3.9537,3.7926,3.7421,3.6916,3.6218,3.6795,3.7505,3.8214,3.8106,3.8238,3.8791,3.8467,3.8178,3.7986,3.7986,3.7817,3.7457,3.7457,3.7192,3.6663,3.6134,3.5605,3.5039,3.4859,3.4775,3.4727,3.3909,3.3549,3.3452,3.2382,3.1994,3.1925,3.1789,3.1705,3.1705,3.1705,3.1705,3.1609,3.0898,3.0386,2.9965,2.9256,2.8839,2.8618,2.8764,2.887,2.9028,2.9157,2.9353,2.9509,2.9509,2.9663,2.9792,2.9792,2.9792,2.9792,2.9792,2.9792,2.9792,2.9792,2.9792,2.9792,2.9792,2.9792,2.9585,2.9,2.8171,2.7273,2.6359,2.4868,2.4167,2.4879,2.4322,2.4188,2.489,2.4952,2.5024,2.5179,2.5502,2.573,2.5875,2.5875,2.592,2.601,2.6233,2.6381,2.6469,2.9102,2.9857,2.8965,3.1909,3.2666,3.1272,3.3007,3.486,3.7437,3.8587,3.9621,4.1533,4.1569,4.128,4.1617,4.0703,3.9669,3.9128,3.8599,3.8106,3.7733,3.8238,3.8635,3.8479,3.8431,3.8034,3.7036,3.6747,3.629,3.5425,3.5809,3.6567,3.7613,3.7565,3.7781,3.8479,3.8178,3.7986,3.7986,3.7986,3.7733,3.7204,3.7192,3.6831,3.611,3.5581,3.5111,3.4775,3.4775,3.4775,3.4727,3.3933,3.3561,3.3477,3.2406,3.2006,3.1994,3.1789,3.1705,3.1705,3.1705,3.1705,3.1609,3.0886,3.0459,3.0103,2.9366,2.8935,2.8749,2.8882,2.8961,2.9028,2.9157,2.9365,2.956,2.956,2.965,2.9792,2.9792,2.9792,2.9792,2.9792,2.9792,2.9792,2.9792,2.9792,2.9792,2.9792,2.9792,2.9495,2.8621,2.7678,2.6782,2.5902,2.4808,2.4467,2.5368,2.4943,2.4964,2.5875,2.5958,2.5958,2.5958,2.6216,2.6418,2.6418,2.6418,2.6418,2.6418,2.6582,2.6724,2.687,2.9471,3.0154,2.9072,3.2353,3.3086,3.3528,3.5041,3.6411,3.8996,4.0379,4.1244,4.1832,4.1461,4.1052,4.0992,3.9693,3.8395,3.7805,3.7288,3.6639,3.5689,3.5629,3.5881,3.6411,3.5653,3.5339,3.6338,3.6002,3.5485,3.4907,3.5364,3.6086,3.712,3.7637,3.7926,3.7986,3.7986,3.7986,3.7986,3.7986,3.7709,3.7156,3.7096,3.6567,3.5569,3.5015,3.4775,3.4775,3.4775,3.4775,3.4751,3.4198,3.3958,3.3874,3.2887,3.2454,3.2406,3.191,3.1705,3.1705,3.1705,3.1705,3.156,3.0482,3.026,3.0257,2.9152,2.8958,2.9128,2.9128,2.9285,2.9456,2.9456,2.9649,2.9829,2.9804,2.9792,2.9792,2.9792,2.9792,2.9792,2.9792,2.9817,2.9829,2.9829,2.9854,2.9854,2.9804,2.9778,2.9493,2.8633,2.7637,2.673,2.5913,2.502,2.4838,2.5782,2.5875,2.6304,2.7226,2.7309,2.7309,2.7309,2.7309,2.7309,2.7309,2.7309,2.7309,2.7309,2.7061,2.7073,2.736,2.9435,3.0138,2.9625,3.2814,3.3505,3.4884,3.6579,3.8359,3.9826,4.0102,4.015,4.0679,4.0078,3.92,3.8383,3.6639,3.4931,3.4066,3.3789,3.3861,3.4306,3.5761,3.6976,3.7505,3.7709,3.7601,3.706,3.6867,3.6579,3.605,3.6122,3.6483,3.7144,3.6952,3.7156,3.7938,3.7986,3.7986,3.7986,3.7986,3.7541,3.6615,3.5821,3.5292,3.4979,3.4895,3.4775,3.4775,3.4775,3.4775,3.4727,3.3873,3.3477,3.3404,3.2322,3.1922,3.191,3.1765,3.1705,3.1705,3.1705,3.1705,3.1609,3.0946,3.0718,3.0592,2.9518,2.9318,2.952,2.9717,2.9905,3.0092,3.0263,3.0355,3.0306,2.9892,2.9792,2.9792,2.9792,2.9792,2.9792,2.9792,3.0118,3.0407,3.0407,3.0721,3.0733,2.993,2.9581,2.9213,2.8602,2.7139,2.6027,2.5819,2.502,2.4838,2.5782,2.5875,2.6304,2.7226,2.7309,2.7309,2.7309,2.7309,2.7309,2.7309,2.7309,2.7309,2.7309,2.7374,2.7547,2.7817,2.925,2.9975,3.0065,3.1853,3.2697,3.7629,3.8936,4.0114,4.1172,4.0691,3.991,3.9741,3.8695,3.7324,3.5797,3.4162,3.2755,3.1937,3.1973,3.225,3.2599,3.4246,3.5737,3.6495,3.6867,3.7096,3.718,3.7192,3.6988,3.6459,3.6615,3.6867,3.7168,3.6916,3.712,3.7938,3.7986,3.7986,3.7986,3.7757,3.7132,3.6062,3.5244,3.4775,3.4775,3.4775,3.4775,3.4775,3.4775,3.4775,3.4787,3.397,3.3621,3.3537,3.2466,3.2166,3.2379,3.1898,3.1862,3.1997,3.1801,3.1705,3.1669,3.1368,3.1315,3.1233,3.0127,2.9929,3.0122,3.0392,3.0555,3.0705,3.0866,3.0947,3.0834,3.0294,3.0331,3.0432,3.0206,3.0156,3.0218,3.0444,3.0557,3.0683,3.0909,3.1185,3.1122,3.0294,2.9985,2.9585,2.8626,2.7261,2.6235,2.5872,2.502,2.4766,2.5513,2.5595,2.5968,2.6926,2.7009,2.7092,2.7299,2.7309,2.7309,2.7309,2.7309,2.7309,2.7309,2.7404,2.7631,2.7998,2.9073,2.9624,2.9624,3.1295,3.2075,4.0547,4.128,4.1557,4.2325,4.1305,3.9874,3.8659,3.7144,3.5412,3.338,3.2106,3.1235,3.0663,3.1151,3.15,3.1144,3.2442,3.3873,3.4992,3.5148,3.5677,3.712,3.73,3.712,3.6663,3.7024,3.73,3.73,3.73,3.7505,3.7962,3.7986,3.795,3.7878,3.736,3.6615,3.5629,3.5051,3.4775,3.4775,3.4775,3.4775,3.4775,3.4775,3.4739,3.4643,3.4126,3.385,3.3718,3.2791,3.2707,3.3092,3.2187,3.207,3.2442,3.1994,3.1765,3.1705,3.1705,3.1805,3.178,3.0786,3.0655,3.0851,3.0934,3.1112,3.1278,3.1294,3.1417,3.1373,3.0859,3.1047,3.1273,3.0821,3.0721,3.0834,3.1298,3.1097,3.0959,3.1411,3.1562,3.1424,3.0821,3.0783,3.0368,2.8986,2.7997,2.7056,2.608,2.5105,2.4673,2.5137,2.5241,2.5658,2.6542,2.6677,2.6884,2.7278,2.7309,2.7309,2.7309,2.7309,2.7309,2.7309,2.7309,2.7536,2.7998,2.883,2.9085,2.874,3.0853,3.1295,4.1052,4.1822,4.2277,4.1088,3.9934,3.8575,3.6615,3.4956,3.3344,3.1649,3.0446,2.9544,2.9015,3.0062,3.1276,3.2094,3.3537,3.5076,3.6567,3.6783,3.7048,3.7757,3.7841,3.7805,3.7709,3.7793,3.7841,3.7841,3.7841,3.789,3.7974,3.7986,3.7781,3.7336,3.6819,3.6242,3.5629,3.5051,3.4775,3.4775,3.4775,3.4775,3.4775,3.4775,3.4546,3.4102,3.3633,3.3176,3.2719,3.207,3.213,3.2623,3.243,3.2418,3.2491,3.2394,3.2058,3.1705,3.1705,3.1705,3.1653,3.1038,3.1205,3.1501,3.057,3.1083,3.1855,3.1126,3.1477,3.1938,3.1399,3.1323,3.1361,3.1273,3.1248,3.1286,3.1373,3.1675,3.1964,3.2051,3.2453,3.2466,3.1436,3.1637,3.1558,3.0408,2.95,2.8415,2.7033,2.5474,2.4673,2.5137,2.5554,2.5978,2.6573,2.6967,2.7216,2.7299,2.7309,2.7309,2.7309,2.7309,2.7309,2.7309,2.7441,2.7726,2.7998,2.8373,2.8411,2.8145,2.9628,2.985,4.2327,4.276,4.2832,4.1545,3.9789,3.7685,3.5016,3.3176,3.1504,2.9617,2.8835,2.8486,2.851,2.9809,3.1091,3.1565,3.2984,3.4571,3.6158,3.6374,3.6771,3.7853,3.7986,3.7986,3.7986,3.7986,3.7986,3.7986,3.7986,3.7986,3.7986,3.7986,3.7613,3.6807,3.6531,3.6014,3.5208,3.4907,3.4775,3.4775,3.4775,3.4775,3.4775,3.4775,3.4643,3.4354,3.3621,3.314,3.2851,3.2054,3.2199,3.2887,3.2611,3.2827,3.3236,3.2695,3.2334,3.2058,3.1813,3.1749,3.1801,3.1416,3.1593,3.1853,3.145,3.1828,3.2399,3.2099,3.2313,3.2541,3.1964,3.2039,3.219,3.1888,3.2051,3.219,3.1888,3.2265,3.2667,3.2667,3.288,3.2847,3.1964,3.2039,3.1938,3.1135,3.0253,2.9378,2.8351,2.6719,2.5433,2.4871,2.5057,2.5461,2.62,2.6459,2.6791,2.7278,2.7309,2.7309,2.7309,2.7309,2.7309,2.7309,2.7404,2.7536,2.7773,2.8055,2.8089,2.7889,2.8777,2.8912,4.3108,4.3349,4.3228,4.2086,3.9789,3.6988,3.3837,3.1865,3.0146,2.8138,2.7594,2.7753,2.839,2.9532,3.0482,3.0819,3.2034,3.3525,3.5208,3.5545,3.6158,3.7637,3.7914,3.7986,3.7986,3.7986,3.7986,3.7986,3.7986,3.7986,3.7986,3.7986,3.7505,3.6435,3.6411,3.5893,3.4787,3.4775,3.4775,3.4775,3.4775,3.4775,3.4775,3.4775,3.4715,3.457,3.3801,3.332,3.3056,3.2235,3.2464,3.3236,3.2707,3.3068,3.3718,3.2839,3.243,3.2262,3.1862,3.1805,3.1893,3.1761,3.1893,3.2069,3.2069,3.2363,3.2711,3.2754,3.2939,3.2968,3.2516,3.2742,3.2968,3.2503,3.2742,3.2955,3.2503,3.2754,3.3124,3.3124,3.3124,3.293,3.2478,3.239,3.2215,3.165,3.0971,3.0264,2.9567,2.8111,2.6615,2.5239,2.4906,2.515,2.5958,2.6159,2.649,2.7123,2.7247,2.7258,2.7164,2.7258,2.7309,2.7309,2.7357,2.7489,2.7678,2.7951,2.7997,2.7798,2.8452,2.8402,4.223,4.2796,4.3144,4.1641,3.9248,3.6447,3.3296,3.1324,2.9689,2.8026,2.7306,2.7282,2.8318,2.8631,2.9196,3.0639,3.144,3.2539,3.4607,3.5267,3.6026,3.7132,3.7685,3.7986,3.7986,3.7986,3.7986,3.7986,3.7986,3.7986,3.7986,3.7986,3.7505,3.6435,3.6411,3.5893,3.4787,3.4775,3.4775,3.4775,3.4775,3.4775,3.4775,3.4775,3.4522,3.4066,3.397,3.344,3.2563,3.2466,3.2767,3.3236,3.2707,3.2851,3.3284,3.2707,3.2178,3.1777,3.1729,3.1705,3.1705,3.1717,3.1981,3.2213,3.1315,3.1813,3.2581,3.1901,3.2394,3.3111,3.3048,3.3074,3.3111,3.3048,3.3043,3.3056,3.3048,3.3043,3.3124,3.3124,3.3124,3.3056,3.3048,3.3006,3.2805,3.2227,3.2056,3.1509,3.0205,2.9141,2.8132,2.714,2.6277,2.5958,2.6511,2.6936,2.704,2.6698,2.7071,2.7123,2.6698,2.7081,2.7309,2.7309,2.7499,2.7726,2.7951,2.8243,2.8239,2.7991,2.8857,2.8564,4.135,4.2267,4.2687,4.11,3.8455,3.5581,3.3068,3.0759,2.8871,2.7921,2.7522,2.7594,2.8378,2.8775,2.9304,3.0242,3.0621,3.1468,3.3597,3.3813,3.4487,3.6483,3.6904,3.7276,3.7926,3.7986,3.7986,3.7986,3.7986,3.7986,3.7986,3.7685,3.7168,3.6423,3.6098,3.5581,3.4787,3.4775,3.447,3.3857,3.447,3.447,3.3869,3.4519,3.4486,3.397,3.3717,3.3176,3.2478,3.213,3.2322,3.2791,3.2575,3.2827,3.3224,3.2695,3.2358,3.2118,3.1825,3.1705,3.1705,3.1705,3.1893,3.2125,3.1881,3.2232,3.2667,3.2537,3.281,3.3124,3.3124,3.2667,3.2351,3.2939,3.2624,3.2351,3.2982,3.3124,3.3124,3.3124,3.3124,3.3124,3.3124,3.2581,3.2134,3.1871,3.1344,3.0878,3.0548,2.9722,2.9015,2.8564,2.6956,2.6107,2.6573,2.6781,2.6926,2.7029,2.6946,2.6812,2.6625,2.6791,2.6895,2.6895,2.7353,2.7631,2.7773,2.8196,2.8193,2.7809,2.8296,2.8242,3.9816,4.1073,4.1713,4.0282,3.7637,3.4835,3.2731,3.0477,2.8626,2.7861,2.7755,2.7912,2.8414,2.8691,2.9112,2.9953,3.0086,3.0783,3.2779,3.2743,3.3248,3.5244,3.5617,3.6122,3.718,3.7709,3.7986,3.7986,3.7986,3.7986,3.7986,3.7336,3.6795,3.6411,3.5893,3.5364,3.4787,3.4775,3.4421,3.3659,3.4421,3.4421,3.3709,3.447,3.457,3.4198,3.3729,3.3212,3.2695,3.2142,3.2142,3.2478,3.2322,3.2587,3.2996,3.2454,3.225,3.2202,3.1849,3.1705,3.1705,3.1705,3.1805,3.1981,3.23,3.2562,3.2766,3.3025,3.3124,3.3124,3.3124,3.2581,3.2208,3.2939,3.2581,3.2264,3.2939,3.3124,3.3124,3.3124,3.3124,3.3124,3.3124,3.2525,3.1945,3.1625,3.1036,3.0627,3.0628,2.9819,2.9228,2.9128,2.7452,2.647,2.6791,2.6822,2.6895,2.7092,2.6926,2.676,2.6625,2.675,2.6822,2.6822,2.7275,2.7584,2.7726,2.8102,2.8211,2.8026,2.8305,2.8569,3.75,3.8966,4.0162,3.9104,3.6819,3.4282,3.2199,3.0592,2.925,2.7972,2.7859,2.8094,2.8454,2.8089,2.8246,2.9833,3.0086,3.0651,3.2286,3.2503,3.2707,3.326,3.3765,3.4438,3.5533,3.706,3.7986,3.7986,3.7986,3.7986,3.7986,3.6988,3.6411,3.6411,3.5893,3.5364,3.4787,3.4775,3.4775,3.4775,3.4775,3.4775,3.4775,3.4775,3.4775,3.4739,3.421,3.3753,3.3236,3.2707,3.2491,3.2442,3.1934,3.2066,3.2442,3.1922,3.1717,3.1717,3.1705,3.1705,3.1705,3.1705,3.1705,3.1805,3.2257,3.2562,3.2766,3.3025,3.3124,3.3124,3.3124,3.3081,3.3081,3.3124,3.3081,3.3081,3.3124,3.3124,3.3124,3.3124,3.3124,3.3124,3.3124,3.3081,3.2754,3.1757,3.1581,3.1258,3.0351,2.9349,2.8713,2.8713,2.7846,2.7299,2.7299,2.7299,2.7102,2.6656,2.705,2.7092,2.6635,2.7061,2.7299,2.7299,2.7299,2.7536,2.7998,2.7998,2.8269,2.8803,2.9296,2.9969,3.5392,3.6743,3.7681,3.6616,3.4884,3.3131,3.1946,3.0356,2.8922,2.837,2.8403,2.853,2.8514,2.8378,2.8655,2.9893,3.0086,3.0398,3.1264,3.2346,3.3224,3.3741,3.5533,3.6867,3.7204,3.7685,3.7986,3.7986,3.7986,3.7986,3.7986,3.7324,3.6771,3.6411,3.5545,3.4943,3.4775,3.4775,3.4421,3.3709,3.447,3.4017,3.2639,3.4115,3.4182,3.3161,3.341,3.3236,3.2707,3.2154,3.1925,3.1958,3.1777,3.1813,3.1946,3.1777,3.1705,3.1705,3.1705,3.1705,3.1705,3.1705,3.1937,3.2169,3.2125,3.23,3.2605,3.2995,3.3124,3.3124,3.3124,3.2581,3.2264,3.2939,3.2581,3.2251,3.2939,3.3124,3.3124,3.3124,3.3124,3.3124,3.3124,3.2537,3.1989,3.1669,3.0453,2.9761,3.017,2.9303,2.8678,2.8678,2.8445,2.7998,2.7347,2.7309,2.7247,2.7102,2.6926,2.677,2.6625,2.675,2.6832,2.6832,2.7285,2.7584,2.7726,2.8102,2.8603,2.9318,2.9751,3.0308,3.3564,3.4791,3.5515,3.4785,3.3366,3.2042,3.1366,3.0027,2.8882,2.8736,2.8816,2.8843,2.8657,2.855,2.8827,2.9765,3.0037,3.032,3.0936,3.2151,3.326,3.391,3.5845,3.7168,3.7372,3.7745,3.7986,3.7986,3.7986,3.7986,3.7986,3.7288,3.6747,3.6411,3.5569,3.4979,3.4775,3.4775,3.447,3.3808,3.447,3.3869,3.2286,3.4017,3.3791,3.2142,3.296,3.286,0.0,3.1827,3.1705,3.1705,3.1705,3.1705,3.1705,3.1705,3.1705,3.1705,3.1705,3.1705,3.1705,3.1705,3.1937,3.2169,3.1705,3.2013,3.2605,3.2995,3.3124,3.3124,3.3124,3.2624,3.2307,3.2939,3.2624,3.2351,3.2939,3.3124,3.2982,3.2624,3.2537,3.2438,3.2077,3.148,3.0946,3.0576,2.9498,2.8817,2.9084,2.8585,2.8175,2.8175,2.8175,2.7951,2.7347,2.7309,2.7309,2.7309,2.704,2.6874,2.6874,2.6874,2.6874,2.6874,2.7248,2.7584,2.7773,2.8473,2.915,2.9773,3.0067,3.0461,0.0,3.3086,3.364,3.3396,3.222,3.098,3.0445,2.967,0.0,2.9042,2.903,2.9015,2.8879,2.8645,2.8735,2.9565,2.9878,3.0278,3.1107,3.2023,3.302,3.4078,3.5111,3.5966,3.6423,3.7385,3.7986,3.7986,3.7986,3.7986,3.7986,3.7048,3.6483,3.6411,3.593,3.54,3.4787,3.4775,3.4775,3.4775,3.4775,3.4213,3.3101,3.4213,3.3499,3.152,3.2696,3.2594,3.1616,3.1677,3.1705,3.1705,3.1705,3.1705,3.1705,3.1705,3.1705,3.1717,3.1753,3.1765,3.1765,3.1765,3.1886,3.1849,3.1181,3.1801,3.2766,3.3025,3.3124,3.3124,3.3124,3.3124,3.3124,3.3124,3.3124,3.3124,3.3174,3.3088,3.2773,3.1862,3.1596,3.1261,3.0362,3.0215,2.9897,2.8945,2.8771,2.8398,2.7489,2.7357,2.7309,2.7309,2.7309,2.7309,2.7309,2.7309,2.7309,2.7309,2.7309,2.7309,2.7309,2.7309,2.7309,2.7309,2.7309,2.7547,2.804,2.9022,2.9751,3.0264,3.0231,3.0461,3.0879,0.0,3.1628,3.1153,3.0758,3.0309,0.0,2.9061,2.8683,2.8516,2.8619,2.8866,2.9333,2.8703,2.8727,3.053,2.9745,2.9422,3.0974,3.2614,3.4318,3.623,3.7024,3.7312,3.7036,3.7601,3.7986,3.7986,3.7986,3.7986,3.7986,3.7745,3.724,3.6435,3.629,3.5773,3.4787,3.4775,3.4775,3.4775,3.4775,3.3808,3.2033,3.3101,3.2387,3.0379,3.1491,3.1851,3.1616,3.1677,3.1705,3.1705,3.1705,3.1705,3.1705,3.1705,3.1705,3.1765,3.2154,3.2298,3.2355,3.2511,3.2176,3.1805,3.1981,3.2363,3.2766,3.3025,3.3124,3.3124,3.3124,3.3124,3.3124,3.3124,3.3124,3.3194,3.3608,3.3067,3.2418,3.2247,3.1557,3.0835,3.0273,3.0215,3.0125,2.9897,2.9176,2.8631,2.8398,2.7762,2.7309,2.7309,2.7309,2.7309,2.7309,2.7309,2.7309,2.7309,2.7309,2.7309,2.7309,2.7309,2.7309,2.7309,2.7452,2.7857,2.854,2.9004,2.9732,3.0723,3.0373,3.0461,2.9453,2.9977,3.0458,3.0303,3.0065,2.969,2.9028,2.8746,2.8536,2.8263,2.8213,2.8398,2.8915,2.8636,2.8767,2.991,3.0036,3.0633,3.2599,3.3716,3.5051,3.6976,3.7445,3.7601,3.7553,3.7817,3.7986,3.7986,3.7986,3.7986,3.7986,3.7757,3.736,3.6783,3.629,3.5653,3.4787,3.4775,3.4775,3.4775,3.4775,3.3918,3.2336,3.2951,3.19,2.9683,3.1,3.1179,3.0611,3.139,3.1705,3.1705,3.1705,3.1705,3.1705,3.1705,3.1705,3.1665,3.1492,3.1451,3.1451,3.1575,3.1654,3.1661,3.156,3.2013,3.2643,3.3165,3.3358,3.3458,3.3458,3.3458,3.3458,3.3458,3.3458,3.3464,3.353,3.3098,3.2388,3.1541,3.0702,2.9949,2.9261,2.8995,2.8852,2.8852,2.8398,2.8034,2.8034,2.7631,2.7309,2.7309,2.7309,2.7309,2.7309,2.7309,2.7309,2.7309,2.7309,2.7309,2.7309,2.7309,2.7309,2.7309,2.7841,2.8206,2.8381,2.9214,2.9824,3.0242,2.9991,3.0013,2.836,2.9051,2.9928,2.9972,2.9632,2.9171,2.8537,2.8388,2.8325,2.8148,2.7975,2.799,2.8553,2.8729,2.8879,2.9229,3.0797,3.2668,3.4667,3.4967,3.5605,3.7024,3.7264,3.7457,3.7829,3.7938,3.7986,3.7986,3.7986,3.7986,3.7986,3.7553,3.724,3.7072,3.6206,3.5449,3.4787,3.4775,3.4775,3.4775,3.4775,3.4178,3.3086,3.3017,3.1572,2.9237,3.0563,3.0448,2.9427,3.0854,3.156,3.1705,3.1705,3.1705,3.1705,3.1705,3.1705,3.1584,3.0828,3.0568,3.0568,3.0568,3.1074,3.156,3.0869,3.152,3.2665,3.3373,3.3726,3.3922,3.401,3.4022,3.4022,3.4022,3.4022,3.3938,3.3557,3.3343,3.2735,3.1043,3.0141,2.9353,2.8418,2.7804,2.7517,2.7517,2.7455,2.7413,2.7413,2.7351,2.7309,2.7309,2.7309,2.7309,2.7309,2.7309,2.7309,2.7309,2.7309,2.7309,2.7309,2.7309,2.7309,2.7309,2.8226,2.854,2.8221,2.964,3.0144,2.9805,2.9729,2.9696,2.8787,2.959,3.0168,2.8787,2.87,2.8712,2.7734,2.7496,2.7596,2.8034,2.8073,2.8512,3.0056,2.9446,2.9335,3.1217,3.2528,3.3831,3.5256,3.5881,3.6423,3.712,3.7589,3.7709,3.7348,3.7721,3.7986,3.7986,3.7986,3.7986,3.7986,3.7902,3.7457,3.6555,3.6362,3.5809,3.4787,3.4775,3.4775,3.4775,3.4775,3.3989,3.2532,3.2046,3.0691,2.864,2.8857,2.9093,2.9332,3.0102,3.0913,3.1705,3.1705,3.1705,3.1705,3.1705,3.1705,3.1733,3.2055,3.2132,3.2132,3.2132,3.1956,3.1661,3.1572,3.2253,3.3187,3.3781,3.3923,3.401,3.4474,3.46,3.46,3.46,3.46,3.4693,3.5061,3.445,3.3767,3.3517,3.1945,3.0504,2.9943,2.9063,2.84,2.84,2.8069,2.7821,2.7821,2.7489,2.7309,2.7309,2.7309,2.7309,2.7309,2.7309,2.7309,2.7309,2.7309,2.7309,2.7309,2.7309,2.7309,2.7309,2.8226,2.887,2.927,3.0279,3.0963,3.128,3.0876,3.0679,2.8197,2.8637,2.9001,2.7921,2.8675,2.9312,2.7876,2.7813,2.8088,2.8338,2.8474,2.8887,3.0056,3.0216,3.0962,3.3131,3.3931,3.4655,3.5857,3.6254,3.6603,3.7132,3.7409,3.7565,3.7613,3.7841,3.7986,3.7986,3.7986,3.7853,3.7565,3.7553,3.7204,3.6423,3.6134,3.5749,3.5256,3.4919,3.4775,3.4775,3.4775,3.4257,3.3204,3.1833,3.0409,2.8987,2.8421,2.8188,2.8253,2.9046,2.9977,3.0869,3.0869,3.1238,3.1705,3.1705,3.1383,3.0994,3.1815,3.172,3.1347,3.1899,3.1922,3.1753,3.2164,3.2328,3.2656,3.4204,3.4691,3.4702,3.4388,3.4739,3.4982,3.445,3.4299,3.4446,3.4997,3.4318,3.3592,3.3629,3.2112,3.0827,3.0597,2.9491,2.8618,2.8618,2.8214,2.7924,2.7924,2.7541,2.7392,2.7593,2.7455,2.7403,2.7603,2.7396,2.7309,2.7309,2.7309,2.7309,2.7309,2.7489,2.7614,2.7614,2.8849,2.9455,2.9423,3.042,3.0887,3.0854,3.0635,3.0526,2.7708,2.7971,2.8335,2.7645,2.855,2.9322,2.8288,2.8363,2.8761,2.9023,2.94,2.9799,3.0285,3.1264,3.2621,3.4581,3.5053,3.5569,3.6729,3.6823,3.6928,3.7324,3.7372,3.7541,3.7938,3.7986,3.7986,3.7986,3.7866,3.7613,3.7216,3.7072,3.6771,3.6242,3.5821,3.5557,3.5437,3.504,3.4775,3.4775,3.4775,3.4438,3.3767,3.2044,3.0557,2.9259,2.8298,2.7645,2.7284,2.8028,2.8958,2.9841,2.9841,3.0441,3.1339,3.1339,3.1003,3.0633,3.1149,3.0824,3.0283,3.0919,3.1203,3.1364,3.1924,3.1888,3.2043,3.3808,3.4607,3.4862,3.4329,3.4567,3.4768,3.3983,3.3791,3.3946,3.4351,3.3993,3.3549,3.3549,3.262,3.1705,3.1468,3.0235,2.9231,2.8989,2.8545,2.8245,2.8245,2.7852,2.7707,2.8048,2.7779,2.7665,2.7903,2.7614,2.7417,2.7417,2.7417,2.7469,2.762,2.7903,2.803,2.803,2.9389,2.9944,2.9583,3.0582,3.0887,3.0548,3.0548,3.0548,2.8059,2.8837,2.9415,2.8323,2.7783,2.7758,2.8624,2.8863,2.9189,3.0242,3.1245,3.1918,3.1767,3.27,3.3817,3.4922,3.5771,3.6765,3.8101,3.8024,3.7878,3.7926,3.7926,3.7938,3.7986,3.7986,3.7986,3.7986,3.7529,3.7228,3.7192,3.6723,3.6218,3.5689,3.5641,3.5376,3.4847,3.4799,3.4775,3.4775,3.4775,3.4306,3.331,3.2645,3.1007,2.871,2.8151,2.7645,2.7189,2.7284,2.7887,2.8819,2.8819,2.9418,3.0306,3.0306,3.0869,3.1472,3.0588,3.026,3.0114,2.9639,2.9653,2.9958,2.9922,3.0866,3.1919,3.1666,3.242,3.3589,3.4472,3.4081,3.3353,3.3292,3.3243,3.3254,3.3289,3.4042,3.4678,3.4678,3.4605,3.4228,3.3193,3.2107,3.1027,3.0047,2.9497,2.9208,2.9208,2.8804,2.8524,2.8566,2.8535,2.8359,2.7955,2.7893,2.7872,2.7872,2.7872,2.8069,2.8493,2.8545,2.8566,2.8566,2.9558,3.0104,3.0072,3.104,3.1553,3.152,3.152,3.152,2.8197,2.8662,2.9076,2.8298,2.821,2.8562,2.9549,3.0034,3.0595,3.1718,3.3208,3.4097,3.3481,3.4099,3.4795,3.5324,3.6798,3.7999,3.8348,3.8303,3.8198,3.8039,3.7986,3.7986,3.7986,3.7986,3.7986,3.7986,3.7493,3.7048,3.6723,3.6194,3.5677,3.5148,3.5075,3.504,3.4775,3.4775,3.4775,3.4775,3.4775,3.4282,3.3296,3.2404,3.0798,2.8634,2.7804,2.6992,2.6284,2.6284,2.6877,2.784,2.8448,2.8912,2.928,2.928,2.951,2.9795,2.9418,2.928,2.9268,2.9201,2.9267,2.9462,3.0079,3.0411,3.0794,3.1783,3.1623,3.1454,3.2527,3.2989,3.3051,3.2336,3.2185,3.2387,3.3051,3.2989,3.3178,3.4532,3.3723,3.2878,3.3151,3.175,3.0495,3.0047,2.9601,2.9301,2.9301,2.8897,2.8721,2.9011,2.9042,2.8856,2.839,2.8349,2.8473,2.8763,2.8514,2.8431,2.8607,2.8887,2.9093,2.9285,3.0113,3.0613,3.0818,3.1338,3.1618,3.1618,3.1618,3.1793,2.8423,2.8511,2.8612,2.8411,2.8386,2.8938,3.0985,3.1718,3.2304,3.3427,3.449,3.5186,3.5011,3.5258,3.5646,3.6034,3.7639,3.8736,3.8579,3.8461,3.8303,3.8039,3.7986,3.7986,3.7986,3.7986,3.7914,3.7745,3.724,3.6711,3.6182,3.5653,3.5196,3.4787,3.4775,3.4775,3.4775,3.4775,3.4545,3.4135,3.4135,3.3827,3.3238,3.209,3.0518,2.8634,2.7652,2.6648,2.5693,2.5693,2.61,2.6781,2.7474,2.7945,2.8215,2.8215,2.8448,2.8634,2.8355,2.8215,2.8236,2.8314,2.8415,2.8653,2.9558,2.971,2.9856,3.1125,3.078,3.0193,3.0888,3.1637,3.1993,3.1289,3.1084,3.1289,3.2055,3.1891,3.2033,3.3476,3.2878,3.2235,3.2639,3.1494,3.0391,3.0047,2.9725,2.9528,2.9528,2.9249,2.9177,2.9487,2.9394,2.9177,2.8856,2.8835,2.897,2.929,2.9145,2.9052,2.9052,2.9352,2.9673,2.9908,3.0502,3.0931,3.1178,3.1476,3.1618,3.1578,3.1793,3.2055,2.8737,2.8536,2.8247,2.8762,2.8122,2.8486,3.2893,3.3884,3.4198,3.5282,3.5069,3.5064,3.6216,3.6193,3.6297,3.705,3.8076,3.8788,3.8788,3.8566,3.8303,3.8039,3.7986,3.7986,3.7986,3.7986,3.7757,3.7228,3.6699,3.6182,3.5653,3.5112,3.4775,3.4775,3.4775,3.4775,3.4775,3.4775,3.4062,3.2612,3.26,3.2839,3.3214,3.1681,3.0155,2.8634,2.7652,2.6648,2.5693,2.5693,2.5693,2.5693,2.5703,2.6342,2.7189,2.7189,2.7793,2.8541,2.751,2.7189,2.7119,2.6822,2.6943,2.735,2.7994,2.8685,2.929,2.9301,2.9632,2.9984,2.9994,2.9994,2.9994,2.9994,2.9994,2.9994,2.9994,3.0836,3.1575,3.1575,3.2437,3.2851,3.1779,3.1575,3.1238,3.0193,2.9994,2.9994,2.9994,2.9994,2.9994,2.9994,2.9591,2.9311,2.9311,2.9311,2.9311,2.9311,2.9746,2.9994,2.9994,2.9994,3.0151,3.0391,3.0672,3.0931,3.1178,3.1476,3.1618,3.164,3.2143,3.2394,2.8737,2.9101,2.9227,2.895,2.9842,3.1198,3.293,3.2704,3.3006,3.6069,3.5803,3.5431,3.6734,3.708,3.7218,3.7224,3.8278,3.905,3.8841,3.8736,3.8526,3.8039,3.8145,3.8198,3.8039,3.7986,3.7757,3.7228,3.6699,3.6182,3.5653,3.5112,3.4775,3.4775,3.4775,3.4775,3.4775,3.4414,3.4007,3.3589,3.2134,3.1188,3.0604,3.0164,2.9114,2.7652,2.7321,2.6648,2.5713,2.6074,2.6191,2.623,2.6514,2.6645,2.6665,2.6665,2.6602,2.6572,2.6235,2.6139,2.6169,2.6443,2.6639,2.6825,2.7383,2.7927,2.84,2.8721,2.9156,2.9591,2.9911,2.9994,2.9994,2.9994,2.9994,2.9994,2.9994,3.0245,3.0692,3.1432,3.1238,3.1351,3.2499,3.1494,3.064,3.1032,3.0495,2.9994,2.9994,2.9994,2.9994,2.9994,2.987,2.9787,2.9787,2.9787,2.9787,2.9787,2.9922,2.9994,2.9994,2.9994,3.0151,3.0391,3.0672,3.0931,3.1178,3.1476,3.1804,3.2164,3.2317,3.2743,2.8737,2.9189,2.9465,2.9527,3.0595,3.1901,3.3119,3.3897,3.509,3.7651,3.719,3.6641,3.7688,3.7841,3.7841,3.7877,3.878,3.9374,3.905,3.8998,3.8788,3.825,3.8303,3.8303,3.8039,3.7793,3.7445,3.6916,3.6386,3.5857,3.5328,3.5004,3.4679,3.4474,3.4462,3.4366,3.4222,3.3897,3.3386,3.2783,3.1155,2.9761,2.8571,2.8571,2.8305,2.7793,2.7369,2.6648,2.5703,2.6025,2.623,2.6406,2.667,2.6611,2.6387,2.6387,2.6113,2.5693,2.5693,2.5693,2.5781,2.6207,2.6352,2.6478,2.718,2.7572,2.7919,2.8433,2.8949,2.9373,2.9653,2.986,2.9994,2.9994,2.9994,2.9994,2.9994,2.9994,3.0193,3.0836,3.0443,3.0391,3.1699,3.0847,3.0193,3.0888,3.0391,2.9994,2.9994,2.9994,2.9994,2.9994,2.9994,2.9994,2.9994,2.9994,2.9994,2.9994,2.9994,2.9994,2.9994,2.9994,3.0203,3.0557,3.0724,3.0983,3.1373,3.1723,3.2088,3.2394,3.2765,3.3246,2.8737,2.8925,2.9226,3.0344,3.0834,3.1612,3.3721,3.6584,3.8919,3.9371,3.8768,3.8304,3.8831,3.8442,3.8241,3.8718,3.9258,3.9494,3.9173,3.921,3.9028,3.8388,3.8299,3.8182,3.7954,3.7433,3.6904,3.6374,3.5893,3.5388,3.4811,3.4727,3.4486,3.4006,3.3946,3.3753,3.3296,3.3236,3.2532,3.1113,3.0063,2.8798,2.7321,2.7142,2.7568,2.8355,2.7474,2.6552,2.5693,2.5732,2.6035,2.6396,2.6426,2.6426,2.6387,2.6387,2.6113,2.5693,2.5693,2.5693,2.5732,2.6004,2.61,2.6315,2.7252,2.76,2.7783,2.8433,2.8949,2.9321,2.9352,2.9684,2.9994,2.9994,2.9994,2.9994,2.9994,2.9994,2.9994,2.9994,2.9994,3.0047,3.0141,3.0047,2.9994,2.9994,2.9994,2.9994,2.9994,2.9994,2.9994,2.9994,2.9994,2.9994,2.9994,2.9994,2.9994,2.9994,2.9994,2.9994,2.9994,3.0047,3.0256,3.0776,3.0827,3.1097,3.1633,3.2154,3.2427,3.2536,3.3388,3.3825,2.8737,2.9264,2.9767,3.0444,3.2524,3.4793,3.6182,3.7362,3.8103,3.7789,3.858,3.9233,3.8931,3.8768,3.858,3.8253,3.8454,3.8501,3.8053,3.8339,3.8395,3.784,3.7578,3.7429,3.7376,3.6892,3.6362,3.5821,3.5677,3.5388,3.4811,3.439,3.4114,3.3994,3.3657,3.3404,3.3284,3.2875,3.252,3.216,3.0732,2.9484,2.8308,2.6744,2.6149,2.6332,2.61,2.5917,2.5713,2.6103,2.6309,2.6426,2.6758,2.668,2.6387,2.6387,2.6113,2.5693,2.5693,2.5693,2.5732,2.6004,2.6245,2.6516,2.6906,2.7413,2.7919,2.8483,2.8949,2.9384,2.9746,2.9922,2.9994,2.9994,2.9994,2.9994,2.9994,2.9994,2.9994,2.9994,2.9994,3.0297,3.1084,3.0536,2.9994,2.9994,2.9994,2.9994,2.9994,2.9994,2.9994,2.9994,2.9994,2.9994,2.9994,2.9994,2.9994,2.9994,2.9994,2.9994,2.9994,3.0193,3.0349,3.0505,3.092,3.135,3.1862,3.2213,3.2765,3.3497,3.3704,3.3999,2.8059,2.875,2.9704,3.1047,3.3439,3.5721,3.6596,3.7211,3.76,3.7575,3.8278,3.8806,3.8517,3.8454,3.8366,3.8052,3.8141,3.8129,3.7817,3.8004,3.8028,3.7484,3.7302,3.7089,3.6847,3.6338,3.5918,3.5641,3.5376,3.4955,3.4438,3.4138,3.3766,3.332,3.3044,3.2779,3.256,3.2238,3.2094,3.2094,3.0818,2.9418,2.7934,2.6877,2.6149,2.5732,2.6187,2.6139,2.5703,2.5977,2.6201,2.6406,2.6631,2.6582,2.6387,2.6387,2.6113,2.5693,2.5693,2.5693,2.5732,2.5868,2.611,2.6352,2.6651,2.7054,2.7513,2.8103,2.8618,2.9073,2.9539,2.9829,2.9994,2.9994,2.9994,2.9994,2.9994,2.9994,2.9994,2.9994,2.9994,3.0193,3.0744,3.0391,2.9994,2.9994,2.9994,2.9994,2.9994,2.9994,2.9994,2.9994,2.9994,2.9994,2.9994,2.9994,2.9994,2.9994,2.9994,2.9994,2.9994,3.036,3.0609,3.0609,3.0972,3.1508,3.2141,3.2538,3.3082,3.3803,3.4032,3.4283,2.7281,2.816,2.9553,3.1574,3.364,3.5357,3.5956,3.6433,3.6885,3.7349,3.7739,3.7977,3.7889,3.7864,3.7839,3.7739,3.7801,3.7839,3.7739,3.7801,3.7667,3.7195,3.7009,3.6785,3.6367,3.5785,3.5485,3.5485,3.4943,3.445,3.4018,3.3826,3.3334,3.2527,3.2406,3.213,3.1717,3.1705,3.1705,3.1705,3.0498,2.905,2.7474,2.7105,2.6504,2.5732,2.66,2.6466,2.5693,2.5693,2.5947,2.6279,2.6279,2.6279,2.6279,2.6279,2.6045,2.5693,2.5693,2.5693,2.5693,2.5693,2.5868,2.6149,2.64,2.6749,2.7132,2.7723,2.8317,2.8825,2.9208,2.9653,2.9994,2.9994,2.9994,2.9994,2.9994,2.9994,2.9994,2.9994,2.9994,2.9994,2.9994,2.9994,2.9994,2.9994,2.9994,2.9994,2.9994,2.9994,2.9994,2.9994,2.9994,2.9994,2.9994,2.9994,2.9994,2.9994,2.9994,2.9994,2.9994,3.059,3.0892,3.0892,3.1256,3.1796,3.2623,3.3005,3.3442,3.3934,3.4338,3.4524,2.7281,2.8448,2.9967,3.1198,3.2817,3.4261,3.4813,3.5002,3.5064,3.5152,3.6684,3.7864,3.7374,3.7299,3.7136,3.6707,3.6973,3.7123,3.6694,3.6998,3.7202,3.6886,3.6222,3.5868,3.6037,3.5342,3.4931,3.4931,3.439,3.4066,3.3994,3.3188,3.2647,3.2503,3.2034,3.1789,3.1705,3.1705,3.1705,3.1661,2.9795,2.8773,2.8437,2.6706,2.583,2.5684,2.583,2.583,2.5693,2.5693,2.5723,2.5771,2.5771,2.5771,2.5771,2.5771,2.5732,2.5693,2.5693,2.5693,2.5693,2.5693,2.5868,2.6149,2.64,2.6952,2.7559,2.7806,2.8545,2.9228,2.929,2.9653,2.9994,2.9994,2.9994,2.9994,2.9994,2.9994,2.9994,2.9994,2.9994,2.9994,2.9994,2.9994,2.9994,2.9994,2.9994,2.9994,2.9994,2.9994,2.9994,2.9994,2.9994,2.9994,2.9994,2.9994,2.9994,2.9994,2.9994,2.9994,2.9994,3.0885,3.1412,3.1412,3.196,3.2669,3.3606,3.3672,3.3945,3.4436,3.4491,3.4524,2.7241,2.8047,2.9114,3.0218,3.1499,3.2641,3.3194,3.3809,3.4173,3.3872,3.5064,3.6094,3.5843,3.5805,3.573,3.5479,3.5391,3.5366,3.5429,3.5391,3.5361,3.5407,3.4999,3.4715,3.4664,3.4327,3.3967,3.3549,3.3666,3.3484,3.2743,3.2575,3.2358,3.2046,3.1837,3.1705,3.1705,3.1705,3.1705,3.1661,3.0215,2.9235,2.8634,2.72,2.6235,2.5693,2.5693,2.5693,2.5693,2.5693,2.5693,2.5693,2.5693,2.5693,2.5693,2.5693,2.5693,2.5693,2.5693,2.5693,2.5693,2.5693,2.5868,2.6149,2.64,2.683,2.7385,2.8074,2.8597,2.9032,2.9559,2.9849,2.9994,2.9994,2.9994,2.9994,2.9994,2.9994,2.9994,2.9994,2.9994,2.9994,2.9994,2.9994,2.9994,2.9994,2.9994,2.9994,2.9994,2.9994,2.9994,2.9994,2.9994,2.9994,2.9994,2.9994,2.9994,2.9994,2.9994,2.9994,2.9994,3.0842,3.1476,3.1955,3.25,3.3104,3.3792,3.3792,3.4043,3.4524,3.4524,3.4524,2.7002,2.7482,2.8134,2.9114,3.0181,3.1122,3.1675,3.2566,3.3144,3.2729,3.3307,3.3872,3.3872,3.4223,3.4512,3.4512,3.4048,3.3884,3.4437,3.4035,3.3809,3.4167,3.3892,3.3642,3.3503,3.3302,3.298,3.2412,3.2696,3.2596,3.1842,3.1982,3.1961,3.1717,3.1705,3.1705,3.1705,3.1705,3.1633,3.1512,3.0619,2.9727,2.8828,2.7693,2.6781,2.6052,2.583,2.5693,2.5693,2.5693,2.5693,2.5693,2.5693,2.5693,2.5693,2.5693,2.5693,2.5693,2.5693,2.5693,2.5693,2.5693,2.5868,2.6149,2.64,2.6699,2.7112,2.8115,2.8524,2.8804,2.9611,2.9911,2.9994,2.9994,2.9994,2.9994,2.9994,2.9994,2.9994,2.9994,2.9994,2.9994,2.9994,2.9994,2.9994,2.9994,2.9994,2.9994,2.9994,2.9994,2.9994,2.9994,2.9994,2.9994,2.9994,2.9994,2.9994,2.9994,2.9994,3.0046,3.016,3.0978,3.1762,3.2456,3.3106,3.3617,3.3977,3.3977,3.4163,3.4524,3.4524,3.4524,2.6524,2.6939,2.7469,2.8047,2.9038,3.0018,3.057,3.1122,3.1512,3.1486,3.1524,3.1562,3.1562,3.2867,3.3935,3.3935,3.3483,3.3319,3.3872,3.347,3.3319,3.3884,3.3252,3.2878,3.3187,3.2503,3.2066,3.203,3.1407,3.1334,3.1969,3.1346,3.1211,3.1693,3.1705,3.1705,3.1705,3.1705,3.1452,3.0927,3.0456,2.9917,2.9292,2.7871,2.7189,2.7057,2.61,2.5693,2.5693,2.5693,2.5693,2.5693,2.5693,2.5693,2.5693,2.5693,2.5693,2.5693,2.5693,2.5693,2.5693,2.5693,2.5868,2.6149,2.64,2.6699,2.704,2.7734,2.8276,2.8721,2.9218,2.9673,2.9994,2.9994,2.9994,2.9994,2.9994,2.9994,2.9994,2.9994,2.9994,2.9994,2.9994,2.9994,2.9994,2.9994,2.9994,2.9994,2.9994,2.9994,2.9994,2.9994,2.9994,2.9994,2.9994,2.9994,2.9994,2.9994,2.9994,3.0191,3.0636,3.1676,3.2412,3.287,3.3874,3.4458,3.448,3.448,3.4502,3.4524,3.4524,3.4524,2.6499,2.6637,2.6927,2.7444,2.8147,2.8762,2.8963,2.998,3.0683,2.9967,3.0645,3.1185,3.0495,3.1712,3.2817,3.2817,3.2353,3.2315,3.3244,3.229,3.1825,3.2704,3.2129,3.1712,3.1826,3.1581,3.1196,3.0673,3.0753,3.0894,3.0962,3.0924,3.1163,3.1693,3.1705,3.1536,3.1199,3.096,3.0694,3.0362,3.02,2.9866,2.9379,2.818,2.7461,2.7142,2.6149,2.5693,2.5693,2.5693,2.5693,2.5693,2.5693,2.5693,2.5693,2.5693,2.5693,2.5693,2.5693,2.5693,2.5732,2.5917,2.6004,2.6197,2.6602,2.6805,2.7102,2.8064,2.8483,2.8794,2.9549,2.987,2.9994,2.9994,2.9994,2.9994,2.9994,2.9994,2.9994,2.9994,2.9994,2.9994,2.9994,2.9994,2.9994,2.9994,2.9994,2.9994,2.9994,2.9994,2.9994,2.9994,2.9994,2.9994,2.9994,2.9994,2.9994,2.9994,3.0274,3.0512,3.0677,3.1785,3.2598,3.2912,3.3783,3.4311,3.4524,3.4524,3.4524,3.4524,3.4524,3.4524,2.6549,2.6499,2.6587,2.6952,2.7419,2.7821,2.7821,2.8837,2.9566,2.8775,2.9528,3.0068,2.9352,3.0256,3.1235,3.1612,3.121,3.1185,3.2114,3.1298,3.0871,3.1587,3.1076,3.0705,3.0838,3.0636,3.0295,2.9764,3.0056,3.0229,3.0236,3.0356,3.0719,3.125,3.1305,3.1179,3.0755,3.0531,3.0223,2.9833,3.0182,3.0124,2.9631,2.897,2.8329,2.7652,2.6648,2.6004,2.5693,2.5693,2.5693,2.5693,2.5693,2.5693,2.5693,2.5693,2.5693,2.5693,2.5693,2.5781,2.5868,2.6052,2.6197,2.6448,2.6794,2.6948,2.7236,2.8123,2.838,2.8597,2.9528,2.988,2.9994,2.9994,2.9994,2.9994,2.9994,2.9994,2.9994,2.9994,2.9994,2.9994,2.9994,2.9994,2.9994,2.9994,2.9994,2.9994,2.9994,2.9994,2.9994,2.9994,2.9994,2.9994,2.9994,2.9994,2.9994,2.9994,3.0284,3.0575,3.0827,3.185,3.2598,3.3023,3.3838,3.43,3.4524,3.4524,3.4524,3.4524,3.4524,3.4524,0.0,0.0,0.0,2.6512,2.6901,2.7291,2.7291,2.7682,2.8084,2.8109,2.8109,2.8109,2.8134,2.8499,2.9201,3.0317,3.0118,2.998,3.052,3.057,3.057,3.057,3.008,2.9877,3.0191,2.9704,2.9394,2.9394,2.9211,2.9312,2.984,2.9715,2.9861,3.0379,3.0575,3.0563,3.0379,3.0354,3.0005,2.9292,3.0338,3.0567,3.0122,3.0155,2.9636,2.8669,2.7652,2.6648,2.5684,2.5693,2.5693,2.5693,2.5693,2.5693,2.5693,2.5693,2.5693,2.5684,2.5684,2.5868,2.6091,2.61,2.6496,2.69,2.69,2.7081,2.7392,2.78,2.7924,2.8142,2.9063,2.9642,2.9973,2.9994,2.9994,2.9994,2.9994,2.9994,2.9994,2.9994,2.9994,2.9994,2.9994,2.9994,2.9994,2.9994,2.9994,2.9994,2.9994,2.9994,2.9994,2.9994,2.9994,2.9994,2.9994,2.9994,2.9994,2.9994,3.0005,3.037,3.1073,3.1879,3.2608,3.3277,3.4095,3.4513,3.4524,3.4524,3.4524,3.4524,3.4524,3.4524,2.7695,0.0,0.0,0.0,0.0,0.0,2.6725,2.7153,2.762,2.8021,2.8109,2.8235,2.8624,2.8172,2.7971,2.8687,2.9365,2.9842,2.9993,2.9666,2.9352,2.9352,2.8913,2.8599,2.87,2.89,2.9038,2.9038,2.8835,2.8929,2.9288,2.9508,2.9861,3.0379,3.0208,3.0029,2.9825,2.9448,2.906,2.8739,2.9412,2.9928,3.0295,2.9814,2.9443,2.9131,2.7782,2.6733,2.5955,2.5781,2.5693,2.5693,2.5693,2.5693,2.5693,2.5693,2.583,2.6004,2.6004,2.6149,2.64,2.6602,2.6805,2.6948,2.7129,2.7262,2.7392,2.78,2.7924,2.8142,2.9063,2.9404,2.958,2.9911,2.9994,2.9994,2.9994,2.9994,2.9994,2.9994,2.9994,2.9994,2.9994,2.9994,2.9994,2.9994,2.9994,2.9994,2.9994,2.9994,2.9994,2.9994,2.9994,2.9994,2.9994,2.9994,2.9994,2.9994,3.0315,3.0703,3.1084,3.1804,3.2597,3.3277,3.3758,3.4174,3.4524,3.4524,3.4524,3.4524,3.4524,3.4524,0.0,0.0,0.0,2.762,0.0,0.0,2.6839,2.6725,2.6804,2.7595,2.7394,2.7306,2.8097,2.7532,2.7077,2.7369,2.8172,2.8825,2.9063,2.9001,2.8813,2.8574,2.8298,2.8109,2.8109,2.8398,2.8586,2.8586,2.8462,2.8462,2.8569,2.8959,2.9309,2.9653,2.9687,2.9585,2.9386,2.908,2.8803,2.8618,2.9242,2.9735,3.008,3.011,2.9778,2.9138,2.8069,2.7098,2.6327,2.5679,2.5566,2.5693,2.5693,2.5693,2.5693,2.5693,2.5868,2.61,2.61,2.6352,2.6699,2.6853,2.6996,2.7081,2.7262,2.7309,2.7361,2.7572,2.7914,2.8338,2.8876,2.9301,2.9663,2.9932,2.9994,2.9994,2.9994,2.9994,2.9994,2.9994,2.9994,2.9994,2.9994,2.9994,2.9994,2.9994,2.9994,2.9994,2.9994,2.9994,2.9994,2.9994,2.9994,2.9994,2.9994,2.9994,2.9994,2.9994,3.0253,3.0546,3.08,3.1508,3.2298,3.3041,3.353,3.4032,3.4524,3.4524,3.4524,3.4524,3.4524,3.4524,0.0,0.0,0.0,2.8197,2.7783,0.0,2.7369,2.6553,2.6088,2.7155,2.6477,2.6025,2.7092,2.6864,2.6499,2.6499,2.6901,2.7369,2.7858,2.8361,2.8499,2.7996,2.7921,2.7921,2.7921,2.7984,2.8009,2.8009,2.7972,2.7875,2.7705,2.8201,2.8536,2.8573,2.9094,2.9314,2.9091,2.9091,2.9013,2.8803,2.9551,2.9808,2.9711,3.0737,3.0408,2.8958,2.8411,2.7616,2.6655,2.5617,2.5419,2.5693,2.5732,2.5732,2.5732,2.5781,2.5965,2.6197,2.6197,2.6544,2.6948,2.6948,2.7129,2.7309,2.7309,2.7309,2.7309,2.7309,2.7841,2.8483,2.8587,2.9228,2.987,2.9973,2.9994,2.9994,2.9994,2.9994,2.9994,2.9994,2.9994,2.9994,2.9994,2.9994,2.9994,2.9994,2.9994,2.9994,2.9994,2.9994,2.9994,2.9994,2.9994,2.9994,2.9994,2.9994,2.9994,2.9994,2.9994,3.012,3.0464,3.1127,3.1913,3.2771,3.3519,3.4087,3.4524,3.4524,3.4524,3.4524,3.4524,3.4524,2.9503,2.9126,2.8725,2.8725,2.8348,0.0,2.7946,2.7431,2.7143,2.7808,2.7067,2.6524,2.719,2.6864,2.6499,2.6499,2.6587,2.6688,2.6801,2.7256,2.7394,2.6889,2.6813,2.6813,2.6813,2.718,2.7444,2.7444,2.7324,2.7145,2.6917,2.7594,2.8077,2.8345,2.9029,2.9314,2.9091,2.9091,2.9013,2.8803,2.9551,2.9982,3.018,3.0863,3.0567,2.9416,2.8835,2.802,2.7041,2.6252,2.5838,2.5732,2.5965,2.6004,2.6052,2.6255,2.6496,2.6747,2.6747,2.6938,2.7214,2.7214,2.7262,2.7309,2.7309,2.7309,2.7309,2.7309,2.7434,2.7745,2.8421,2.8752,2.9073,2.9818,2.9994,2.9994,2.9994,2.9994,2.9994,2.9994,2.9994,2.9994,2.9994,2.9994,2.9994,2.9994,2.9994,2.9994,2.9994,2.9994,2.9994,2.9994,2.9994,2.9994,2.9994,2.9994,2.9994,2.9994,2.9994,3.0318,3.0937,3.1296,3.2009,3.3137,3.3965,3.4436,3.4524,3.4524,3.4524,3.4524,3.4524,3.4524,2.9792,2.9578,2.9365,2.9365,2.8938,0.0,0.0,2.7871,2.7444,2.7996,2.7005,2.6235,2.6801,2.6449,2.6059,2.6059,2.6298,2.6499,2.6499,2.6738,2.6801,2.6524,2.6499,2.66,2.6876,2.6901,2.6901,2.6901,2.6797,2.6656,2.6457,2.7392,2.7965,2.8052,2.8919,2.9341,2.9236,2.9236,2.9197,2.9106,2.9468,2.9722,2.9891,3.0638,3.0614,2.9908,2.9111,2.8518,2.798,2.6562,2.6008,2.612,2.6255,2.6294,2.6294,2.6448,2.6651,2.69,2.69,2.7081,2.7309,2.7309,2.7309,2.7309,2.7309,2.7309,2.7351,2.7531,2.7593,2.78,2.8721,2.8959,2.9135,2.9829,2.9994,2.9994,2.9994,2.9994,2.9994,2.9994,2.9994,2.9994,2.9994,2.9994,2.9994,2.9994,2.9994,2.9994,2.9994,2.9994,2.9994,2.9994,2.9994,2.9994,2.9994,2.9994,2.9994,2.9994,3.0212,3.0492,3.0881,3.1296,3.2041,3.3193,3.3857,3.4283,3.4524,3.4524,3.4524,3.4524,3.4524,3.4524,2.9792,2.9792,2.9792,2.9792,2.944,2.9051,0.0,0.0,0.0,2.8172,2.7017,2.6063,2.6562,2.6097,2.5636,2.5737,2.6097,2.6361,2.6474,2.6499,2.6499,2.6499,2.6499,2.6663,2.7115,2.6851,2.6612,2.6499,2.66,2.6509,2.6213,2.7412,2.8024,2.7791,2.8898,2.9457,2.9419,2.9457,2.9457,2.9419,2.9457,2.947,2.9507,3.0325,3.0392,2.9843,2.9103,2.869,2.8455,2.6703,2.6269,2.664,2.6602,2.6602,2.6602,2.664,2.6794,2.6996,2.6996,2.7129,2.7309,2.7309,2.7309,2.7309,2.7309,2.7372,2.7448,2.7717,2.7852,2.809,2.8845,2.9042,2.9177,2.9735,2.986,2.9891,2.9973,2.9994,2.9994,2.9994,2.9994,2.9994,2.9994,2.9994,2.9994,2.9994,2.9994,2.9994,2.9994,2.9994,2.9994,2.9994,2.9994,2.9994,2.9994,2.9994,3.0036,3.0118,3.0481,3.077,3.0936,3.1548,3.2309,3.3202,3.3693,3.413,3.4524,3.4524,3.4524,3.4524,3.4524,3.4524,2.9792,2.9792,2.9792,2.9792,2.9741,2.9691,2.9691,0.0,2.8725,2.8787,0.0,2.7118,2.7216,0.0,0.0,2.6311,2.6021,2.5908,2.6424,2.6499,2.6499,2.6499,2.6499,2.6512,2.6587,2.6977,2.7014,2.6524,2.6952,2.6909,2.6238,2.7412,2.8024,2.7791,2.9075,2.965,2.9419,2.965,2.965,2.9419,2.965,2.974,2.9765,3.0104,2.9588,2.835,2.8541,2.8054,2.7112,2.6858,2.6935,2.7214,2.6938,2.6853,2.69,2.7119,2.7214,2.7262,2.7262,2.7262,2.7309,2.7309,2.7309,2.7309,2.7309,2.7541,2.7779,2.7486,2.7624,2.7896,2.8059,2.8079,2.8297,2.9177,2.9384,2.9497,2.9911,2.9994,2.9994,2.9994,2.9994,2.9994,2.9994,2.9994,2.9994,2.9994,2.9994,2.9994,2.9994,2.9994,2.9994,2.9994,2.9994,2.9994,2.9994,2.9994,3.017,3.0584,3.0657,3.105,3.1802,3.2833,3.3489,3.3715,3.4196,3.4469,3.4524,3.4524,3.4524,3.4524,3.4524,3.4524,3.0181,3.0043,2.9792,2.9792,2.9792,2.9792,2.9792,2.9603,2.934,2.8963,0.0,0.0,0.0,0.0,0.0,0.0,2.6285,2.6223,2.6461,2.6499,2.6499,2.6499,2.6499,2.6499,2.6499,2.7002,2.7216,2.6989,2.6889,2.6771,2.6683,2.7262,2.7698,2.7815,2.875,2.9402,2.965,2.974,2.974,2.965,2.9611,2.965,2.9804,2.9604,2.9217,2.8789,2.8394,2.7962,2.7504,2.7217,2.7225,2.7309,2.7167,2.7129,2.7129,2.7262,2.7309,2.7309,2.7309,2.7309,2.7309,2.7309,2.7309,2.7309,2.7309,2.7444,2.7552,2.7624,2.7593,2.7665,2.8183,2.8328,2.8483,2.9145,2.9508,2.9756,2.9953,2.9994,2.9994,2.9994,2.9994,2.9994,2.9994,2.9994,2.9994,2.9994,2.9994,2.9994,2.9994,2.9994,2.9994,2.9994,2.9994,2.9994,2.9994,3.0243,3.0481,3.0677,3.1174,3.1805,3.2458,3.2947,3.3392,3.3792,3.3988,3.424,3.4524,3.4524,3.4524,3.4524,3.4524,3.4524,3.047,3.0218,2.9829,2.998,2.9905,2.9792,2.9792,2.9792,2.9679,2.9252,2.8599,0.0,0.0,0.0,2.6549,0.0,0.0,2.6499,2.6499,2.6499,2.6499,2.6499,2.6499,2.6499,2.6499,2.7002,2.7253,2.7102,2.7002,2.6919,2.6866,2.7272,2.761,2.7852,2.8562,2.9202,2.9779,2.9792,2.9792,2.9792,2.9599,2.9599,2.9804,2.9389,2.9011,2.8668,2.8145,2.7644,2.7216,2.7144,2.7123,2.7133,2.7258,2.7309,2.7309,2.7309,2.7309,2.7309,2.7309,2.7309,2.7309,2.7309,2.7309,2.7309,2.7309,2.7486,2.7665,2.7872,2.7872,2.7935,2.8473,2.8618,2.8731,2.9197,2.9559,2.9839,2.9973,2.9994,2.9994,2.9994,2.9994,2.9994,2.9994,2.9994,2.9994,2.9994,2.9994,2.9994,2.9994,2.9994,2.9994,2.9994,2.9994,2.9994,2.9994,3.0419,3.0739,3.0864,3.1778,3.2441,3.2676,3.3031,3.3383,3.3792,3.3934,3.4163,3.4524,3.4524,3.4524,3.4524,3.4524,3.4524,3.047,3.0218,2.9917,3.0457,3.0181,2.9792,2.9792,2.9792,2.9779,2.9767,2.8875,2.826,2.875,2.7557,0.0,0.0,0.0,0.0,0.0,2.6499,2.6499,2.6499,2.6499,2.6499,2.6499,2.7002,2.709,2.6562,2.7457,2.7595,2.6575,2.7507,2.8084,2.8109,2.8599,2.9202,2.9779,2.9792,2.9792,2.9792,2.9792,2.9792,2.9792,2.9765,2.8828,2.7196,2.7611,2.6831,2.5337,2.6273,2.6635,2.6687,2.7133,2.7309,2.7309,2.7309,2.7309,2.7309,2.7309,2.7309,2.7309,2.7309,2.7309,2.7309,2.7309,2.7872,2.8483,2.8038,2.8556,2.9145,2.8721,2.8618,2.8731,2.9197,2.9321,2.9446,2.9901,2.9994,2.9994,2.9994,2.9994,2.9994,2.9994,2.9994,2.9994,2.9994,2.9994,2.9994,2.9994,2.9994,2.9994,2.9994,2.9994,2.9994,2.9994,3.0419,3.0874,3.1329,3.249,3.2864,3.2263,3.3403,3.395,3.3803,3.4261,3.4457,3.4524,3.4524,3.4524,3.4524,3.4524,3.4524,3.0984,3.0997,3.0821,3.0658,3.047,3.0244,2.988,2.9792,2.9792,2.9792,2.9189,2.8825,2.9402,2.8423,0.0,0.0,0.0,0.0,0.0,2.5887,2.6059,2.6449,2.6499,2.6499,2.6499,2.6311,2.6402,2.7002,2.6653,2.6766,2.7507,2.7241,2.7519,2.8612,2.8473,2.8837,2.9779,2.9792,2.9792,2.9792,2.9792,2.9792,2.9792,2.9209,2.8633,2.8035,2.7856,2.7149,2.613,2.7083,2.7112,2.6656,2.7123,2.7309,2.7309,2.7309,2.7309,2.7309,2.7309,2.7309,2.7309,2.7309,2.7309,2.7309,2.7309,2.7676,2.8121,2.7917,2.8369,2.8804,2.8649,2.8835,2.9104,2.927,2.9539,2.9808,2.9963,2.9994,2.9994,2.9994,2.9994,2.9994,2.9994,2.9994,2.9994,2.9994,2.9994,2.9994,2.9994,2.9994,2.9994,2.9994,2.9994,2.9994,2.9994,3.0419,3.1143,3.2209,3.2563,3.2833,3.3146,3.3746,3.4179,3.4283,3.4436,3.4524,3.4524,3.4524,3.4524,3.4524,3.4524,3.4524,3.1537,3.1537,3.1348,3.1223,3.1035,3.0746,3.0206,3.008,3.003,2.9829,2.9176,2.8875,2.9641,2.8712,0.0,0.0,0.0,0.0,0.0,2.59,2.6072,2.6449,2.6499,2.6411,2.621,2.6034,2.6126,2.664,2.6377,2.6678,2.7758,2.7178,2.7419,2.885,2.8398,2.8649,2.9779,2.9792,2.9792,2.9792,2.9792,2.9792,2.9792,2.9209,2.8791,2.8474,2.8163,2.755,2.6747,2.7392,2.7302,2.683,2.7155,2.7309,2.7309,2.7309,2.7413,2.7469,2.7361,2.7413,2.7469,2.7361,2.7413,2.7489,2.7489,2.7924,2.8411,2.8411,2.8752,2.9104,2.9104,2.9321,2.9549,2.9549,2.9777,2.9994,2.9994,2.9994,2.9994,2.9994,2.9994,2.9994,2.9994,2.9994,2.9994,2.9994,2.9994,2.9994,2.9994,2.9994,2.9994,2.9994,2.9994,3.0129,3.046,3.076,3.1381,3.2359,3.2646,3.2906,3.3314,3.3832,3.4417,3.5026,3.4698,3.4698,3.5037,3.4687,3.4524,3.4524,3.4524,3.4524]}]]